[[{"header":{"parameterUnit":"m.s-1","parameterCategory":1,"la1":30.6,"la2":29.2853,"lo1":-89.7004,"lo2":-87.6739,"dy":0.0162,"dx":0.0183,"nx":112,"ny":82,"refTime":"2025-05-16T12:00:00:Z","depth":0,"parameterNumber":2,"parameterNumberName":"U-component_of_WINDS"},"data":[0.0,0.0,0.0,0.0,0.0,0.0,0.0,0.0,0.0,0.0,0.0,0.0,0.0,0.0,0.0,0.0,0.0,0.0,0.0,0.0,0.0,0.0,0.0,0.0,0.0,0.0,0.0,0.0,0.0,0.0,0.0,0.0,0.0,0.0,0.0,0.0,0.0,0.0,0.0,0.0,0.0,0.0,0.0,0.0,0.0,0.0,0.0,0.0,0.0,0.0,0.0,0.0,0.0,0.0,0.0,0.0,0.0,0.0,0.0,0.0,0.0,0.0,0.0,0.0,0.0,0.0,0.0,0.0,0.0,0.0,0.0,0.0,0.0,0.0,0.0,0.0,0.0,0.0,0.0,0.0,0.0,0.0,0.0,0.0,0.0,0.0,0.0,0.0,0.0,0.0,-5.3818,-5.3626,-5.4857,-5.5703,-5.5703,-5.4857,-5.3567,-5.189,0.0,0.0,0.0,0.0,0.0,0.0,0.0,0.0,0.0,0.0,0.0,0.0,0.0,0.0,0.0,0.0,0.0,0.0,0.0,0.0,0.0,0.0,0.0,0.0,0.0,0.0,0.0,0.0,0.0,0.0,0.0,0.0,0.0,0.0,0.0,0.0,0.0,0.0,0.0,0.0,0.0,0.0,0.0,0.0,0.0,0.0,0.0,0.0,0.0,0.0,0.0,0.0,0.0,0.0,0.0,0.0,0.0,0.0,0.0,0.0,0.0,0.0,0.0,0.0,0.0,0.0,0.0,0.0,0.0,0.0,0.0,0.0,0.0,0.0,0.0,0.0,0.0,0.0,0.0,0.0,0.0,0.0,0.0,0.0,0.0,0.0,0.0,0.0,0.0,0.0,0.0,0.0,0.0,0.0,0.0,0.0,0.0,0.0,0.0,0.0,0.0,0.0,0.0,0.0,-5.2328,-5.5011,-5.5549,-5.5703,-5.5703,-5.428,-5.2951,-5.1851,0.0,0.0,0.0,0.0,0.0,0.0,0.0,0.0,0.0,0.0,0.0,0.0,0.0,0.0,0.0,0.0,0.0,0.0,0.0,0.0,0.0,0.0,0.0,0.0,0.0,0.0,0.0,0.0,0.0,0.0,0.0,0.0,0.0,0.0,0.0,0.0,0.0,0.0,0.0,0.0,0.0,0.0,0.0,0.0,0.0,0.0,0.0,0.0,0.0,0.0,0.0,0.0,0.0,0.0,0.0,0.0,0.0,0.0,0.0,0.0,0.0,0.0,0.0,0.0,0.0,0.0,0.0,0.0,0.0,0.0,0.0,0.0,0.0,0.0,0.0,0.0,0.0,0.0,0.0,0.0,0.0,0.0,0.0,0.0,0.0,0.0,0.0,0.0,0.0,0.0,0.0,0.0,0.0,0.0,0.0,0.0,0.0,0.0,0.0,0.0,0.0,0.0,0.0,-5.1856,-5.2472,-5.5395,-5.5703,-5.5511,-5.5088,-5.3895,-5.2423,-5.0624,-4.9911,0.0,0.0,0.0,0.0,0.0,0.0,0.0,0.0,0.0,0.0,0.0,0.0,0.0,0.0,0.0,0.0,0.0,0.0,0.0,0.0,0.0,0.0,0.0,0.0,0.0,0.0,0.0,0.0,0.0,0.0,0.0,0.0,0.0,0.0,0.0,0.0,0.0,0.0,0.0,0.0,0.0,0.0,0.0,0.0,0.0,0.0,0.0,0.0,0.0,0.0,0.0,0.0,0.0,0.0,0.0,0.0,0.0,0.0,0.0,0.0,0.0,0.0,0.0,0.0,0.0,0.0,0.0,0.0,0.0,0.0,0.0,0.0,0.0,0.0,0.0,0.0,0.0,0.0,0.0,0.0,0.0,0.0,0.0,0.0,0.0,0.0,0.0,0.0,0.0,0.0,0.0,0.0,0.0,0.0,0.0,0.0,0.0,0.0,0.0,0.0,0.0,0.0,-5.2356,-5.3087,-5.5434,-5.5511,-5.5164,-5.4549,-5.3356,-5.1702,-4.9548,-4.929,0.0,0.0,0.0,0.0,0.0,0.0,0.0,0.0,0.0,0.0,0.0,0.0,0.0,0.0,0.0,0.0,0.0,0.0,0.0,0.0,0.0,0.0,0.0,0.0,0.0,0.0,0.0,0.0,0.0,0.0,0.0,0.0,0.0,0.0,0.0,0.0,0.0,0.0,0.0,0.0,0.0,0.0,0.0,0.0,0.0,0.0,0.0,0.0,0.0,0.0,0.0,0.0,0.0,0.0,0.0,0.0,0.0,0.0,0.0,0.0,0.0,0.0,0.0,0.0,0.0,0.0,0.0,0.0,0.0,0.0,0.0,0.0,0.0,0.0,0.0,0.0,0.0,0.0,0.0,0.0,0.0,0.0,0.0,0.0,0.0,0.0,0.0,0.0,0.0,0.0,0.0,0.0,0.0,0.0,0.0,0.0,0.0,0.0,0.0,0.0,0.0,0.0,-5.2164,-5.378,-5.5511,-5.5011,-5.4549,-5.4511,-5.2279,-5.0433,-4.9471,-4.8719,0.0,0.0,0.0,0.0,0.0,0.0,0.0,0.0,0.0,0.0,0.0,0.0,0.0,0.0,0.0,0.0,0.0,0.0,0.0,0.0,0.0,0.0,0.0,0.0,0.0,0.0,0.0,0.0,0.0,0.0,0.0,0.0,0.0,0.0,0.0,0.0,0.0,0.0,0.0,0.0,0.0,0.0,0.0,0.0,0.0,0.0,0.0,0.0,0.0,0.0,0.0,0.0,0.0,0.0,0.0,0.0,0.0,0.0,0.0,0.0,0.0,0.0,0.0,0.0,0.0,0.0,0.0,0.0,0.0,0.0,0.0,0.0,0.0,0.0,0.0,0.0,0.0,0.0,0.0,0.0,0.0,0.0,0.0,0.0,0.0,0.0,0.0,0.0,0.0,0.0,0.0,0.0,0.0,0.0,0.0,0.0,0.0,0.0,0.0,0.0,0.0,0.0,-5.1356,-5.2856,-5.401,-5.4357,-5.4049,-5.2972,-5.201,-5.0625,-4.8702,0.0,0.0,0.0,0.0,0.0,0.0,0.0,0.0,0.0,0.0,0.0,0.0,0.0,0.0,0.0,0.0,0.0,0.0,0.0,0.0,0.0,0.0,0.0,0.0,0.0,0.0,0.0,0.0,0.0,0.0,0.0,0.0,0.0,0.0,0.0,0.0,0.0,0.0,0.0,0.0,0.0,0.0,0.0,0.0,0.0,0.0,0.0,0.0,0.0,0.0,0.0,0.0,0.0,0.0,0.0,0.0,0.0,0.0,0.0,0.0,0.0,0.0,0.0,0.0,0.0,0.0,0.0,0.0,0.0,0.0,0.0,0.0,0.0,0.0,0.0,0.0,0.0,0.0,0.0,0.0,0.0,0.0,0.0,0.0,0.0,0.0,0.0,0.0,0.0,0.0,0.0,0.0,0.0,0.0,0.0,0.0,0.0,0.0,0.0,0.0,0.0,0.0,-4.9356,-5.0856,-5.2231,-5.3126,-5.3472,-5.3203,-5.2,-5.1423,-5.0164,-4.7855,0.0,0.0,0.0,0.0,0.0,0.0,0.0,0.0,0.0,0.0,0.0,0.0,0.0,0.0,0.0,0.0,0.0,0.0,0.0,0.0,0.0,0.0,0.0,0.0,0.0,0.0,0.0,0.0,0.0,0.0,0.0,0.0,0.0,0.0,0.0,0.0,0.0,0.0,0.0,0.0,0.0,0.0,0.0,0.0,0.0,0.0,0.0,0.0,0.0,0.0,0.0,0.0,0.0,0.0,0.0,0.0,0.0,0.0,0.0,0.0,0.0,0.0,0.0,0.0,0.0,0.0,0.0,0.0,0.0,0.0,0.0,0.0,0.0,0.0,0.0,0.0,0.0,0.0,0.0,0.0,0.0,0.0,0.0,0.0,0.0,0.0,0.0,0.0,0.0,0.0,0.0,0.0,0.0,0.0,0.0,0.0,0.0,0.0,0.0,0.0,0.0,0.0,-4.9279,-5.0856,-5.2231,-5.3087,-5.2423,-5.1885,-5.1885,-5.0356,-4.8663,0.0,0.0,0.0,0.0,0.0,0.0,0.0,0.0,0.0,0.0,0.0,0.0,0.0,0.0,0.0,0.0,0.0,0.0,0.0,0.0,0.0,0.0,0.0,0.0,0.0,0.0,0.0,0.0,0.0,0.0,0.0,0.0,0.0,0.0,0.0,0.0,0.0,0.0,0.0,0.0,0.0,0.0,0.0,0.0,0.0,0.0,0.0,0.0,0.0,0.0,0.0,0.0,0.0,0.0,0.0,0.0,0.0,0.0,0.0,0.0,0.0,0.0,0.0,0.0,0.0,0.0,0.0,0.0,0.0,0.0,0.0,0.0,0.0,0.0,0.0,0.0,0.0,0.0,0.0,0.0,0.0,0.0,0.0,0.0,0.0,0.0,0.0,0.0,0.0,0.0,0.0,0.0,0.0,0.0,0.0,0.0,0.0,0.0,0.0,0.0,0.0,0.0,0.0,-4.8471,-5.0462,-5.1769,-5.1471,-5.1702,-5.1654,-5.1087,-5.0048,-4.8663,-4.7,0.0,0.0,0.0,0.0,0.0,0.0,0.0,0.0,0.0,0.0,0.0,0.0,0.0,0.0,0.0,0.0,0.0,0.0,0.0,0.0,0.0,0.0,0.0,0.0,0.0,0.0,0.0,0.0,0.0,0.0,0.0,0.0,0.0,0.0,0.0,0.0,0.0,0.0,0.0,0.0,0.0,0.0,0.0,0.0,0.0,0.0,0.0,0.0,0.0,0.0,0.0,0.0,0.0,0.0,0.0,0.0,0.0,0.0,0.0,0.0,0.0,0.0,0.0,0.0,0.0,0.0,0.0,0.0,0.0,0.0,0.0,0.0,0.0,0.0,0.0,0.0,0.0,0.0,0.0,0.0,0.0,0.0,0.0,0.0,0.0,0.0,0.0,0.0,0.0,0.0,0.0,0.0,0.0,0.0,0.0,0.0,0.0,0.0,0.0,0.0,0.0,0.0,-4.7586,-4.9856,-5.1241,-5.075,-5.1125,-5.1241,-5.075,-4.9894,-4.8548,-4.6509,0.0,0.0,0.0,0.0,0.0,0.0,0.0,0.0,0.0,0.0,0.0,0.0,0.0,0.0,0.0,0.0,0.0,0.0,0.0,0.0,0.0,0.0,0.0,0.0,0.0,0.0,0.0,0.0,0.0,0.0,0.0,0.0,0.0,0.0,0.0,0.0,0.0,0.0,0.0,0.0,0.0,0.0,0.0,0.0,0.0,0.0,0.0,0.0,0.0,0.0,0.0,0.0,0.0,0.0,0.0,0.0,0.0,0.0,0.0,0.0,0.0,0.0,0.0,0.0,0.0,0.0,0.0,0.0,0.0,0.0,0.0,0.0,0.0,0.0,0.0,0.0,0.0,0.0,0.0,0.0,0.0,0.0,0.0,0.0,0.0,0.0,0.0,0.0,0.0,0.0,0.0,0.0,0.0,0.0,0.0,0.0,0.0,0.0,0.0,0.0,0.0,0.0,-4.6894,-4.9173,-5.0712,-5.0712,-5.0712,-5.0712,-5.0712,-4.9817,-4.824,-4.5864,0.0,0.0,0.0,0.0,0.0,0.0,0.0,0.0,0.0,0.0,0.0,0.0,0.0,0.0,0.0,0.0,0.0,0.0,0.0,0.0,0.0,0.0,0.0,0.0,0.0,0.0,0.0,0.0,0.0,0.0,0.0,0.0,0.0,0.0,0.0,0.0,0.0,0.0,0.0,0.0,0.0,0.0,0.0,0.0,0.0,0.0,0.0,0.0,0.0,0.0,0.0,0.0,0.0,0.0,0.0,0.0,0.0,0.0,0.0,0.0,-5.1621,-5.1291,0.0,0.0,0.0,0.0,0.0,0.0,0.0,0.0,0.0,0.0,0.0,0.0,0.0,0.0,0.0,0.0,0.0,0.0,0.0,0.0,0.0,0.0,0.0,0.0,0.0,0.0,0.0,0.0,0.0,0.0,0.0,0.0,0.0,0.0,0.0,0.0,0.0,0.0,0.0,0.0,-4.7663,-4.9509,-5.0712,-5.0712,-5.0712,-5.0712,-5.0712,-4.9279,-4.7894,-4.6701,-4.4739,0.0,0.0,0.0,0.0,0.0,0.0,0.0,0.0,0.0,0.0,0.0,0.0,0.0,0.0,0.0,0.0,0.0,0.0,0.0,0.0,0.0,0.0,0.0,0.0,0.0,0.0,0.0,0.0,0.0,0.0,0.0,0.0,0.0,0.0,0.0,0.0,0.0,0.0,0.0,0.0,0.0,0.0,0.0,0.0,0.0,0.0,0.0,0.0,0.0,0.0,0.0,0.0,0.0,0.0,0.0,0.0,0.0,0.0,0.0,-5.2378,-5.2218,0.0,0.0,0.0,0.0,0.0,0.0,0.0,0.0,0.0,0.0,0.0,0.0,0.0,0.0,0.0,0.0,0.0,0.0,0.0,0.0,0.0,0.0,0.0,0.0,0.0,0.0,0.0,0.0,0.0,0.0,0.0,0.0,0.0,0.0,0.0,0.0,0.0,0.0,0.0,0.0,-4.7353,-4.9044,-5.0248,-5.0673,-4.9971,-4.9653,-5.0058,-4.8509,-4.7163,-4.6317,-4.4624,0.0,0.0,0.0,0.0,0.0,0.0,0.0,0.0,0.0,0.0,0.0,0.0,0.0,0.0,0.0,0.0,0.0,0.0,0.0,0.0,0.0,0.0,0.0,0.0,0.0,0.0,0.0,0.0,0.0,0.0,0.0,0.0,0.0,0.0,0.0,0.0,0.0,0.0,0.0,0.0,0.0,0.0,0.0,0.0,0.0,0.0,0.0,0.0,0.0,0.0,0.0,0.0,0.0,-5.4326,-5.429,-5.402,-5.4176,-5.4139,-5.3945,-5.3242,-5.3242,-5.3711,-5.2957,0.0,0.0,0.0,0.0,0.0,0.0,0.0,0.0,0.0,0.0,0.0,0.0,0.0,0.0,0.0,0.0,0.0,0.0,0.0,0.0,0.0,0.0,-4.9644,-4.8916,-4.9288,-4.9412,-4.7989,0.0,0.0,0.0,0.0,0.0,0.0,0.0,0.0,0.0,0.0,0.0,-4.6827,-4.8441,-4.9723,-5.0218,-4.9053,-4.8496,-4.9153,-4.7797,-4.6595,-4.5873,-4.4863,-4.3355,0.0,0.0,0.0,0.0,0.0,0.0,0.0,0.0,0.0,0.0,0.0,0.0,0.0,0.0,0.0,0.0,0.0,0.0,0.0,0.0,0.0,0.0,0.0,0.0,0.0,0.0,0.0,0.0,0.0,0.0,0.0,0.0,-5.7353,-5.8088,0.0,0.0,0.0,0.0,0.0,0.0,0.0,0.0,0.0,0.0,0.0,0.0,0.0,-5.3234,-5.3975,-5.4756,-5.4756,-5.4014,-5.5537,-5.546,-5.4015,-5.4796,-5.4721,-5.3983,-5.3865,0.0,-5.2851,-5.2734,0.0,0.0,0.0,0.0,0.0,0.0,0.0,0.0,0.0,0.0,0.0,0.0,0.0,0.0,0.0,0.0,0.0,0.0,0.0,0.0,0.0,0.0,-5.0697,-5.0581,-5.0658,-5.0658,-5.0426,-4.8593,-4.6692,-4.5573,-4.487,-4.4137,0.0,0.0,0.0,0.0,0.0,0.0,-4.6868,-4.8522,-4.9349,-4.8681,-4.8403,-4.8326,-4.8433,-4.7512,-4.6831,-4.6754,-4.5188,-4.4162,-4.3816,-4.1785,0.0,0.0,0.0,0.0,0.0,0.0,0.0,0.0,0.0,0.0,0.0,0.0,0.0,0.0,0.0,0.0,0.0,0.0,0.0,0.0,0.0,0.0,0.0,0.0,0.0,0.0,0.0,0.0,0.0,-5.7636,-5.8266,-5.7736,-5.8201,-5.7705,0.0,0.0,0.0,0.0,0.0,0.0,0.0,0.0,0.0,-5.4039,-5.411,-5.4589,-5.5446,-5.5837,-5.5837,-5.5485,-5.6229,-5.6192,-5.5454,-5.5337,-5.5108,-5.4683,-5.4214,-5.3512,-5.2693,-5.2695,-5.2461,-5.207,0.0,0.0,0.0,0.0,-5.1304,-5.1301,-5.1274,-5.1263,-5.1102,-5.0208,0.0,0.0,0.0,0.0,0.0,0.0,0.0,-4.9948,-5.0409,-5.0798,-5.1064,-5.1064,-5.1049,-5.0991,-5.0991,-5.0054,-4.8802,-4.7449,-4.6546,-4.5372,-4.3525,-4.2886,0.0,0.0,0.0,-4.6283,-4.7573,-4.799,-4.8431,-4.8963,-4.7758,-4.7094,-4.7524,-4.6736,-4.6227,-4.6227,-4.5525,-4.49,-4.4437,-4.3296,-4.2017,0.0,0.0,0.0,0.0,0.0,0.0,0.0,0.0,0.0,0.0,0.0,0.0,0.0,0.0,0.0,0.0,0.0,0.0,0.0,0.0,0.0,0.0,0.0,0.0,0.0,0.0,0.0,0.0,-5.8588,-5.905,-5.778,-5.8934,-5.8539,0.0,0.0,0.0,0.0,0.0,0.0,-5.4789,-5.4347,-5.4407,-5.5095,-5.5194,-5.5694,-5.6606,-5.6606,-5.6606,-5.6606,-5.6606,-5.6493,-5.6266,-5.5602,-5.5062,-5.46,-5.3936,-5.3155,-5.2376,-5.2616,-5.2578,-5.2304,-5.1641,-5.1406,-5.1406,-5.1406,-5.1406,-5.1406,-5.1357,-5.131,-5.1229,-5.0496,-5.0121,-4.9796,-4.9136,0.0,0.0,0.0,0.0,-5.0388,-5.1047,-5.1203,-5.1203,-5.1203,-5.1147,-5.1131,-5.1131,-5.1056,-5.0537,-4.9025,-4.8021,-4.673,-4.4566,-4.3849,0.0,-4.3827,-4.4969,-4.6266,-4.7496,-4.7332,-4.7494,-4.8508,-4.6924,-4.5981,-4.636,-4.5781,-4.5387,-4.5387,-4.538,-4.5179,-4.4839,-4.4577,-4.3443,-4.1292,0.0,0.0,0.0,0.0,0.0,0.0,0.0,0.0,0.0,0.0,0.0,0.0,0.0,0.0,0.0,0.0,0.0,0.0,0.0,0.0,0.0,0.0,0.0,0.0,0.0,0.0,0.0,0.0,0.0,-5.9396,-6.0165,0.0,0.0,0.0,0.0,-5.4821,-5.5371,-5.5505,-5.4912,-5.4848,-5.4908,-5.5095,-5.51,-5.5571,-5.6604,-5.6606,-5.6606,-5.6606,-5.6606,-5.6177,-5.5359,-5.532,-5.4387,-5.2833,-5.2794,-5.2252,-5.1515,-5.2341,-5.2225,-5.1444,-5.1406,-5.1406,-5.1406,-5.1406,-5.1406,-5.1406,-5.1406,-5.1406,-5.1406,-5.1328,-5.0734,-4.9971,-4.9932,-4.9898,0.0,0.0,-5.0505,-5.1125,-5.1203,-5.1203,-5.1203,-5.1203,-5.1199,-5.1195,-5.1195,-5.1191,-5.0865,-4.9843,-4.8933,-4.8043,-4.7076,0.0,-4.4787,-4.5568,-4.5722,-4.5838,-4.5916,-4.6612,-4.6806,-4.6071,-4.5877,-4.5529,-4.4787,-4.4636,-4.4576,-4.4576,-4.45,-4.4824,-4.5611,-4.4917,-4.4068,-4.3103,-4.1398,0.0,0.0,0.0,0.0,0.0,0.0,0.0,0.0,0.0,0.0,0.0,0.0,0.0,0.0,0.0,0.0,0.0,0.0,0.0,0.0,0.0,0.0,0.0,0.0,0.0,0.0,0.0,0.0,-5.9588,-6.1204,0.0,-5.8434,-5.8434,-5.8391,-5.7821,-5.759,-5.7351,-5.7101,-5.6648,-5.6118,-5.5634,-5.5769,-5.6051,-5.6393,-5.655,-5.6606,-5.6606,-5.602,-5.5591,-5.5242,-5.4149,-5.3292,-5.2669,-5.2122,-5.1695,-5.1425,-5.1745,-5.1672,-5.1402,-5.1405,-5.1405,-5.1406,-5.1406,-5.1406,-5.1406,-5.1406,-5.1406,-5.1406,-5.1406,-5.1171,-5.0895,-5.0895,-5.0891,-5.0884,-5.0884,-5.1079,-5.1312,-5.1312,-5.1312,-5.1312,-5.1312,-5.0863,-5.045,-5.045,-4.9946,-4.9422,-4.9075,-4.8759,-4.8103,-4.6703,-4.5964,-4.5463,-4.5196,-4.5597,-4.6119,-4.6693,-4.6563,-4.6284,-4.5974,-4.5431,-4.4736,-4.3834,-4.4277,-4.4341,-4.3768,-4.4218,-4.4404,-4.4172,-4.3842,-4.3287,-4.2437,-4.1219,-3.9784,0.0,0.0,0.0,0.0,0.0,0.0,0.0,0.0,0.0,0.0,0.0,0.0,0.0,0.0,0.0,0.0,0.0,0.0,0.0,0.0,0.0,0.0,0.0,0.0,0.0,-5.9358,-6.0589,-6.0012,-6.2204,-6.2743,-6.0204,-6.0204,-6.0127,-5.955,-5.9011,-5.8473,-5.7896,-5.7379,-5.6752,-5.5926,-5.6064,-5.6202,-5.6308,-5.6439,-5.6394,-5.6138,-5.5591,-5.5007,-5.4383,-5.3212,-5.2548,-5.2234,-5.1648,-5.1414,-5.1414,-5.1382,-5.1389,-5.1393,-5.1401,-5.1403,-5.1403,-5.1406,-5.1406,-5.1406,-5.1406,-5.1406,-5.1406,-5.1406,-5.1406,-5.1406,-5.1406,-5.1406,-5.1406,-5.1406,-5.1406,-5.1406,-5.1406,-5.1211,-5.1016,-5.1016,-5.0309,-4.9634,-4.9634,-4.9146,-4.8613,-4.8301,-4.8191,-4.7809,-4.6683,-4.6293,-4.5907,-4.5326,-4.5706,-4.6152,-4.6438,-4.5931,-4.5463,-4.5191,-4.4646,-4.3918,-4.2992,-4.3447,-4.3524,-4.2987,-4.3485,-4.3641,-4.3369,-4.3036,-4.2598,-4.2067,-4.0887,-3.9597,-3.8202,0.0,0.0,0.0,0.0,0.0,0.0,0.0,0.0,0.0,0.0,0.0,0.0,0.0,0.0,0.0,0.0,0.0,0.0,0.0,0.0,0.0,0.0,0.0,-5.805,-5.9742,-6.0819,-6.0819,-6.3051,-6.3589,-6.1127,-6.1639,-6.1408,-5.9665,-5.9511,-5.8781,-5.7137,-5.7022,-5.6655,-5.5917,-5.5887,-5.6015,-5.626,-5.6303,-5.5957,-5.5277,-5.5279,-5.4342,-5.2704,-5.2665,-5.2195,-5.1414,-5.1414,-5.1414,-5.1414,-5.1414,-5.1414,-5.1416,-5.1394,-5.1398,-5.1398,-5.1403,-5.1405,-5.1405,-5.1406,-5.1406,-5.1406,-5.1406,-5.1406,-5.1406,-5.1367,-5.1367,-5.1406,-5.1328,-5.1328,-5.1367,-5.1328,-5.0742,-5.0156,-5.0156,-4.9492,-4.8867,-4.8867,-4.8828,-4.8555,-4.7734,-4.7389,-4.7267,-4.7267,-4.6608,-4.6105,-4.6066,-4.6066,0.0,-4.4894,-4.4773,-4.4419,-4.3559,-4.3442,-4.3091,-4.2237,-4.2198,-4.2198,-4.2159,-4.2198,-4.2585,-4.3399,-4.2613,-4.2149,-4.2159,-4.0529,-3.9279,-3.8452,0.0,0.0,0.0,0.0,0.0,0.0,0.0,0.0,0.0,0.0,0.0,0.0,0.0,0.0,0.0,0.0,0.0,0.0,0.0,0.0,0.0,-5.762,-5.8147,-5.7434,-5.9319,-6.1012,-6.1678,-6.2897,-6.3397,-6.2666,-6.2281,-6.1639,-6.0512,-5.9858,-5.905,-5.8011,-5.7319,-5.662,-5.5797,-5.5855,-5.5938,-5.5993,-5.6104,-5.5818,-5.5131,-5.4511,-5.3679,-5.2665,-5.2038,-5.1648,-5.1414,-5.1414,-5.1414,-5.1414,-5.1414,-5.1414,-5.1416,-5.1389,-5.1393,-5.1393,-5.1399,-5.1402,-5.1405,-5.1405,-5.1406,-5.1406,-5.1406,-5.1406,-5.1289,-5.0703,-5.0937,-5.1133,-4.9922,-5.0039,-5.0391,-4.9766,-4.9414,-4.9258,-4.9258,-4.8594,-4.7969,-4.7969,-4.7461,-4.6953,-4.6719,-4.6599,-4.6553,-4.6553,-4.6397,-4.6046,-4.5382,-4.5247,-4.4926,-4.4091,-4.3957,-4.3587,-4.2731,-4.2613,-4.2288,-4.1386,-4.1848,-4.1965,-4.138,-4.1887,-4.2042,-4.1692,-4.1455,-4.1338,-4.1341,-4.0256,-3.9594,0.0,0.0,0.0,0.0,0.0,0.0,0.0,0.0,0.0,0.0,0.0,0.0,0.0,0.0,0.0,0.0,0.0,0.0,0.0,0.0,0.0,0.0,-5.9622,-6.0032,-5.87,-6.0107,-6.1476,-6.2014,-6.2783,-6.3283,-6.3308,-6.2834,-6.2065,-6.0896,-6.0319,-5.9358,-5.7857,-5.7291,-5.6599,-5.5742,-5.5788,-5.5845,-5.5887,-5.5653,-5.5177,-5.455,-5.3658,-5.288,-5.2156,-5.1648,-5.1414,-5.1414,-5.1414,-5.1414,-5.1414,-5.1414,-5.1414,-5.1414,0.0,0.0,0.0,0.0,-5.1164,-5.0856,-5.0896,-5.0663,-5.0351,-5.0351,-5.0351,-5.0273,-4.9805,-4.9961,-5.0156,-4.918,-4.9258,-4.9531,-4.9023,-4.8633,-4.8359,-4.8359,-4.7695,-4.707,-4.707,-4.6641,-4.6289,-4.6289,-4.6289,0.0,-4.6289,-4.6289,-4.6016,-4.5117,-4.4958,-4.4525,-4.332,-4.3121,-4.2764,-4.1945,-4.1828,-4.1627,-4.114,-4.1527,0.0,0.0,0.0,-4.141,-4.0551,-4.0902,0.0,0.0,0.0,0.0,0.0,0.0,0.0,0.0,-3.9629,-3.9988,0.0,0.0,0.0,0.0,0.0,0.0,0.0,0.0,0.0,0.0,0.0,0.0,0.0,0.0,0.0,0.0,-6.1633,-6.1825,-6.0993,-6.1505,-6.1966,-6.1978,-6.2516,-6.2964,-6.3129,-6.3027,-6.2285,-6.0769,-6.0589,-5.9473,-5.7137,-5.6907,0.0,0.0,0.0,-5.572,-5.5745,-5.5019,-5.4326,-5.3584,-5.2823,-5.209,-5.1367,-5.1373,-5.1414,-5.1414,-5.1414,-5.1414,-5.1414,-5.1414,-5.1414,-5.1414,-5.1414,-5.1414,-5.1416,-5.1385,-5.0846,-5.0108,-5.0153,0.0,0.0,-4.8906,-4.8906,-4.8867,-4.8789,-4.8828,-4.8867,-4.8672,-4.8672,-4.8711,-4.8633,-4.8047,-4.7461,-4.7461,-4.6875,-4.6289,-4.6289,-4.6211,-4.6172,-4.6289,-4.6211,-4.6133,-4.6133,-4.6133,-4.5859,-4.4961,-4.4766,-4.4101,-4.2461,-4.2266,-4.1992,-4.1289,-4.1211,0.0,-4.1211,-4.1211,-4.1211,-4.1211,-4.1211,-4.0859,-4.0078,-4.0781,-4.0859,-4.0078,-4.082,-4.1211,-4.1211,-4.1124,-4.1125,-4.1172,-3.9497,-3.9577,0.0,0.0,0.0,0.0,0.0,0.0,0.0,0.0,0.0,0.0,0.0,0.0,0.0,0.0,0.0,-6.2529,-6.2784,-6.2741,-6.2574,-6.2076,-6.1797,-6.1901,-6.1454,-6.1377,-6.2081,-6.1556,-6.0774,-5.9749,-5.9142,-5.8242,-5.706,-5.6329,-5.5857,-5.5703,-5.5703,-5.5416,-5.4765,-5.4611,-5.3849,-5.2429,-5.2388,0.0,-5.1225,-5.1357,-5.1414,-5.1414,-5.1414,-5.1414,-5.1414,-5.1414,-5.1414,-5.1414,-5.1414,-5.1414,-5.1414,-5.1416,-5.0837,-5.0103,-5.0104,-4.9564,-4.8905,-4.8905,-4.8906,-4.8789,-4.8047,-4.8359,0.0,-4.7187,-4.7305,-4.7695,-4.6992,-4.668,-4.6562,-4.6562,-4.6406,-4.6289,-4.6289,-4.5742,-4.5469,-4.6172,-4.5742,-4.5234,-4.5234,-4.5234,-4.4961,-4.4062,-4.3359,-4.2539,-4.1562,-4.1445,-4.1367,-4.1211,-4.1211,-4.1211,-4.1211,-4.1211,-4.1211,-4.1211,-4.1211,-4.1133,-4.0976,-4.1094,-4.1133,-4.0937,-4.1094,-4.1211,-4.1211,-4.1171,-4.1171,-4.1172,-4.0766,-4.1154,0.0,0.0,0.0,0.0,0.0,0.0,0.0,0.0,0.0,0.0,0.0,-6.0385,-6.1195,0.0,-6.331,-6.3704,-6.3699,-6.3336,-6.2414,-6.1917,-6.1562,-6.1261,-6.0801,-6.0737,-6.1198,-6.047,-5.9625,-5.888,-5.807,-5.722,-5.6395,-5.5934,-5.5703,-5.5703,-5.5318,-5.4895,-5.4511,-5.3626,-5.2839,-5.2097,-5.1756,-5.1474,-5.1203,-5.1281,-5.1352,-5.1414,-5.1414,-5.1414,-5.1414,-5.1414,-5.1414,-5.1375,-5.0906,-5.1023,-5.1336,-5.0906,-5.0206,-4.9393,-4.9005,-4.8308,-4.7611,-4.7613,-4.7615,-4.7539,-4.707,-4.7265,-4.7422,-4.6562,-4.6601,-4.6836,-4.6406,-4.6289,-4.6289,-4.6289,-4.6289,-4.6289,-4.6289,-4.5625,-4.5117,-4.5547,-4.4961,-4.4336,-4.4336,-4.3984,-4.3555,-4.3125,-4.2695,-4.2109,-4.1289,-4.1211,-4.1211,-4.1211,-4.1211,-4.1211,-4.1211,-4.1211,-4.1211,-4.1211,-4.1211,-4.1211,-4.1211,-4.1211,-4.1211,-4.1211,-4.1211,-4.1211,-4.1211,-4.1211,-4.1211,-4.1211,-4.1169,-4.1833,0.0,0.0,0.0,0.0,0.0,0.0,0.0,-5.6319,-5.6896,-5.8473,-6.0242,-6.1923,-6.3233,-6.4129,-6.4613,-6.436,-6.414,-6.3461,-6.1822,-6.1478,-6.1162,-6.0567,-6.0466,-6.0441,-6.0303,-5.9625,-5.8847,-5.7999,-5.7305,-5.6533,-5.5742,-5.5703,-5.5626,-5.5472,-5.4857,-5.4357,-5.401,-5.2577,-5.1895,-5.1816,-5.1199,-5.0966,-5.1152,-5.1187,-5.1275,-5.1362,-5.1371,-5.1414,-5.1414,-5.1414,-5.1297,-5.1063,-5.0358,-5.0436,-5.0828,-5.0124,-4.9306,-4.8486,-4.7829,-4.7014,-4.6313,-4.6318,-4.6284,-4.6287,-4.6287,-4.6288,-4.6289,-4.6289,-4.6289,-4.6289,-4.6289,-4.6289,-4.625,-4.6094,-4.6055,-4.6016,-4.582,-4.5117,-4.4531,-4.4726,-4.4023,-4.3437,-4.3437,-4.2851,-4.2383,-4.2383,-4.2266,-4.1914,-4.1289,-4.1211,-4.1211,-4.1211,-4.1211,-4.1211,-4.1211,-4.1211,-4.1211,-4.1211,-4.1211,-4.1211,-4.1211,-4.1211,-4.1211,-4.1211,-4.1211,-4.1211,-4.1211,-4.1211,-4.1211,-4.1211,-4.1211,-4.2109,-5.6472,-5.4703,-5.401,-5.6175,-5.5665,-5.5241,0.0,-5.855,-5.9358,-6.0319,-6.2474,-6.4218,-6.4334,-6.4972,-6.5197,-6.4436,-6.36,-6.2701,-6.1745,-6.0981,-6.0499,-6.0422,-6.0422,-6.0116,-5.9352,-5.9228,-5.8566,-5.7057,-5.6936,-5.6533,-5.5742,-5.5703,-5.5357,-5.4664,-5.4549,-5.378,-5.2192,-5.2,-5.1558,-5.0856,-5.088,-5.089,-5.0935,-5.1128,-5.1207,-5.1218,-5.1357,-5.1414,-5.1414,-5.1414,-5.0945,-5.0241,-5.0124,-4.9694,-4.9072,-4.8993,-4.8447,-4.7703,-4.7627,-4.7048,-4.6312,-4.6313,-4.6318,-4.6284,-4.6287,-4.6287,-4.6288,-4.6289,-4.6289,-4.6289,-4.6289,-4.6289,-4.6094,-4.5312,-4.5156,-4.4922,-4.4141,-4.332,-4.293,-4.3711,-4.3125,-4.2539,-4.2539,-4.2461,-4.2383,-4.2383,-4.1797,-4.1289,-4.1211,-4.1211,-4.1211,-4.1211,-4.1211,-4.1211,-4.1211,-4.1211,-4.1211,-4.1211,-4.1211,-4.1211,-4.1211,-4.1211,-4.1211,-4.1211,-4.1211,-4.1211,-4.1211,-4.1211,-4.1211,-4.1211,-4.1211,-4.2109,-5.4818,-5.4818,-5.5318,-5.4895,-5.5395,-5.6242,-5.728,-5.8204,-5.9319,-6.1166,-6.2781,-6.4141,-6.5077,-6.5457,-6.5158,-6.3786,-6.3165,-6.2433,-6.1096,-6.0599,-6.0422,-6.0422,-5.995,-5.9491,-5.9133,-5.8716,-5.7966,-5.6842,-5.6328,-5.5977,-5.5649,-5.5692,-5.5318,-5.4511,-5.401,-5.3164,-5.1923,-5.1433,-5.101,-5.0712,-5.0758,-5.0816,-5.0921,-5.1004,-5.1092,-5.1207,-5.1355,-5.1102,-5.0631,-5.0631,-5.0126,-4.9306,-4.8835,-4.8406,-4.8096,-4.8096,-4.7899,-4.7547,-4.7002,-4.6616,-4.6306,-4.6306,-4.6311,-4.6317,-4.6319,-4.6283,-4.6286,-4.6288,-4.6288,-4.6171,-4.5664,-4.5547,-4.5312,-4.4453,-4.4258,-4.4141,-4.3789,-4.3008,-4.25,-4.2851,-4.2266,-4.1719,-4.1719,-4.1719,-4.1719,-4.1719,-4.1406,-4.1211,-4.1211,-4.1211,-4.1211,-4.1211,-4.1211,-4.1211,-4.1211,-4.1211,-4.1211,-4.1211,-4.1211,-4.1211,-4.1211,-4.1211,-4.1211,-4.1211,-4.1211,-4.1211,-4.1211,-4.1211,-4.1211,-4.1211,-4.1211,-4.1836,-5.4087,-5.4703,-5.5318,-5.4164,-5.5126,-5.6368,-5.6599,-5.7665,-5.9165,-6.1012,-6.2589,-6.4026,-6.523,-6.5534,-6.5043,-6.3288,-6.2935,-6.2319,-6.0637,-6.0422,-6.0422,-6.0422,-5.9644,-5.9019,-5.8803,-5.8039,-5.7187,-5.6384,-5.582,-5.5497,-5.5615,-5.5418,-5.494,-5.4164,-5.3259,-5.2413,-5.1587,-5.0971,-5.0712,-5.0712,-5.0712,-5.0749,-5.0841,-5.0898,-5.1029,-5.1207,-5.1079,-5.067,-5.0085,-4.985,-4.9228,-4.8408,-4.782,-4.743,-4.7237,-4.7237,-4.7237,-4.7159,-4.6534,-4.63,-4.63,-4.63,-4.6305,-4.6309,-4.6312,-4.6316,-4.6281,-4.6285,-4.613,-4.5819,-4.5156,-4.4805,-4.4414,-4.3555,-4.3359,-4.3281,-4.3047,-4.25,-4.207,-4.207,-4.1601,-4.1211,-4.1211,-4.1211,-4.1211,-4.1211,-4.1211,-4.1211,-4.1211,-4.1211,-4.1211,-4.1211,-4.1211,-4.1211,-4.1211,-4.1211,-4.1211,-4.1211,-4.1211,-4.1211,-4.1211,-4.1211,-4.1094,-4.0859,-4.1094,-4.1094,-4.0859,-4.1094,-4.1211,-4.1211,-4.1211,-4.1523,-5.5203,-5.3895,-5.2615,-5.5011,-5.5088,-5.478,-5.5549,-5.7665,-5.9473,-5.955,-6.2243,-6.4564,-6.4526,-6.5112,-6.5043,-6.3288,-6.2935,-6.2319,-6.0637,-6.0422,-6.0422,-6.0422,-5.9644,-5.8803,-5.8001,-5.716,-5.6308,-5.5491,-5.5427,-5.5449,-5.5604,-5.4802,-5.4019,-5.3269,-5.2344,-5.1498,-5.075,-5.0712,-5.0712,-5.0712,-5.0712,-5.0712,-5.0693,-5.0918,-5.1069,-5.1168,-5.0455,-5.0124,-5.0046,-4.9189,-4.8369,-4.7625,-4.7625,-4.7081,-4.6339,-4.6339,-4.6339,-4.6339,-4.63,-4.63,-4.63,-4.63,-4.63,-4.6303,-4.6311,-4.6312,-4.6315,-4.6281,-4.5699,-4.5037,-4.4998,-4.4374,-4.3516,-4.2656,-4.2422,-4.2226,-4.1445,-4.125,-4.125,-4.125,-4.1211,-4.1211,-4.1211,-4.1211,-4.1211,-4.1211,-4.1211,-4.1211,-4.1211,-4.1211,-4.1211,-4.1211,-4.1211,-4.1211,-4.1211,-4.1211,-4.1211,-4.1211,-4.1211,-4.1211,-4.1211,-4.1211,-4.0781,-3.9961,-4.0781,-4.0781,-3.9922,-4.0781,-4.1211,-4.1211,-4.1211,-4.1211,-5.3356,-5.3395,-5.3818,-5.4703,-5.5088,-5.5357,-5.5626,-5.6819,-5.8011,-5.8588,-6.005,-6.1538,-6.2719,-6.3502,-6.3834,-6.3232,-6.3048,-6.2581,-6.1486,-6.0794,-6.0422,-6.0422,-5.9147,-5.8192,-5.7925,-5.7122,-5.6256,-5.5467,-5.5439,-5.5488,-5.5449,-5.4752,-5.4002,-5.3178,-5.2284,-5.146,-5.0712,-5.0712,-5.0712,-5.0712,-5.0712,-5.0712,-5.0721,-5.0851,-5.0675,-5.0252,-5.0077,-4.9391,-4.8406,-4.8133,-4.751,-4.6729,-4.6729,-4.6573,-4.63,-4.63,-4.63,-4.63,-4.63,-4.63,-4.63,-4.63,-4.63,-4.6302,-4.6303,-4.6305,-4.6189,-4.5611,-4.5224,-4.4719,-4.3591,-4.3046,-4.2616,-4.1797,-4.1601,-4.1523,-4.125,-4.1211,-4.1211,-4.1211,-4.1211,-4.1211,-4.1211,-4.1211,-4.1211,-4.1211,-4.1211,-4.1211,-4.1211,-4.1211,-4.1211,-4.1211,-4.1211,-4.1211,-4.1211,-4.1211,-4.1211,-4.1211,-4.1211,-4.1211,-4.1211,-4.1211,-4.0781,-3.9922,-4.0195,-4.0195,-3.9883,-4.0195,-4.0625,-4.1211,-4.1211,-4.1211,-5.2972,-5.3664,-5.4549,-5.4857,-5.5318,-5.5703,-5.5703,-5.6368,-5.7176,-5.7703,-5.8704,-5.9935,-6.1358,-6.2271,-6.2862,-6.3105,-6.3088,-6.27,-6.183,-6.1215,-6.0714,-6.0422,-5.9185,-5.823,-5.7925,-5.7122,-5.6282,-5.5479,-5.544,-5.5324,-5.5006,-5.4223,-5.3448,-5.2647,-5.1792,-5.1132,-5.0712,-5.0712,-5.0712,-5.0712,-5.0712,-5.0712,-5.0673,-5.0524,-5.0192,-4.9698,-4.9168,-4.8401,-4.7484,-4.7172,-4.6754,-4.63,-4.63,-4.63,-4.63,-4.63,-4.63,-4.63,-4.63,-4.63,-4.63,-4.63,-4.63,-4.63,-4.63,-4.6066,-4.5716,-4.5174,-4.4552,-4.3814,-4.2689,-4.2183,-4.1794,-4.1289,-4.1172,-4.1172,-4.1172,-4.1211,-4.1211,-4.1211,-4.1211,-4.1211,-4.1211,-4.1211,-4.1211,-4.1211,-4.1211,-4.1211,-4.1211,-4.1211,-4.1211,-4.1211,-4.1211,-4.1211,-4.1211,-4.1211,-4.1211,-4.1211,-4.1211,-4.1055,-4.0742,-4.0742,-4.0312,-3.9453,-3.9453,-3.9453,-3.9453,-3.9453,-3.9883,-4.0742,-4.0742,-4.0898,-5.4049,-5.4511,-5.4741,-5.5511,-5.5703,-5.5703,-5.5703,-5.6329,-5.6945,-5.6945,-5.8204,-5.9588,0.0,-6.131,-6.2132,-6.2899,-6.3023,-6.2686,-6.1812,-6.1631,-6.1287,-6.0499,-5.9606,-5.8727,-5.7963,-5.7084,-5.6205,-5.5403,-5.5326,-5.5008,-5.424,-5.3274,-5.2441,-5.1802,-5.0954,-5.0563,-5.0712,-5.0712,-5.0712,-5.0712,-5.0712,-5.0712,-5.0673,-4.9937,-4.9552,-4.9451,-4.7881,-4.7257,-4.7264,-4.6449,-4.6176,-4.6298,-4.63,-4.63,-4.63,-4.63,-4.63,-4.63,-4.63,-4.63,-4.63,-4.63,-4.63,-4.63,-4.63,-4.5714,-4.5049,-4.4971,-4.3728,-4.2446,-4.2368,-4.1709,-4.1088,-4.1091,-4.1092,-4.1131,-4.1172,-4.1172,-4.1211,-4.1211,-4.1211,-4.1211,-4.1211,-4.1211,-4.1211,-4.1211,-4.1211,-4.1211,-4.1211,-4.1211,-4.1211,-4.1211,-4.1211,-4.1211,-4.1211,-4.1211,-4.1211,-4.1211,-4.1211,-4.082,-3.9922,-3.9883,-3.9453,-3.8555,-3.8516,-3.8516,-3.8516,-3.8516,-3.8984,-3.9844,-3.9883,-4.0351,-5.4395,-5.4934,-5.5434,-5.5665,-5.5703,-5.5703,-5.5703,-5.5857,-5.6011,-5.6011,-5.6357,-5.6934,-5.783,-5.9154,-6.063,-6.2117,-6.2746,-6.2998,-6.2768,-6.2084,-6.1287,-6.0499,-5.9109,-5.8116,-5.7925,-5.6587,-5.5365,-5.4486,-5.4498,-5.4395,-5.4129,-5.275,-5.189,-5.1738,-5.0933,-5.0563,-5.0712,-5.0712,-5.0712,-5.0712,-5.0712,-5.0712,-5.0673,-4.9835,-4.9161,-4.8577,-4.7499,-4.6744,-4.628,-4.6154,-4.6112,-4.617,-4.6249,-4.63,-4.63,-4.63,-4.63,-4.63,-4.63,-4.63,-4.63,-4.63,-4.63,-4.63,-4.63,-4.6144,-4.5714,-4.4387,-4.3725,-4.3064,-4.1781,-4.1276,-4.1083,-4.1088,-4.1089,-4.109,-4.1131,-4.1132,-4.1132,-4.1172,-4.1211,-4.1211,-4.1211,-4.1211,-4.1211,-4.1211,-4.1211,-4.1211,-4.1211,-4.1211,-4.1211,-4.1211,-4.1211,-4.1211,-4.1211,-4.1211,-4.1211,-4.1211,-4.1211,-4.082,-3.9922,-3.9883,-3.918,-3.7656,-3.7617,-3.7617,-3.7617,-3.7617,-3.8086,-3.8945,-3.9609,-4.0039,-5.4934,-5.5357,-5.5703,-5.5703,-5.5703,-5.5588,-5.5241,-5.5434,-5.5472,-5.4741,-5.5203,-5.5857,-5.6329,-5.7819,-5.9654,-6.1707,-6.2644,-6.3217,-6.3573,-6.2772,-6.186,-6.1019,-5.9453,-5.8307,-5.7925,-5.6702,-5.5403,-5.418,-5.4141,-5.3835,-5.3034,-5.2153,-5.1522,-5.1179,-5.073,-5.0563,-5.0712,-5.0712,-5.0712,-5.0712,-5.0712,-5.0519,-5.0087,-4.924,-4.841,-4.7656,-4.6769,-4.6172,-4.5846,-4.5958,-4.6008,-4.6017,-4.617,-4.6192,-4.6236,-4.6294,-4.63,-4.63,-4.63,-4.63,-4.63,-4.63,-4.63,-4.6222,-4.5831,-4.5441,-4.4894,-4.3528,-4.2864,-4.2319,-4.1348,-4.1115,-4.1116,-4.1083,-4.1084,-4.1086,-4.109,-4.1091,-4.1132,-4.1172,-4.1211,-4.1211,-4.1211,-4.1211,-4.1211,-4.1211,-4.1211,-4.1211,-4.1211,-4.1211,-4.1211,-4.1211,-4.1211,-4.1211,-4.1211,-4.0859,-4.0625,-4.0625,-4.0273,-3.9687,-3.8789,-3.875,-3.8281,-3.7305,-3.6914,-3.6914,-3.7305,-3.6914,-3.7187,-3.8047,-3.8516,-3.918,-5.5511,-5.5703,-5.5703,-5.5703,-5.5703,-5.5472,-5.4664,-5.5126,-5.5241,-5.3703,-5.4511,-5.5549,-5.5549,-5.6857,-5.8719,-6.1132,0.0,-6.2987,-6.3991,-6.3255,-6.228,-6.1516,-5.995,-5.8612,-5.781,-5.6816,-5.5632,-5.4065,-5.3836,-5.3148,-5.1684,-5.1505,-5.1144,-5.0538,-5.0511,-5.0563,-5.0712,-5.0712,-5.0712,-5.0712,-5.0712,-5.025,-4.9356,-4.8509,-4.7663,-4.6846,-4.597,-4.5679,-4.5778,-4.58,-4.5841,-4.5914,-4.6025,-4.6098,-4.6109,-4.6245,-4.63,-4.63,-4.63,-4.63,-4.63,-4.63,-4.63,-4.6144,-4.5246,-4.4465,-4.3684,-4.2669,-4.1849,-4.1265,-4.1148,-4.1109,-4.1111,-4.1116,-4.1117,-4.1119,-4.1086,-4.109,-4.1131,-4.1172,-4.1172,-4.1172,-4.1211,-4.1172,-4.1172,-4.1211,-4.1211,-4.1211,-4.1211,-4.1211,-4.1211,-4.1211,-4.1211,-4.1211,-4.1211,-4.0508,-4.0078,-4.0078,-3.9375,-3.8516,-3.75,-3.7461,-3.7344,-3.7148,-3.6406,-3.6367,-3.7148,-3.6367,-3.6406,-3.7148,-3.7266,-3.8125,-5.5665,-5.5703,-5.5703,-5.5703,-5.5703,-5.5472,-5.4664,-5.5126,0.0,0.0,-5.4511,-5.4703,-5.4703,-5.5511,-5.678,-5.8642,-5.9545,-6.0827,-6.2987,-6.191,-6.0846,0.0,-5.9147,-5.7772,-5.6893,-5.5441,-5.4104,-5.311,-5.2422,-5.1926,-5.162,-5.0932,-5.0532,-5.05,-5.0542,-5.0604,-5.0712,-5.0712,-5.0712,-5.0712,-5.0712,-5.025,-4.9356,-4.8509,-4.7663,-4.6846,-4.597,-4.5612,-4.5654,-4.5749,-4.5821,-4.5829,-4.6039,-4.6098,-4.6109,-4.6245,-4.63,-4.63,-4.63,-4.63,-4.63,-4.63,-4.63,-4.6144,-4.5246,-4.4894,-4.4426,-4.2864,-4.2279,-4.2006,-4.1304,-4.1109,-4.1109,-4.1111,-4.1111,-4.1112,-4.1119,-4.1086,-4.1129,-4.1172,-4.1171,-4.113,-4.1172,-4.1132,-4.1132,-4.1172,-4.1211,-4.1211,-4.1211,-4.1211,-4.1211,-4.1211,-4.1211,-4.1211,-4.1211,-4.1055,-4.0976,-4.0976,-4.082,-4.0039,-3.8437,-3.8359,-3.7695,-3.625,-3.6094,-3.6055,-3.6211,-3.6055,-3.6094,-3.625,-3.6953,-3.7461,-5.5703,-5.5703,-5.5703,-5.5703,-5.5395,-5.4857,-5.401,0.0,0.0,0.0,-5.3857,-5.4357,-5.3895,-5.4857,0.0,-5.7396,-5.8262,-5.9509,-6.1557,-6.0686,-5.9802,-5.9775,-5.8257,-5.7046,-5.6625,-5.5097,-5.3722,-5.2881,-5.204,-5.1391,-5.0971,-5.0574,-5.0412,-5.05,-5.0553,-5.0653,-5.0712,-5.0712,-5.0712,-5.0712,-5.0712,-5.001,-4.8702,-4.8279,-4.7394,-4.6201,-4.5787,-4.5594,-4.5603,-4.5687,-4.568,-4.5704,-4.5885,-4.5988,-4.6005,-4.6164,-4.6243,-4.63,-4.63,-4.63,-4.63,-4.63,-4.5987,-4.5441,-4.4582,-4.3997,-4.3372,-4.2084,-4.1732,-4.1615,-4.1226,-4.1109,-4.1109,-4.1109,-4.1109,-4.1111,-4.1117,-4.1082,-4.1125,-4.113,-4.1129,-4.1128,-4.1131,-4.1131,-4.1092,-4.1132,-4.1172,-4.1211,-4.1211,-4.1211,-4.1211,-4.1211,-4.1211,-4.1211,-4.1211,-4.0781,-4.0508,-4.0508,-3.9687,-3.8789,-3.7969,-3.75,-3.6836,-3.6016,-3.6016,-3.6016,-3.6016,-3.6016,-3.6016,-3.6016,-3.6445,-3.7109,-5.5703,-5.5703,-5.5703,-5.5703,-5.5088,-5.428,-5.3395,-5.3356,0.0,-5.2115,-5.3126,-5.3972,-5.3087,-5.401,-5.5241,0.0,-5.6978,-5.8123,-6.0135,-5.9575,-5.8962,-5.8935,-5.7697,0.0,-5.6358,-5.4791,-5.3531,-5.2843,-5.1888,-5.1009,-5.0359,-5.0367,-5.0412,-5.0478,-5.0532,-5.0594,-5.0692,-5.0702,-5.0712,-5.0712,-5.0712,-4.9779,-4.8086,-4.8086,-4.7201,-4.5594,-4.5594,-4.5594,-4.5594,-4.5594,-4.5594,-4.5612,-4.5742,-4.5835,-4.5903,-4.6064,-4.6173,-4.6249,-4.6298,-4.63,-4.63,-4.63,-4.5714,-4.4855,-4.3957,-4.3099,-4.224,-4.1343,-4.1109,-4.1109,-4.1109,-4.1109,-4.1109,-4.1109,-4.1109,-4.1111,-4.1117,-4.1117,-4.1119,-4.1087,-4.1087,-4.1086,-4.1087,-4.1089,-4.109,-4.1091,-4.1132,-4.1172,-4.1172,-4.1172,-4.1172,-4.1172,-4.1172,-4.1211,-4.1211,-4.0547,-4.0156,-4.0195,-3.8867,-3.7969,-3.7578,-3.6914,-3.6367,-3.6016,-3.6016,-3.6016,-3.6016,-3.6016,-3.6016,-3.6016,-3.6016,-3.6836,-5.5703,-5.5703,-5.5703,-5.5703,-5.5088,-5.428,-5.3395,0.0,-5.3895,-5.2231,-5.2654,-5.3049,-5.2192,-5.2154,0.0,0.0,0.0,-5.594,-5.906,-5.8769,-5.817,-5.8119,0.0,0.0,-5.567,-5.3951,-5.2881,-5.2805,-5.1314,-5.0397,-5.0283,-5.0321,-5.0356,-5.0412,-5.0478,-5.0532,-5.0622,-5.0682,-5.0712,-5.0712,-5.0712,-4.9779,-4.8086,-4.8086,-4.7201,-4.5594,-4.5594,-4.5594,-4.5594,-4.5594,-4.5594,-4.5612,-4.5742,-4.5814,-4.5822,-4.6039,-4.6105,-4.6157,-4.6249,-4.63,-4.63,-4.63,-4.5714,-4.4855,-4.3957,-4.3099,-4.224,-4.1343,-4.1109,-4.1109,-4.1109,-4.1109,-4.1109,-4.1109,-4.1109,-4.1111,-4.1117,-4.1114,-4.1114,-4.1086,-4.1081,-4.1115,-4.1087,-4.1084,-4.1083,-4.1087,-4.1091,-4.1091,-4.1128,-4.1171,-4.1172,-4.1131,-4.1172,-4.1211,-4.1211,-4.1054,-4.1015,-4.1094,-4.0859,-4.0077,-3.8555,-3.8398,-3.7617,-3.6016,-3.6016,-3.6016,-3.6016,-3.6016,-3.6016,-3.6016,-3.6016,-3.6523,-5.5703,-5.6088,-5.6368,-5.5818,-5.4703,-5.3626,-5.328,0.0,-5.2741,-5.2038,-5.2577,-5.2933,-5.2038,-5.1885,-5.2308,0.0,0.0,0.0,-5.6862,-5.681,-5.6546,-5.6484,-5.6422,-5.6129,-5.5479,-5.3836,-5.2384,-5.1353,-5.0665,-5.0283,-5.0283,-5.0283,-5.0344,-5.0401,-5.0435,-5.0489,-5.0622,-5.0642,-5.0673,-5.0712,-5.0712,-4.9779,-4.8086,-4.8086,-4.7201,-4.5594,-4.5594,-4.5594,-4.5594,-4.5594,-4.5594,-4.5603,-4.5671,-4.5719,-4.5821,-4.5891,-4.6008,-4.6105,-4.617,-4.624,-4.63,-4.63,-4.5714,-4.4932,-4.4582,-4.3138,-4.1654,-4.181,-4.1498,-4.1109,-4.1109,-4.1109,-4.1109,-4.1109,-4.1109,-4.1109,-4.1112,-4.1111,-4.1111,-4.1116,-4.1114,-4.1111,-4.1116,-4.1117,-4.1119,-4.1083,-4.1087,-4.1089,-4.1088,-4.1129,-4.113,-4.109,-4.1171,-4.0976,-4.0469,-4.0859,-4.0937,-4.0468,-4.039,-4.0078,-3.9413,-3.8867,-3.8047,-3.6797,-3.6797,-3.6523,-3.6016,-3.6016,-3.6289,-3.6797,-3.6797,-3.7539,-5.5637,-5.6137,-5.6483,-5.5857,-5.4626,-5.351,0.0,-5.2933,-5.2472,-5.1702,-5.2433,-5.2856,-5.1741,-5.1548,-5.1818,0.0,0.0,-5.3692,-5.5105,-5.562,-5.578,-5.5499,-5.5619,-5.5556,-5.5059,-5.3454,-5.1849,-5.0397,-5.0283,-5.0283,-5.0283,-5.0283,-5.0333,-5.0379,-5.039,-5.0457,-5.0553,-5.0573,-5.0614,-5.0712,-5.0712,-4.9779,-4.8086,-4.8086,-4.7201,-4.5594,-4.5594,-4.5594,-4.5594,-4.5594,-4.5594,-4.5594,-4.5594,-4.5671,-4.5742,-4.5786,-4.5891,-4.6031,-4.6017,-4.6115,-4.6243,-4.6243,-4.5666,-4.5049,-4.5324,-4.3567,-4.1576,-4.1927,-4.1576,-4.1109,-4.1109,-4.1109,-4.1109,-4.1109,-4.1109,-4.1109,-4.1109,-4.1109,-4.1109,-4.1109,-4.1109,-4.1109,-4.1109,-4.1112,-4.1115,-4.1115,-4.1082,-4.1085,-4.1084,-4.1086,-4.1087,-4.1086,-4.113,-4.0937,-4.0312,-4.082,-4.0937,-4.0312,-4.0273,-4.0156,-3.9921,-3.9297,-3.8437,-3.7305,-3.7305,-3.6875,-3.6016,-3.6016,-3.6445,-3.7305,-3.7305,-3.8086,-5.5483,-5.5703,-5.5703,-5.5703,-5.5088,-5.4241,-5.3395,-5.3857,-5.3741,-5.125,-5.2049,-5.2702,-5.102,-5.0712,-5.0971,-5.1769,0.0,0.0,-5.432,-5.5788,-5.6446,-5.5503,-5.6091,-5.5938,-5.4256,-5.2614,-5.1238,-5.0359,-5.0283,-5.0283,-5.0283,-5.0283,-5.0283,-5.0283,-5.0379,-5.0435,-5.05,-5.0553,-5.0614,-5.0712,-5.0712,-4.9779,-4.8086,-4.8086,-4.7201,-4.5594,-4.5594,-4.5594,-4.5594,-4.5594,-4.5594,-4.5594,-4.5594,-4.5594,-4.562,-4.5749,-4.5807,-4.5789,-4.5881,-4.5992,-4.6102,-4.6102,-4.5596,-4.5168,-4.6027,-4.4465,-4.2201,-4.1343,-4.1109,-4.1109,-4.1109,-4.1109,-4.1109,-4.1109,-4.1109,-4.1109,-4.1109,-4.1109,-4.1109,-4.1109,-4.1109,-4.1109,-4.1109,-4.1109,-4.1109,-4.1109,-4.1115,-4.1116,-4.1111,-4.1082,-4.1086,-4.1119,-4.1085,-4.1089,-4.1092,-4.1092,-4.1132,-4.1172,-4.1132,-4.0741,-3.9922,-3.9883,-3.9062,-3.7344,-3.7305,-3.6875,-3.6016,-3.6016,-3.6445,-3.7305,-3.7305,-3.7773,-5.4098,-5.5241,-5.6175,-5.4434,-5.4241,-5.4126,-5.2654,-5.301,-5.3049,-5.1097,-5.1548,-5.1972,-5.0904,-5.0712,-5.1164,-5.2549,-5.301,0.0,0.0,0.0,-5.5865,-5.5499,-5.5134,-5.4448,-5.3301,-5.2231,-5.1238,-5.0359,-5.0283,-5.0283,-5.0283,-5.0283,-5.0283,-5.0283,-5.0333,-5.0379,-5.0435,-5.05,-5.0542,-5.0563,-5.0594,-5.0028,-4.8913,-4.8913,-4.8049,-4.6509,-4.6509,-4.6163,-4.5594,-4.5594,-4.5594,-4.5594,-4.5594,-4.5594,-4.5603,-4.5654,-4.5712,-4.5814,-4.5815,-4.5881,-4.5983,-4.6084,-4.5959,-4.571,-4.5471,-4.4426,-4.3099,-4.224,-4.1576,-4.1109,-4.1109,-4.1109,-4.1109,-4.1109,-4.1109,-4.1109,-4.1109,-4.1109,-4.1109,-4.1109,-4.1109,-4.1109,-4.1109,-4.1109,-4.1109,-4.1109,-4.1111,-4.1111,-4.1109,-4.1114,-4.1115,-4.1112,-4.1117,-4.089,-4.0349,-4.0779,-4.0858,-4.0351,-4.0859,-4.1015,-4.0741,-4.0702,-3.9921,-3.8203,-3.8203,-3.746,-3.6016,-3.6601,-3.7656,-3.9101,-3.9687,-3.9805,0.0,-5.4357,-5.5203,-5.3587,-5.3626,-5.3626,-5.2231,-5.2577,-5.2702,-5.1058,-5.1356,-5.1654,-5.0866,-5.0712,-5.1058,-5.2087,-5.2779,-5.3577,-5.4594,-5.5522,-5.6042,-5.5959,-5.4573,-5.3415,-5.2855,-5.1773,-5.0894,-5.0359,-5.0283,-5.0283,-5.0283,-5.0283,-5.0283,-5.0283,-5.0283,-5.0344,-5.0401,-5.0446,-5.0478,-5.05,-5.0532,-4.9939,-4.8825,-4.9143,-4.8404,-4.6866,-4.6885,-4.6586,0.0,-4.5748,-4.5594,-4.5594,-4.5594,-4.5594,-4.5594,-4.5594,-4.5662,-4.5719,-4.5719,-4.5782,-4.5869,-4.5978,-4.5814,-4.5527,-4.5115,-4.4387,-4.3528,-4.2669,-4.2006,-4.1498,-4.1187,-4.1109,-4.1109,-4.1109,-4.1109,-4.1109,-4.1109,-4.1109,-4.1109,-4.1109,-4.1109,-4.1109,-4.1109,-4.1109,-4.1109,-4.1109,-4.0836,-4.06,-4.06,-4.06,-4.06,-4.06,-4.0917,-4.0884,-4.0384,-4.0817,-4.0896,-4.0389,-4.0898,-4.1172,-4.1092,-4.0819,-4.0155,-3.9101,-3.8787,-3.8085,-3.6992,-3.7851,-3.8828,-3.9922,-4.0781,-4.0742,0.0,-5.3126,-5.3164,-5.3049,-5.3126,-5.2972,-5.2038,-5.25,0.0,-5.102,-5.1279,-5.1587,-5.0894,-5.075,-5.075,-5.0866,-5.2125,-5.3144,-5.3196,-5.527,-5.6771,-5.6638,-5.4405,-5.2889,-5.2817,-5.1276,-5.0283,-5.0283,-5.0283,-5.0283,-5.0283,-5.0283,-5.0283,-5.0283,-5.0283,-5.0344,-5.0401,-5.0401,-5.0396,-5.0413,-5.0423,-4.9541,-4.8008,-4.8815,-4.8298,-4.682,-4.6866,-4.6846,-4.674,-4.5932,-4.5594,-4.5594,-4.5594,-4.5594,-4.5594,-4.5594,-4.5594,-4.5594,-4.5594,-4.5665,-4.5793,-4.5814,-4.5364,-4.4822,-4.4959,-4.4348,-4.345,-4.263,-4.2357,-4.2123,-4.1304,-4.1109,-4.1109,-4.1109,-4.1109,-4.1109,-4.1109,-4.1109,-4.1109,-4.1109,-4.1109,-4.1109,-4.1109,-4.1109,-4.1109,-4.1109,-4.0366,-3.9819,-3.9819,-3.9741,-3.9741,-3.978,-4.0522,-4.1033,-4.1078,-4.1087,-4.1091,-4.1092,-4.1171,-4.1171,-4.1092,-4.031,-3.9919,-3.9916,-3.9021,-3.8631,-3.8709,-3.9492,-3.9922,-4.0,-4.082,-4.0742,-5.1231,0.0,-5.2895,-5.1625,-5.2241,-5.2818,0.0,-5.1625,-5.1933,-5.0904,0.0,-5.1125,-5.1548,-5.1125,-5.1135,-5.2395,-5.2395,-5.2654,-5.399,-5.5187,-5.5861,-5.578,-5.4085,-5.2889,-5.2817,-5.1276,-5.0283,-5.0283,-5.0283,-5.0283,-5.0283,-5.0283,-5.0283,-5.0283,-5.0283,-5.0321,-5.0333,-5.0379,-5.0084,-4.9411,-4.9417,-4.8903,-4.7918,-4.8158,-4.7701,-4.682,-4.6829,-4.6473,-4.5893,-4.5671,-4.5594,-4.5594,-4.5594,-4.5594,-4.5594,-4.5594,-4.5594,-4.5594,-4.5594,-4.562,-4.5665,-4.5815,-4.5385,-4.4822,-4.4959,-4.3918,-4.2669,-4.2474,-4.1927,-4.1343,-4.1148,-4.1109,-4.1109,-4.1109,-4.1109,-4.1109,-4.1109,-4.1109,-4.1109,-4.1109,-4.1109,-4.1109,-4.1109,-4.1109,-4.1109,-4.1109,-4.0366,-3.9819,-3.9819,-3.9273,-3.9118,-3.9741,-3.9976,-4.0367,-4.1033,-4.1119,-4.1085,-4.1089,-4.1129,-4.1129,-4.1089,-4.0345,-3.9914,-3.9916,-3.9057,-3.8941,-3.9607,-3.9803,-4.0234,-4.0898,-4.1094,-4.0742,-5.0693,-5.1625,-5.2395,-5.1471,-5.1933,-5.2356,-5.1471,0.0,0.0,0.0,0.0,0.0,-5.1279,-5.0971,-5.102,-5.1895,-5.2318,-5.3241,-5.5357,-5.5643,-5.5638,-5.5531,-5.4016,-5.2771,-5.2318,-5.1109,-5.0283,-5.0283,-5.0283,-5.0283,-5.0283,-5.0283,-5.0283,-5.0283,-5.0283,-5.0283,-5.0283,-5.0344,-5.0126,-4.9633,-4.9667,-4.9029,-4.7892,-4.8258,-4.7813,-4.6743,-4.6801,-4.6579,-4.6163,-4.5748,-4.5594,-4.5594,-4.5594,-4.5594,-4.5594,-4.5594,-4.5594,-4.5594,-4.5594,-4.5594,-4.5637,-4.5809,-4.5293,-4.4632,-4.4367,-4.3362,-4.2298,-4.2385,-4.2045,-4.1615,-4.1187,-4.1109,-4.1109,-4.1109,-4.1109,-4.1109,-4.1109,-4.1109,-4.1109,-4.1109,-4.1109,-4.1109,-4.1109,-4.1109,-4.0953,-4.0561,-3.978,-3.9234,-3.9234,-3.8884,-3.8923,-3.9702,-4.0171,-4.06,-4.107,-4.1112,-4.1117,-4.1084,-4.1087,-4.1087,-4.1084,-4.034,-3.991,-3.9913,-3.9795,-3.9992,-4.0465,-4.0466,-4.0702,-4.1132,-4.1172,-4.0937,-5.0837,-5.1471,-5.2038,-5.1769,-5.1808,-5.1885,-5.1731,0.0,0.0,0.0,0.0,0.0,0.0,-5.0894,-5.0933,-5.1058,-5.2395,-5.4164,-5.6329,-5.6088,-5.5643,-5.5434,-5.3985,-5.2663,-5.1764,-5.0853,-5.0283,-5.0283,-5.0283,-5.0283,-5.0283,-5.0283,-5.0283,-5.0283,-5.0283,-5.0283,-5.0283,-5.0283,-5.0245,-5.013,-4.9977,-4.9098,-4.7597,-4.8236,-4.7792,-4.6502,-4.6551,-4.6599,-4.6615,-4.5893,-4.5594,-4.5594,-4.5594,-4.5594,-4.5594,-4.5594,-4.5594,-4.5594,-4.5594,-4.5594,-4.562,-4.5757,-4.5213,-4.4395,-4.3843,-4.3026,-4.2295,-4.2351,-4.2264,-4.1995,-4.125,-4.1062,-4.1108,-4.1101,-4.1104,-4.1109,-4.1109,-4.1109,-4.1109,-4.1109,-4.1109,-4.1109,-4.1109,-4.1104,-4.0826,-4.0084,-3.9259,-3.875,-3.875,-3.8633,-3.8865,-3.9685,-4.0428,-4.0896,-4.1053,-4.1058,-4.1064,-4.107,-4.1081,-4.1045,-4.0922,-4.0376,-4.0025,-3.9908,-4.0688,-4.1081,-4.1087,-4.109,-4.1091,-4.1091,-4.1171,-4.1172,-5.153,-5.2346,-5.2664,-5.1241,-5.1395,-5.1731,-5.1048,0.0,0.0,0.0,0.0,0.0,0.0,-5.1731,-5.1972,-5.2702,-5.3664,-5.4434,-5.4818,-5.5357,-5.5412,-5.4666,-5.364,-5.2663,-5.1764,-5.0853,-5.0283,-5.0283,-5.0283,-5.0283,-5.0283,-5.0283,-5.0283,-5.0283,-5.0283,-5.0283,-5.0283,-5.0283,-4.9939,-4.9301,-4.8525,-4.7674,-4.6691,-4.6129,-4.5788,-4.5609,-4.5621,-4.564,-4.5724,-4.5615,-4.5594,-4.5594,-4.5594,-4.5594,-4.5594,-4.5594,-4.5594,-4.5594,-4.5594,-4.5594,-4.562,-4.5757,-4.5213,-4.4498,-4.4455,-4.386,-4.3039,-4.2334,-4.17,-4.1149,-4.089,-4.097,-4.1101,-4.102,-4.1044,-4.1109,-4.1109,-4.1109,-4.1109,-4.1109,-4.1109,-4.1109,-4.1109,-4.104,-4.0967,-4.085,-3.9983,-3.9353,-3.9353,-3.8762,-3.8645,-3.947,-3.9664,-4.0053,-4.0796,-4.0935,-4.1009,-4.1009,-4.1055,-4.0761,-4.0016,-4.0603,-4.0564,-3.9821,-4.0642,-4.1114,-4.1081,-4.1082,-4.1084,-4.1089,-4.1091,-4.1131,-5.1145,-5.1856,-5.2308,-5.1548,-5.2318,-5.3087,-5.2241,-5.1702,0.0,0.0,0.0,0.0,0.0,-5.1625,-5.2346,-5.3664,-5.4241,-5.4664,-5.5088,-5.5472,-5.5231,-5.3891,-5.3349,-5.2527,-5.1196,-5.0631,-5.0356,-5.0283,-5.0283,-5.0283,-5.0283,-5.0283,-5.0283,-5.0283,-5.0283,-5.0283,-5.0283,-5.0283,-5.0092,-4.9748,-4.9328,-4.8487,-4.7177,-4.6806,-4.6188,-4.5408,-4.539,-4.5448,-4.5485,-4.5541,-4.5568,-4.5594,-4.5594,-4.5594,-4.5594,-4.5594,-4.5594,-4.5594,-4.5594,-4.5594,-4.5603,-4.5687,-4.5441,-4.5032,-4.4679,-4.3937,-4.304,-4.2226,-4.1824,-4.1516,-4.093,-4.0924,-4.102,-4.091,-4.0921,-4.0948,-4.0948,-4.0948,-4.0948,-4.0948,-4.0948,-4.0948,-4.0948,-4.0917,-4.0735,-4.0268,-3.9803,-3.9504,-3.9504,-3.9189,-3.9267,-4.0126,-4.0203,-4.0359,-4.0752,-4.087,-4.0928,-4.1037,-4.1099,-4.0914,-4.0522,-4.0875,-4.0914,-4.0522,-4.0914,-4.1111,-4.1114,-4.1116,-4.1081,-4.1084,-4.1088,-4.109,-5.0914,-5.1433,-5.1962,-5.2154,0.0,-5.378,-5.3318,-5.2395,-5.151,0.0,0.0,0.0,0.0,-5.151,-5.2692,-5.4241,-5.4664,-5.5011,-5.5588,-5.5549,-5.4857,-5.3395,-5.2958,-5.2176,-5.0664,-5.0446,-5.0379,-5.0321,-5.0283,-5.0283,-5.0283,-5.0283,-5.0283,-5.0283,-5.0283,-5.0283,-5.0283,-5.0283,-5.0283,-5.0283,-5.0092,-4.9251,-4.7788,-4.7597,-4.6713,-4.5388,-4.5398,-4.5419,-4.5466,-4.5475,-4.555,-4.5594,-4.5594,-4.5594,-4.5594,-4.5594,-4.5594,-4.5594,-4.5594,-4.5594,-4.5594,-4.5594,-4.5594,-4.5496,-4.4924,-4.4261,-4.3495,-4.2461,-4.2311,-4.2153,-4.1013,-4.0848,-4.091,-4.0815,-4.0772,-4.0791,-4.0791,-4.0791,-4.0791,-4.0791,-4.0791,-4.0791,-4.0791,-4.0811,-4.0558,-3.9898,-3.9756,-3.9741,-3.9741,-3.9741,-3.9973,-4.0676,-4.0715,-4.0726,-4.0752,-4.0791,-4.087,-4.1035,-4.1042,-4.1042,-4.1042,-4.1051,-4.1095,-4.1095,-4.1104,-4.1109,-4.1109,-4.1114,-4.1116,-4.1116,-4.1084,-4.1086,-5.1645,-5.1846,-5.2077,-5.2895,-5.2577,-5.2269,-5.3049,-5.1933,0.0,-5.1654,0.0,0.0,-5.0712,-5.201,-5.3395,-5.4357,-5.5126,-5.5626,-5.5703,-5.5049,-5.4241,-5.3318,-5.242,-5.1523,-5.0587,-5.0446,-5.0379,-5.0321,-5.0283,-5.0283,-5.0283,-5.0283,-5.0283,-5.0283,-5.0283,-5.0283,-5.0283,-5.0283,-5.0283,-5.0283,-4.9519,-4.8716,-4.775,-4.6948,-4.6118,-4.5288,-4.5378,-4.54,-4.541,-4.5466,-4.555,-4.5594,-4.5594,-4.5594,-4.5594,-4.5594,-4.5594,-4.5594,-4.5594,-4.5594,-4.5594,-4.5594,-4.5594,-4.5594,-4.5526,-4.5488,-4.5094,-4.3487,-4.3064,-4.2731,-4.0976,-4.068,-4.0815,-4.0703,-4.0759,-4.0791,-4.0791,-4.0791,-4.0791,-4.0791,-4.0791,-4.0791,-4.0791,-4.0749,-4.0674,-4.0635,-4.0524,-4.0431,-4.0431,-4.0431,-4.0431,-4.0508,-4.0508,-4.0566,-4.07,-4.0712,-4.0726,-4.0805,-4.0809,-4.0809,-4.0809,-4.0924,-4.1,-4.1,-4.1051,-4.1109,-4.1109,-4.1109,-4.1109,-4.1109,-4.1116,-4.1119,-5.1077,-5.1164,-5.1356,-5.2192,-5.1779,0.0,0.0,-5.1895,-5.1395,-5.1202,-5.0894,-5.0856,-5.1356,-5.1972,-5.2692,-5.3549,-5.3933,-5.4164,-5.4164,-5.3895,-5.3356,-5.25,-5.2067,-5.1478,-5.0587,-5.0478,-5.0424,-5.0333,-5.0283,-5.0283,-5.0283,-5.0283,-5.0283,-5.0283,-5.0283,-5.0283,-5.0283,-5.0283,-5.0283,-5.0283,-4.948,-4.864,-4.775,-4.692,-4.6042,-4.5288,-4.5347,-4.535,-4.54,-4.541,-4.5466,-4.555,-4.5577,-4.5594,-4.5594,-4.5594,-4.5594,-4.5594,-4.5594,-4.5594,-4.5594,-4.5594,-4.5594,-4.5594,-4.5594,-4.4863,-4.3893,-4.3278,-4.2325,-4.1354,-4.0685,-4.0629,-4.0697,-4.0602,-4.0609,-4.061,-4.061,-4.061,-4.061,-4.061,-4.061,-4.061,-4.061,-4.0602,-4.0566,-4.0566,-4.0515,-4.0516,-4.0516,-4.0516,-4.0516,-4.0516,-4.0516,-4.05,-4.0559,-4.0566,-4.0588,-4.0604,-4.0715,-4.0791,-4.0791,-4.0861,-4.0882,-4.0882,-4.0914,-4.0928,-4.0889,-4.1011,-4.1028,-4.1028,-4.1062,-4.1112,-5.0693,-5.0712,-5.0827,-5.1395,0.0,0.0,-5.1395,-5.151,-5.1433,-5.1125,-5.0856,-5.0856,-5.1433,-5.1731,-5.2115,-5.2692,-5.301,-5.3203,-5.3203,-5.2972,-5.2577,-5.1962,-5.1692,-5.1239,-5.0549,-5.05,-5.0457,-5.0294,-5.0283,-5.0283,-5.0283,-5.0283,-5.0283,-5.0283,-5.0283,-5.0283,-5.0283,-5.0283,-5.0283,-5.0283,-4.948,-4.864,-4.775,-4.692,-4.6042,-4.5288,-4.5288,-4.5357,-4.5408,-4.5381,-4.5448,-4.555,-4.5577,-4.5594,-4.5594,-4.5594,-4.5594,-4.5594,-4.5594,-4.5594,-4.5594,-4.5594,-4.5594,-4.5594,-4.5594,-4.4624,-4.3431,-4.3162,-4.2047,-4.0854,-4.0554,-4.0559,-4.0609,-4.05,-4.0516,-4.0516,-4.0516,-4.0516,-4.0516,-4.0516,-4.0516,-4.0516,-4.0516,-4.0516,-4.0516,-4.0516,-4.0516,-4.0516,-4.0516,-4.0516,-4.0516,-4.0516,-4.0516,-4.0516,-4.0516,-4.0516,-4.0516,-4.0516,-4.063,-4.0726,-4.0726,-4.0759,-4.078,-4.078,-4.0772,-4.0791,-4.0791,-4.089,-4.0956,-4.096,-4.1028,-4.0933,-5.0683,-5.0712,-5.0712,-5.0712,0.0,0.0,-5.0712,-5.0712,-5.0933,-5.1731,-5.1241,-5.0712,-5.0712,-5.1356,-5.1885,-5.1885,-5.2615,-5.3164,-5.3164,-5.2423,-5.1885,-5.1885,-5.1202,-5.0663,-5.0511,-5.05,-5.0457,-5.0294,-5.0283,-5.0283,-5.0283,-5.0283,-5.0283,-5.0283,-5.0283,-5.0283,-5.0283,-5.0283,-5.0283,-5.0283,-4.948,-4.864,-4.775,-4.692,-4.6042,-4.5288,-4.5288,-4.5357,-4.5408,-4.5381,-4.5466,-4.5594,-4.5594,-4.5594,-4.5594,-4.5594,-4.5594,-4.5594,-4.5594,-4.5594,-4.5594,-4.5594,-4.5594,-4.5594,-4.5594,-4.4979,-4.4124,-4.3316,-4.247,-4.1585,-4.0708,-4.0516,-4.0516,-4.0516,-4.0516,-4.0516,-4.0516,-4.0516,-4.0516,-4.0516,-4.0516,-4.0516,-4.0516,-4.0516,-4.0516,-4.0516,-4.0516,-4.0516,-4.0516,-4.0516,-4.0516,-4.0516,-4.0516,-4.0516,-4.0516,-4.0516,-4.0516,-4.0516,-4.0516,-4.0516,-4.0516,-4.0622,-4.0694,-4.0694,-4.0775,-4.0786,-4.0786,-4.0786,-4.0786,-4.0791,-4.0956,-4.0523,-5.0683,-5.0712,-5.0712,-5.0712,0.0,0.0,0.0,-5.0712,0.0,0.0,-5.0856,-5.0712,-5.0712,-5.0894,-5.1048,-5.1048,-5.1279,-5.1433,-5.1433,-5.1202,-5.1048,-5.1048,-5.0866,-5.0682,-5.0563,-5.0521,-5.0468,-5.039,-5.0344,-5.0283,-5.0283,-5.0283,-5.0283,-5.0283,-5.0283,-5.0283,-5.0283,-5.0283,-5.0283,-5.0283,-4.8869,-4.8067,-4.775,-4.692,-4.6042,-4.5288,-4.5288,-4.5288,-4.5319,-4.5371,-4.5466,-4.5594,-4.5594,-4.5594,-4.5594,-4.5594,-4.5594,-4.5594,-4.5594,-4.5594,-4.5594,-4.5594,-4.5594,-4.5594,-4.5594,-4.4586,-4.3393,-4.3162,-4.2047,-4.0823,-4.0554,-4.0516,-4.0516,-4.0516,-4.0516,-4.0516,-4.0516,-4.0516,-4.0516,-4.0516,-4.0516,-4.0516,-4.0516,-4.0516,-4.0516,-4.0516,-4.0516,-4.0516,-4.0516,-4.0516,-4.0516,-4.0516,-4.0516,-4.0516,-4.0516,-4.0516,-4.0516,-4.0516,-4.0516,-4.0516,-4.0516,-4.0523,-4.0545,-4.0545,-4.0588,-4.0577,-4.0577,-4.0667,-4.0715,-4.0715,-4.0825,-4.0714,-5.0712,-5.0712,-5.0712,-5.0712,-5.0712,-5.0712,-5.0712,0.0,-5.0712,-5.0712,-5.0712,-5.0712,-5.0712,-5.0712,-5.0712,-5.0712,-5.0712,-5.0712,-5.0712,-5.0712,-5.0712,-5.0712,-5.0712,-5.0682,-5.0622,-5.0532,-5.0478,-5.0412,-5.0356,-5.0283,-5.0283,-5.0283,-5.0283,-5.0283,-5.0283,-5.0283,-5.0283,-5.0283,-5.0283,-5.0283,-4.8945,-4.8143,-4.775,-4.6577,-4.5774,-4.5288,-4.5288,-4.5309,-4.535,-4.5381,-4.5466,-4.5594,-4.5594,-4.5594,-4.5594,-4.5594,-4.5594,-4.5594,-4.5594,-4.5594,-4.5594,-4.5594,-4.5594,-4.5594,-4.5594,-4.4432,-4.3085,-4.3085,-4.1854,-4.0516,-4.0516,-4.0516,-4.0516,-4.0516,-4.0516,-4.0516,-4.0516,-4.0516,-4.0516,-4.0516,-4.0516,-4.0516,-4.0516,-4.0516,-4.0516,-4.0516,-4.0516,-4.0516,-4.0516,-4.0516,-4.0516,-4.0516,-4.0516,-4.0516,-4.0516,-4.0516,-4.0516,-4.0516,-4.0516,-4.0516,-4.0516,-4.0516,-4.0516,-4.0516,-4.0516,-4.0516,-4.0516,-4.0574,-4.0615,-4.0615,-4.0715,-4.0571,-5.0712,-5.0712,-5.0712,-5.0712,-5.0712,-5.0712,-5.0712,-5.0712,-5.0712,-5.0712,-5.0712,-5.0712,-5.0712,-5.0712,-5.0712,-5.0712,-5.0712,-5.0712,-5.0712,-5.0712,-5.0712,-5.0712,-5.0712,-5.0692,-5.0632,-5.0532,-5.0478,-5.0412,-5.0356,-5.0283,-5.0283,-5.0283,-5.0283,-5.0283,-5.0283,-5.0283,-5.0283,-5.0283,-5.0245,-5.0168,-4.9366,-4.8525,-4.7635,-4.608,-4.5364,-4.5288,-4.5288,-4.5339,-4.54,-4.54,-4.5466,-4.5586,-4.5594,-4.5594,-4.5594,-4.5594,-4.5594,-4.5594,-4.5594,-4.5594,-4.5594,-4.5594,-4.5594,-4.5594,-4.5594,-4.4432,-4.3085,-4.3085,-4.1854,-4.0516,-4.0516,-4.0516,-4.0516,-4.0516,-4.0516,-4.0516,-4.0516,-4.0516,-4.0516,-4.0516,-4.0516,-4.0516,-4.0516,-4.0516,-4.0516,-4.0516,-4.0516,-4.0516,-4.0516,-4.0516,-4.0516,-4.0516,-4.0516,-4.0516,-4.0516,-4.0516,-4.0516,-4.0516,-4.0516,-4.0516,-4.0516,-4.0516,-4.0516,-4.0516,-4.0516,-4.0516,-4.0516,-4.0516,-4.0516,-4.0516,-4.0622,-4.0243,-5.0712,-5.0712,0.0,-5.0712,-5.0712,-5.0712,-5.0712,-5.0712,-5.0712,-5.0712,-5.0712,-5.0712,-5.0712,-5.0712,-5.0712,-5.0712,-5.0712,-5.0712,-5.0712,-5.0712,-5.0712,-5.0712,-5.0712,-5.0702,-5.0692,-5.0563,-5.05,-5.0478,-5.0379,-5.0283,-5.0283,-5.0283,-5.0283,-5.0283,-5.0283,-5.0283,-5.0283,-5.0283,-4.9977,-4.9339,-4.8487,-4.7597,-4.6768,-4.6424,-4.5889,-4.5288,-4.5288,-4.5319,-4.539,-4.539,-4.5438,-4.5541,-4.5577,-4.5594,-4.5594,-4.5594,-4.5594,-4.5594,-4.5594,-4.5594,-4.5594,-4.5594,-4.5594,-4.5594,-4.5594,-4.4432,-4.3085,-4.3085,-4.1854,-4.0516,-4.0516,-4.0516,-4.0516,-4.0516,-4.0516,-4.0516,-4.0516,-4.0516,-4.0516,-4.0516,-4.0516,-4.0516,-4.0516,-4.0516,-4.0516,-4.0516,-4.0516,-4.0516,-4.0516,-4.0516,-4.0516,-4.0516,-4.0516,-4.0516,-4.0516,-4.0516,-4.0516,-4.0516,-4.0516,-4.0516,-4.0516,-4.0516,-4.0516,-4.0516,-4.0516,-4.0516,-4.0516,-4.0516,-4.0516,-4.0516,-4.0515,-4.0446,-5.0712,0.0,0.0,-5.0712,0.0,-5.0712,-5.0712,-5.0712,-5.0712,-5.0712,-5.0712,-5.0712,-5.0712,-5.0712,-5.0712,-5.0712,-5.0712,-5.0712,-5.0712,-5.0712,-5.0712,-5.0712,-5.0712,-5.0712,-5.0712,-5.0573,-5.05,-5.05,-5.039,-5.0283,-5.0283,-5.0283,-5.0283,-5.0283,-5.0125,-5.0063,-5.0063,-4.967,-4.948,-4.9416,-4.7896,-4.6729,-4.5927,-4.5927,-4.5698,-4.5288,-4.5288,-4.5357,-4.5408,-4.5381,-4.5438,-4.5523,-4.5577,-4.5594,-4.5594,-4.5594,-4.5594,-4.5594,-4.5594,-4.5594,-4.5594,-4.5594,-4.5594,-4.5518,-4.5094,-4.4085,-4.3008,-4.2585,-4.1508,-4.0516,-4.0516,-4.0516,-4.0516,-4.0516,-4.0516,-4.0516,-4.0516,-4.0516,-4.0516,-4.0516,-4.0516,-4.0516,-4.0516,-4.0516,-4.0516,-4.0516,-4.0516,-4.0516,-4.0516,-4.0516,-4.0516,-4.0516,-4.0516,-4.0516,-4.0516,-4.0516,-4.0516,-4.0516,-4.0516,-4.0516,-4.0516,-4.0516,-4.0516,-4.0516,-4.0516,-4.0516,-4.0516,-4.0516,-4.0516,-4.0516,-4.0516,-4.0516,-5.0519,0.0,-5.0519,-5.0673,-5.0712,0.0,-5.0712,-5.0712,-5.0712,-5.0712,-5.0712,-5.0712,-5.0712,-5.0712,-5.0712,-5.0712,-5.0712,-5.0712,-5.0712,-5.0712,-5.0712,-5.0712,-5.0712,-5.0712,-5.0712,-5.0573,-5.05,-5.05,-5.039,-5.0283,-5.0283,-5.0283,-5.0283,-5.0283,-4.9949,-4.9803,-4.9803,-4.9067,-4.894,-4.9349,-4.7293,-4.5927,-4.5288,-4.5288,-4.5288,-4.5288,-4.5288,-4.5347,-4.5398,-4.5409,-4.5419,-4.5475,-4.5559,-4.5586,-4.5594,-4.5594,-4.5594,-4.5594,-4.5594,-4.5594,-4.5594,-4.5594,-4.5518,-4.5248,-4.4509,-4.3624,-4.2739,-4.2,-4.1162,-4.0516,-4.0516,-4.0516,-4.0516,-4.0516,-4.0516,-4.0516,-4.0516,-4.0516,-4.0516,-4.0516,-4.0516,-4.0516,-4.0516,-4.0516,-4.0516,-4.0516,-4.0516,-4.0516,-4.0516,-4.0516,-4.0516,-4.0516,-4.0516,-4.0516,-4.0516,-4.0516,-4.0516,-4.0516,-4.0516,-4.0516,-4.0516,-4.0516,-4.0516,-4.0516,-4.0516,-4.0516,-4.0516,-4.0516,-4.0516,-4.0516,-4.0516,-4.0516,0.0,0.0,-4.974,0.0,-5.0712,-5.0712,0.0,0.0,-5.0712,-5.0712,-5.0712,-5.0712,-5.0712,-5.0712,-5.0712,-5.0712,-5.0712,-5.0712,-5.0712,-5.0712,-5.0712,-5.0712,-5.0712,-5.0712,-5.0712,-5.0573,-5.05,-5.05,-5.039,-5.0283,-5.0283,-5.0283,-5.0283,-5.0283,-4.9949,-4.9803,-4.9803,-4.9399,-4.8668,-4.763,-4.615,-4.5392,-4.5288,-4.5288,-4.5288,-4.5288,-4.5288,-4.5326,-4.5337,-4.5398,-4.5409,-4.5419,-4.5475,-4.5559,-4.5594,-4.5594,-4.5594,-4.5594,-4.5594,-4.5594,-4.5594,-4.5594,-4.5094,-4.4432,-4.4355,-4.3201,-4.1962,-4.1808,-4.1162,-4.0516,-4.0516,-4.0516,-4.0516,-4.0516,-4.0516,-4.0516,-4.0516,-4.0516,-4.0516,-4.0516,-4.0516,-4.0516,-4.0516,-4.0516,-4.0516,-4.0516,-4.0516,-4.0516,-4.0516,-4.0516,-4.0516,-4.0516,-4.0516,-4.0516,-4.0516,-4.0516,-4.0516,-4.0516,-4.0516,-4.0516,-4.0516,-4.0516,-4.0516,-4.0516,-4.0516,-4.0516,-4.0516,-4.0516,-4.0516,-4.0516,-4.0516,-4.0516,-4.951,-4.974,-5.0212,0.0,-5.0712,-5.0712,-5.0712,-5.0712,-5.0712,-5.0712,-5.0712,-5.0712,-5.0712,-5.0712,-5.0712,-5.0712,-5.0289,-5.0125,-5.0635,-4.9856,-4.9625,-5.0596,-5.0289,-5.0164,-5.0635,-5.0573,-5.05,-5.05,-5.039,-5.0092,-4.9633,-5.0054,-4.9862,-4.8934,-4.8856,-4.8622,-4.8169,-4.741,-4.6621,-4.5887,-4.5959,-4.5736,-4.5288,-4.5288,-4.5288,-4.5288,-4.5288,-4.5288,-4.5326,-4.5378,-4.54,-4.541,-4.5457,-4.555,-4.5594,-4.5594,-4.5287,-4.4932,-4.5441,-4.5287,-4.494,-4.5441,-4.5017,-4.4201,-4.3778,-4.2777,-4.1692,-4.12,-4.0785,-4.0516,-4.0516,-4.0516,-4.0516,-4.0516,-4.0516,-4.0516,-4.0516,-4.0516,-4.0516,-4.0516,-4.0516,-4.0516,-4.0516,-4.0516,-4.0516,-4.0516,-4.0516,-4.0516,-4.0516,-4.0516,-4.0516,-4.0516,-4.0516,-4.0516,-4.0516,-4.0516,-4.0516,-4.0516,-4.0516,-4.0516,-4.0516,-4.0516,-4.0516,-4.0516,-4.0516,-4.0516,-4.0516,-4.0516,-4.0516,-4.0516,-4.0516,-4.0516,0.0,0.0,-5.0087,-5.0327,-5.0558,-5.0712,0.0,-5.0712,-5.0712,-5.0712,-5.0712,-5.0712,-5.0712,-5.0712,-5.0712,-5.0712,-5.0164,-4.9894,-5.0327,-4.924,-4.8817,-4.9894,-4.9663,-4.9663,-5.0327,-5.0276,-5.0176,-5.0166,-4.9865,-4.9415,-4.8793,-4.9328,-4.9098,-4.7826,-4.7789,-4.7515,-4.6914,-4.5835,-4.5192,-4.4991,-4.5822,-4.5889,-4.5288,-4.5288,-4.5288,-4.5288,-4.5288,-4.5288,-4.5288,-4.5367,-4.538,-4.539,-4.5467,-4.5523,-4.5577,-4.5577,-4.5154,-4.4701,-4.5364,-4.5171,-4.4739,-4.5402,-4.4863,-4.3893,-4.3278,-4.2354,-4.1316,-4.0669,-4.0516,-4.0516,-4.0516,-4.0516,-4.0516,-4.0516,-4.0516,-4.0516,-4.0516,-4.0516,-4.0516,-4.0516,-4.0516,-4.0516,-4.0516,-4.0516,-4.0516,-4.0516,-4.0516,-4.0516,-4.0516,-4.0516,-4.0516,-4.0516,-4.0516,-4.0516,-4.0516,-4.0516,-4.0516,-4.0516,-4.0516,-4.0516,-4.0516,-4.0516,-4.0516,-4.0516,-4.0516,-4.0516,-4.0516,-4.0516,-4.0516,-4.0516,-4.0516,-4.0516,0.0,-4.8202,0.0,-4.924,-5.0087,0.0,0.0,-5.0712,-5.0712,-5.0712,-5.0712,-5.0712,-5.0712,-5.0712,-5.0712,-5.0712,-5.0673,-5.0366,-4.9586,-4.9394,-4.9048,-4.8317,-4.8933,-4.9433,-4.9471,-4.9413,-4.9324,-4.9283,-4.8492,-4.7958,-4.7876,-4.7903,-4.7903,-4.7788,-4.7259,-4.6951,-4.6914,-4.6006,-4.5579,-4.5547,-4.5425,-4.5326,-4.5288,-4.5288,-4.5288,-4.5288,-4.5288,-4.5288,-4.5288,-4.5288,-4.5319,-4.5408,-4.5408,-4.5438,-4.5523,-4.5523,-4.5512,-4.5556,-4.5594,-4.5556,-4.5556,-4.5594,-4.447,-4.3162,-4.3124,-4.1893,-4.0554,-4.0516,-4.0516,-4.0516,-4.0516,-4.0516,-4.0516,-4.0516,-4.0516,-4.0516,-4.0516,-4.0516,-4.0516,-4.0516,-4.0516,-4.0516,-4.0516,-4.0516,-4.0516,-4.0516,-4.0516,-4.0516,-4.0516,-4.0516,-4.0516,-4.0516,-4.0516,-4.0516,-4.0516,-4.0516,-4.0516,-4.0516,-4.0516,-4.0516,-4.0516,-4.0516,-4.0516,-4.0516,-4.0516,-4.0516,-4.0516,-4.0516,-4.0516,-4.0516,-4.0516,-4.0516,0.0,0.0,0.0,-4.9163,-4.9625,-5.001,-5.0558,-5.0712,-5.0712,-5.0712,-5.0712,-5.0712,-5.0712,-5.0712,-5.0712,-5.0712,-5.025,-4.9933,-5.0212,-4.8817,-4.8086,-4.8856,-4.8702,-4.8779,-4.9356,-4.9346,-4.9516,-5.0012,-4.8722,-4.7854,-4.7788,-4.7788,-4.7302,-4.6233,-4.6163,-4.5687,-4.4728,-4.4782,-4.4834,-4.4834,-4.5171,-4.5288,-4.5288,-4.5288,-4.5288,-4.5288,-4.5288,-4.5288,-4.5288,-4.5288,-4.5357,-4.5408,-4.54,-4.54,-4.5438,-4.5466,-4.4822,-4.4045,-4.5148,-4.482,-4.4021,-4.4577,-4.4008,-4.3008,-4.2431,-4.1431,-4.0516,-4.0516,-4.0516,-4.0516,-4.0516,-4.0516,-4.0516,-4.0516,-4.0516,-4.0516,-4.0516,-4.0516,-4.0516,-4.0516,-4.0516,-4.0516,-4.0516,-4.0516,-4.0516,-4.0516,-4.0516,-4.0516,-4.0516,-4.0516,-4.0516,-4.0516,-4.0516,-4.0516,-4.0516,-4.0516,-4.0516,-4.0516,-4.0516,-4.0516,-4.0516,-4.0516,-4.0516,-4.0516,-4.0516,-4.0516,-4.0516,-4.0516,-4.0516,-4.0516,-4.0516,-4.0516,-4.6471,0.0,0.0,0.0,0.0,-4.9279,-5.0442,-5.0481,-5.0366,-5.0635,-5.0712,-5.0712,-5.0712,-5.0712,-5.0712,-5.0712,-5.0212,-4.9933,-5.0202,-4.8548,-4.7625,-4.8471,-4.8279,-4.8317,-4.8894,-4.9202,-4.9537,-5.0012,-4.8464,-4.7454,-4.7379,-4.7111,-4.6347,-4.5057,-4.5164,-4.4707,-4.3515,-4.408,-4.4397,-4.4397,-4.5019,-4.5288,-4.5288,-4.5288,-4.5288,-4.5288,-4.5288,-4.5288,-4.5288,-4.5288,-4.5347,-4.5378,-4.538,-4.5361,-4.5419,-4.5458,-4.4729,-4.3914,-4.5064,-4.4737,-4.388,-4.4214,-4.3769,-4.3008,-4.2431,-4.1431,-4.0554,-4.0854,-4.0746,-4.0516,-4.0516,-4.0516,-4.0516,-4.0516,-4.0516,-4.0516,-4.0516,-4.0516,-4.0516,-4.0516,-4.0516,-4.0516,-4.0516,-4.0516,-4.0516,-4.0516,-4.0516,-4.0516,-4.0516,-4.0516,-4.0516,-4.0516,-4.0516,-4.0516,-4.0516,-4.0516,-4.0516,-4.0516,-4.0516,-4.0516,-4.0516,-4.0516,-4.0516,-4.0516,-4.0516,-4.0516,-4.0516,-4.0516,-4.0516,-4.0516,-4.0516,-4.0516,0.0,0.0,0.0,0.0,0.0,0.0,-5.025,-4.9971,-4.9625,-5.0519,-5.0673,-5.0673,-5.0712,-5.0712,-5.0712,-5.0712,-5.0712,-5.0404,-4.9548,-4.8663,-4.7817,-4.7038,-4.7625,-4.8086,-4.8086,-4.8894,-4.9356,-4.9255,-4.7662,-4.6654,-4.6538,-4.5736,-4.503,-4.4411,-4.4397,-4.4095,-4.3515,-4.408,-4.4397,-4.4397,-4.5019,-4.5288,-4.5288,-4.5288,-4.5288,-4.5288,-4.5288,-4.5288,-4.5288,-4.5288,-4.5288,-4.5288,-4.5288,-4.5357,-4.5398,-4.5408,-4.54,-4.5362,-4.54,-4.5438,-4.5322,-4.4554,-4.3782,-4.3124,-4.3085,-4.1893,-4.0708,-4.1546,-4.1162,-4.0516,-4.0516,-4.0516,-4.0516,-4.0516,-4.0516,-4.0516,-4.0516,-4.0516,-4.0516,-4.0516,-4.0516,-4.0516,-4.0516,-4.0516,-4.0516,-4.0516,-4.0516,-4.0516,-4.0516,-4.0516,-4.0516,-4.0516,-4.0516,-4.0516,-4.0516,-4.0516,-4.0516,-4.0516,-4.0516,-4.0516,-4.0516,-4.0516,-4.0516,-4.0516,-4.0516,-4.0516,-4.0516,-4.0516,-4.0516,-4.0516,-4.0516,-4.0516,-4.5594,0.0,0.0,0.0,0.0,0.0,-4.9356,-4.9086,-4.8894,-5.0404,-5.0212,-4.9933,-5.0596,-5.0712,-5.0712,-5.0712,-5.0712,-5.0635,-5.0366,-4.9048,-4.8009,-4.7778,-4.7971,-4.8086,-4.8086,-4.8894,-4.9625,-5.0089,-4.8008,-4.6922,-4.7417,-4.608,-4.503,-4.4411,-4.4397,-4.4095,-4.3515,-4.408,-4.4397,-4.4397,-4.5019,-4.5288,-4.5288,-4.5288,-4.5288,-4.5288,-4.5288,-4.5288,-4.5288,-4.5288,-4.5288,-4.5288,-4.5367,-4.5367,-4.5309,-4.5388,-4.4967,-4.4488,-4.514,-4.5007,-4.4461,-4.4344,-4.414,-4.3735,-4.253,-4.1816,-4.1354,-4.0969,-4.0708,-4.0516,-4.0516,-4.0516,-4.0516,-4.0516,-4.0516,-4.0516,-4.0516,-4.0516,-4.0516,-4.0516,-4.0516,-4.0516,-4.0516,-4.0516,-4.0516,-4.0516,-4.0516,-4.0516,-4.0516,-4.0516,-4.0516,-4.0516,-4.0516,-4.0516,-4.0516,-4.0516,-4.0516,-4.0516,-4.0516,-4.0516,-4.0516,-4.0516,-4.0516,-4.0516,-4.0516,-4.0516,-4.0516,-4.0516,-4.0516,-4.0516,-4.0516,-4.0516,-4.571,0.0,0.0,-4.6701,0.0,0.0,-4.8933,-4.874,-4.8586,-5.0327,-5.0289,-5.0087,-5.0596,-5.0712,-5.0596,-5.0212,-5.0481,-5.0712,-5.0712,-4.9202,-4.824,-4.8586,-4.8317,-4.824,-4.8625,-4.9433,-5.0086,-5.0472,-4.8774,-4.7611,-4.7264,-4.6003,-4.503,-4.4411,-4.4397,-4.4095,-4.3515,-4.408,-4.4397,-4.4397,-4.5019,-4.5288,-4.5288,-4.5288,-4.5288,-4.5288,-4.5288,-4.5288,-4.5288,-4.5288,-4.5288,-4.5288,-4.5357,-4.5309,-4.5288,-4.5357,-4.5003,-4.4628,-4.5166,-4.5033,-4.4604,-4.4317,-4.4249,-4.4063,-4.2697,-4.2069,-4.1692,-4.12,-4.0785,-4.0516,-4.0516,-4.0516,-4.0516,-4.0516,-4.0516,-4.0516,-4.0516,-4.0516,-4.0516,-4.0516,-4.0516,-4.0516,-4.0516,-4.0516,-4.0516,-4.0516,-4.0516,-4.0516,-4.0516,-4.0516,-4.0516,-4.0516,-4.0516,-4.0516,-4.0516,-4.0516,-4.0516,-4.0516,-4.0516,-4.0516,-4.0516,-4.0516,-4.0516,-4.0516,-4.0516,-4.0516,-4.0516,-4.0516,-4.0516,-4.0516,-4.0516,-4.0516,0.0,0.0,0.0,-4.6547,-4.6163,0.0,-4.8586,-4.8432,-4.8317,-5.0048,-5.0327,-5.0327,-5.0404,-5.0404,-5.0164,-4.9394,-4.9894,-5.0442,-5.0558,-4.9202,-4.8548,-4.9317,-4.8702,-4.8548,-4.9317,-5.0212,-5.0624,-5.0511,-4.9618,-4.8301,-4.6577,-4.5736,-4.503,-4.4411,-4.4397,-4.411,-4.3583,-4.4132,-4.4411,-4.4452,-4.503,-4.5288,-4.5288,-4.5288,-4.5288,-4.5288,-4.5288,-4.5288,-4.5288,-4.5288,-4.5288,-4.5288,-4.5288,-4.5288,-4.5288,-4.5288,-4.5288,-4.5288,-4.5288,-4.5357,-4.5245,-4.4479,-4.4269,-4.4113,-4.3239,-4.242,-4.1769,-4.1692,-4.1085,-4.0516,-4.0516,-4.0516,-4.0516,-4.0516,-4.0516,-4.0516,-4.0516,-4.0516,-4.0516,-4.0516,-4.0516,-4.0516,-4.0516,-4.0516,-4.0516,-4.0516,-4.0516,-4.0516,-4.0516,-4.0516,-4.0516,-4.0516,-4.0516,-4.0516,-4.0516,-4.0516,-4.0516,-4.0516,-4.0516,-4.0516,-4.0516,-4.0516,-4.0516,-4.0516,-4.0516,-4.0516,-4.0516,-4.0516,-4.0516,-4.0516,-4.0516,-4.0516,-4.6701,-4.6124,-4.5633,-4.5825,-4.5748,0.0,-4.7124,-4.6701,-4.6547,-4.8279,-4.8086,-4.7855,-4.8509,-4.8625,-4.8548,-4.8394,-4.8509,-4.8856,-4.9548,-4.9356,-4.9202,-4.9394,-4.924,-4.9202,-4.9394,-5.0212,-5.0624,-5.0511,-4.8996,-4.763,-4.6577,-4.5736,-4.503,-4.4411,-4.4397,-4.425,-4.3892,-4.425,-4.4506,-4.4726,-4.5109,-4.5288,-4.5288,-4.5288,-4.5288,-4.5288,-4.5288,-4.5288,-4.5288,-4.5288,-4.5288,-4.5288,-4.5288,-4.5288,-4.5288,-4.5288,-4.5288,-4.5288,-4.5288,-4.5326,-4.5309,-4.5197,-4.4681,-4.3982,-4.3185,-4.2347,-4.1583,-4.0923,-4.0631,-4.0516,-4.0516,-4.0516,-4.0516,-4.0516,-4.0516,-4.0516,-4.0516,-4.0516,-4.0516,-4.0516,-4.0516,-4.0516,-4.0516,-4.0516,-4.0516,-4.0516,-4.0516,-4.0516,-4.0516,-4.0516,-4.0516,-4.0516,-4.0516,-4.0516,-4.0516,-4.0516,-4.0516,-4.0516,-4.0516,-4.0516,-4.0516,-4.0516,-4.0516,-4.0516,-4.0516,-4.0516,-4.0516,-4.0516,-4.0516,-4.0516,-4.0516,-4.0516,-4.6471,-4.5932,-4.5594,-4.5594,-4.5594,0.0,0.0,-4.6547,-4.6586,-4.7855,-4.7778,-4.7625,-4.8048,-4.8086,-4.7971,-4.7586,-4.8202,-4.8625,-4.8202,-4.8163,-4.8471,-4.9317,-4.9009,-4.9086,-4.9971,-5.0442,-5.0624,-5.0511,-4.8821,-4.7597,-4.7177,-4.5965,-4.5087,-4.4612,-4.4599,-4.4465,-4.4192,-4.4452,-4.4663,-4.48,-4.5132,-4.5288,-4.5288,-4.5288,-4.5288,-4.5288,-4.5288,-4.5288,-4.5288,-4.5288,-4.5288,-4.5288,-4.5288,-4.5288,-4.5288,-4.5288,-4.5288,-4.5288,-4.5288,-4.5288,-4.525,-4.4812,-4.4421,-4.3867,-4.2632,-4.1698,-4.1028,-4.063,-4.05,-4.0516,-4.0516,-4.0516,-4.0516,-4.0516,-4.0516,-4.0516,-4.0516,-4.0516,-4.0516,-4.0516,-4.0516,-4.0516,-4.0516,-4.0516,-4.0516,-4.0516,-4.0516,-4.0516,-4.0516,-4.0516,-4.0516,-4.0516,-4.0516,-4.0516,-4.0516,-4.0516,-4.0516,-4.0516,-4.0516,-4.0516,-4.0516,-4.0516,-4.0516,-4.0516,-4.0516,-4.0516,-4.0516,-4.0516,-4.0516,-4.0516,-4.0516,-4.0516,-4.671,-4.621,-4.6056,-4.5902,-4.5864,-4.597,0.0,0.0,0.0,-4.7471,-4.7625,-4.7625,-4.7625,-4.7471,-4.7201,-4.674,-4.7625,-4.8009,-4.6817,-4.6663,-4.7317,-4.9163,-4.8779,-4.8971,-5.0558,-5.0548,-5.046,-5.0511,-4.8832,-4.7799,-4.7788,-4.6347,-4.5322,-4.48,-4.4788,-4.4688,-4.4479,-4.4688,-4.4812,-4.491,-4.5154,-4.5288,-4.5288,-4.5288,-4.5288,-4.5288,-4.5288,-4.5288,-4.5288,-4.5288,-4.5288,-4.5288,-4.5288,-4.5288,-4.5288,-4.5288,-4.5288,-4.5288,-4.5288,-4.5288,-4.5163,-4.4274,-4.3807,-4.3312,-4.1791,-4.0935,-4.0458,-4.0482,-4.0507,-4.0492,-4.05,-4.0492,-4.0484,-4.0484,-4.0484,-4.0492,-4.05,-4.05,-4.0508,-4.0516,-4.0516,-4.0516,-4.0516,-4.0516,-4.0516,-4.0516,-4.0516,-4.0516,-4.0516,-4.0516,-4.0516,-4.0516,-4.0516,-4.0516,-4.0516,-4.0516,-4.0516,-4.0516,-4.0516,-4.0516,-4.0516,-4.0516,-4.0516,-4.0516,-4.0516,-4.0516,-4.0516,-4.0516,-4.0516,-4.0516,-4.0516,-4.0516,-4.9009,-4.8394,-4.7625,-4.6932,-4.674,-4.6586,-4.5893,0.0,-4.5787,-4.5864,0.0,-4.5902,-4.5902,0.0,0.0,-4.5633,-4.524,-4.5086,-4.5671,-4.5748,-4.6672,-4.9125,-4.9317,-4.9625,-5.0596,-4.9961,-4.9757,-5.0472,-4.8865,-4.7843,-4.7788,-4.6882,-4.5894,-4.4838,-4.4788,-4.4776,-4.4751,-4.4776,-4.4946,-4.5246,-4.5267,-4.5288,-4.5288,-4.5288,-4.5288,-4.5288,-4.5288,-4.5288,-4.5288,-4.5288,-4.5288,-4.5288,-4.5288,-4.5288,-4.5288,-4.5288,-4.5288,-4.5288,-4.5288,-4.5288,-4.5163,-4.4274,-4.2985,-4.1629,-4.071,-4.0392,-4.0342,-4.0458,-4.0458,-4.0432,-4.0482,-4.0458,-4.0424,-4.0424,-4.0424,-4.0441,-4.0482,-4.0491,-4.0507,-4.0508,-4.0516,-4.0516,-4.0516,-4.0516,-4.0516,-4.0516,-4.0516,-4.0516,-4.0516,-4.0516,-4.0516,-4.0516,-4.0516,-4.0516,-4.0516,-4.0516,-4.0516,-4.0516,-4.0516,-4.0516,-4.0516,-4.0516,-4.0516,-4.0516,-4.0516,-4.0516,-4.0516,-4.0516,-4.0516,-4.0516,-4.0516,-4.0516,-4.8779,-4.8394,-4.7932,-4.7077,-4.6885,-4.6663,-4.5787,-4.5594,-4.5594,-4.5594,0.0,0.0,0.0,0.0,0.0,0.0,-4.5701,-4.5778,-4.5633,-4.6047,-4.674,-4.7817,-4.7971,-4.8471,-4.9817,-4.9538,-4.9632,-5.0434,-4.8875,-4.7854,-4.7788,-4.6959,-4.6075,-4.5136,-4.5098,-4.5098,-4.5098,-4.491,-4.4969,-4.5277,-4.5109,-4.5109,-4.5288,-4.5288,-4.5288,-4.5288,-4.5288,-4.5288,-4.5288,-4.5288,-4.5288,-4.5288,-4.5288,-4.5288,-4.5288,-4.5288,-4.5288,-4.5288,-4.5288,-4.5288,-4.5163,-4.4274,-4.287,-4.1428,-4.1103,-4.0672,-4.0316,-4.0351,-4.0407,-4.0415,-4.0432,-4.0424,-4.0407,-4.0407,-4.0407,-4.0415,-4.0432,-4.0441,-4.0603,-4.1089,-4.1204,-4.1357,-4.181,-4.113,-4.0516,-4.0516,-4.0516,-4.0516,-4.0516,-4.0516,-4.0516,-4.0516,-4.0516,-4.0516,-4.0516,-4.0516,-4.0516,-4.0516,-4.0516,-4.0516,-4.0516,-4.0516,-4.0516,-4.0516,-4.0516,-4.0516,-4.0516,-4.0516,-4.0516,-4.0516,-4.0516,-4.0516,-4.8971,-4.8808,-4.8529,-4.75,-4.7231,-4.6932,-4.5864,-4.5594,-4.5671,-4.5893,-4.597,0.0,0.0,0.0,-4.597,-4.597,0.0,-4.6317,-4.571,-4.6124,-4.6624,-4.6885,-4.7317,-4.8048,-4.9279,-4.9125,-4.9306,-5.0078,-4.8771,-4.7979,-4.8143,-4.7341,-4.6429,-4.5535,-4.5306,-4.5121,-4.5053,-4.4898,-4.4934,-4.5143,-4.4992,-4.5076,-4.5288,-4.5288,-4.5288,-4.5288,-4.5288,-4.5288,-4.5288,-4.5288,-4.5288,-4.5288,-4.5288,-4.5288,-4.5288,-4.5288,-4.5288,-4.5288,-4.5288,-4.5125,-4.4857,-4.4197,-4.3023,-4.1839,-4.1839,-4.1294,-4.0672,-4.0919,-4.0699,-4.0448,-4.0649,-4.0534,-4.0448,-4.064,-4.0717,-4.0755,-4.1003,-4.1041,-4.1241,-4.1902,-4.2026,-4.2209,-4.2784,-4.1925,-4.1091,-4.0877,-4.0838,-4.0769,-4.0516,-4.0516,-4.0516,-4.0516,-4.0516,-4.0516,-4.0516,-4.0516,-4.0516,-4.0516,-4.0516,-4.0516,-4.0516,-4.0516,-4.0516,-4.0516,-4.0516,-4.0516,-4.0516,-4.0516,-4.0516,-4.0516,-4.0516,-4.0516,-5.0615,-5.0547,-5.0133,-4.8452,-4.8048,-4.7625,-4.5979,-4.5594,-4.5825,-4.6701,-4.6846,-4.7086,-4.7894,-4.7394,-4.6846,-4.6846,-4.6163,0.0,0.0,-4.5633,-4.5932,-4.6817,-4.8317,-4.9356,-4.9394,-4.8625,-4.8462,-4.9196,-4.8457,-4.829,-4.9033,-4.822,-4.724,-4.6088,-4.5267,-4.4688,-4.4425,-4.4676,-4.48,-4.4812,-4.5132,-4.5277,-4.5288,-4.5288,-4.5288,-4.5288,-4.5288,-4.5288,-4.5288,-4.5288,-4.5288,-4.5288,-4.5288,-4.5288,-4.5288,-4.5288,-4.5288,-4.5288,-4.5288,-4.4743,-4.4045,-4.4006,-4.3433,-4.2756,-4.2756,-4.2144,-4.1629,-4.2479,-4.1533,-4.0511,-4.1322,-4.0959,-4.0501,-4.1275,-4.1466,-4.1705,-4.2556,-4.2718,-4.2737,-4.2851,-4.286,-4.286,-4.2899,-4.286,-4.2572,-4.1771,-4.1665,-4.1374,-4.0585,-4.0516,-4.0516,-4.0516,-4.0516,-4.0516,-4.0516,-4.0516,-4.0516,-4.0516,-4.0516,-4.0516,-4.0516,-4.0516,-4.0516,-4.0516,-4.0516,-4.0516,-4.0516,-4.0516,-4.0516,-4.0516,-4.0516,-4.0516,-5.0553,-5.0542,-5.0274,-4.9173,-4.8452,-4.777,-4.6692,-4.6471,-4.6547,-4.6846,-4.7308,-4.7778,-4.8048,-4.7894,-4.7509,-4.7,-4.6663,-4.6278,0.0,-4.5094,-4.5278,-4.674,-4.7394,-4.774,-4.774,-4.7471,-4.7847,-4.9081,-4.8457,-4.8339,-4.9071,-4.8258,-4.7266,-4.6164,-4.5255,-4.4751,-4.4663,-4.4572,-4.4752,-4.5121,-4.5004,-4.5087,-4.5288,-4.5288,-4.5288,-4.5288,-4.5288,-4.5288,-4.5288,-4.5288,-4.5288,-4.5288,-4.5288,-4.5288,-4.5288,-4.5288,-4.5288,-4.5288,-4.5288,-4.5125,-4.4857,-4.4857,-4.4284,-4.3586,-4.3586,-4.3023,-4.2307,-4.202,-4.1963,-4.1877,-4.159,-4.1734,-4.203,-4.2297,-4.2374,-4.246,-4.2737,-4.2785,-4.2976,-4.3522,-4.3636,-4.3789,-4.4373,-4.4488,-4.402,-4.2716,-4.2495,-4.2197,-4.1379,-4.1289,-4.1075,-4.0545,-4.05,-4.0516,-4.0516,-4.0484,-4.0507,-4.0507,-4.0507,-4.0484,-4.0516,-4.0516,-4.0516,-4.0516,-4.0516,-4.0516,-4.0516,-4.0516,-4.0516,-4.0516,-4.0516,-4.0516,-5.05,-5.0489,-5.0287,-4.9458,-4.8854,-4.8221,-4.7463,-4.7289,-4.7366,-4.7703,-4.8183,-4.8654,-4.8923,-4.875,-4.8269,-4.7443,-4.7068,-4.6509,0.0,-4.4932,-4.5047,-4.5893,-4.624,-4.6547,-4.6885,-4.6885,-4.7424,-4.8698,-4.8304,-4.8443,-4.9454,-4.8716,-4.7803,-4.6843,-4.5721,-4.5064,-4.4944,-4.4575,-4.4624,-4.5121,-4.5004,-4.5098,-4.5288,-4.5288,-4.5288,-4.5288,-4.5288,-4.5288,-4.5288,-4.5288,-4.5288,-4.5288,-4.5288,-4.5288,-4.5288,-4.5288,-4.5288,-4.5288,-4.5288,-4.5288,-4.5288,-4.5288,-4.4934,-4.4475,-4.4475,-4.3902,-4.3176,-4.2908,-4.2832,-4.2756,-4.245,-4.2603,-4.287,-4.3176,-4.3252,-4.3329,-4.3634,-4.3673,-4.3825,-4.436,-4.4475,-4.4628,-4.5201,-4.5288,-4.485,-4.3513,-4.3331,-4.3034,-4.2209,-4.212,-4.1946,-4.1417,-4.1113,-4.0792,-4.0531,-4.0482,-4.0458,-4.0458,-4.0458,-4.0482,-4.0492,-4.0492,-4.05,-4.0516,-4.0516,-4.0516,-4.0516,-4.0516,-4.0516,-4.0516,-4.0516,-4.0516]},{"header":{"parameterUnit":"m.s-1","parameterCategory":1,"la1":30.6,"la2":29.2853,"lo1":-89.7004,"lo2":-87.6739,"dy":0.0162,"dx":0.0183,"nx":112,"ny":82,"refTime":"2025-05-16T12:00:00:Z","depth":0,"parameterNumber":3,"parameterNumberName":"V-component_of_WINDS"},"data":[0.0,0.0,0.0,0.0,0.0,0.0,0.0,0.0,0.0,0.0,0.0,0.0,0.0,0.0,0.0,0.0,0.0,0.0,0.0,0.0,0.0,0.0,0.0,0.0,0.0,0.0,0.0,0.0,0.0,0.0,0.0,0.0,0.0,0.0,0.0,0.0,0.0,0.0,0.0,0.0,0.0,0.0,0.0,0.0,0.0,0.0,0.0,0.0,0.0,0.0,0.0,0.0,0.0,0.0,0.0,0.0,0.0,0.0,0.0,0.0,0.0,0.0,0.0,0.0,0.0,0.0,0.0,0.0,0.0,0.0,0.0,0.0,0.0,0.0,0.0,0.0,0.0,0.0,0.0,0.0,0.0,0.0,0.0,0.0,0.0,0.0,0.0,0.0,0.0,0.0,-0.949,-0.9456,-0.9673,-0.9822,-0.9822,-0.9673,-0.9566,-0.9617,0.0,0.0,0.0,0.0,0.0,0.0,0.0,0.0,0.0,0.0,0.0,0.0,0.0,0.0,0.0,0.0,0.0,0.0,0.0,0.0,0.0,0.0,0.0,0.0,0.0,0.0,0.0,0.0,0.0,0.0,0.0,0.0,0.0,0.0,0.0,0.0,0.0,0.0,0.0,0.0,0.0,0.0,0.0,0.0,0.0,0.0,0.0,0.0,0.0,0.0,0.0,0.0,0.0,0.0,0.0,0.0,0.0,0.0,0.0,0.0,0.0,0.0,0.0,0.0,0.0,0.0,0.0,0.0,0.0,0.0,0.0,0.0,0.0,0.0,0.0,0.0,0.0,0.0,0.0,0.0,0.0,0.0,0.0,0.0,0.0,0.0,0.0,0.0,0.0,0.0,0.0,0.0,0.0,0.0,0.0,0.0,0.0,0.0,0.0,0.0,0.0,0.0,0.0,0.0,-0.9168,-0.97,-0.9795,-0.9822,-0.9822,-0.9571,-0.9456,-0.961,0.0,0.0,0.0,0.0,0.0,0.0,0.0,0.0,0.0,0.0,0.0,0.0,0.0,0.0,0.0,0.0,0.0,0.0,0.0,0.0,0.0,0.0,0.0,0.0,0.0,0.0,0.0,0.0,0.0,0.0,0.0,0.0,0.0,0.0,0.0,0.0,0.0,0.0,0.0,0.0,0.0,0.0,0.0,0.0,0.0,0.0,0.0,0.0,0.0,0.0,0.0,0.0,0.0,0.0,0.0,0.0,0.0,0.0,0.0,0.0,0.0,0.0,0.0,0.0,0.0,0.0,0.0,0.0,0.0,0.0,0.0,0.0,0.0,0.0,0.0,0.0,0.0,0.0,0.0,0.0,0.0,0.0,0.0,0.0,0.0,0.0,0.0,0.0,0.0,0.0,0.0,0.0,0.0,0.0,0.0,0.0,0.0,0.0,0.0,0.0,0.0,0.0,0.0,-0.9144,-0.9252,-0.9768,-0.9822,-0.9788,-0.9713,-0.9503,-0.9303,-0.9154,-1.1638,0.0,0.0,0.0,0.0,0.0,0.0,0.0,0.0,0.0,0.0,0.0,0.0,0.0,0.0,0.0,0.0,0.0,0.0,0.0,0.0,0.0,0.0,0.0,0.0,0.0,0.0,0.0,0.0,0.0,0.0,0.0,0.0,0.0,0.0,0.0,0.0,0.0,0.0,0.0,0.0,0.0,0.0,0.0,0.0,0.0,0.0,0.0,0.0,0.0,0.0,0.0,0.0,0.0,0.0,0.0,0.0,0.0,0.0,0.0,0.0,0.0,0.0,0.0,0.0,0.0,0.0,0.0,0.0,0.0,0.0,0.0,0.0,0.0,0.0,0.0,0.0,0.0,0.0,0.0,0.0,0.0,0.0,0.0,0.0,0.0,0.0,0.0,0.0,0.0,0.0,0.0,0.0,0.0,0.0,0.0,0.0,0.0,0.0,0.0,0.0,0.0,0.0,-0.9232,-0.9361,-0.9774,-0.9788,-0.9727,-0.9618,-0.9408,-0.9117,-0.8737,-1.1549,0.0,0.0,0.0,0.0,0.0,0.0,0.0,0.0,0.0,0.0,0.0,0.0,0.0,0.0,0.0,0.0,0.0,0.0,0.0,0.0,0.0,0.0,0.0,0.0,0.0,0.0,0.0,0.0,0.0,0.0,0.0,0.0,0.0,0.0,0.0,0.0,0.0,0.0,0.0,0.0,0.0,0.0,0.0,0.0,0.0,0.0,0.0,0.0,0.0,0.0,0.0,0.0,0.0,0.0,0.0,0.0,0.0,0.0,0.0,0.0,0.0,0.0,0.0,0.0,0.0,0.0,0.0,0.0,0.0,0.0,0.0,0.0,0.0,0.0,0.0,0.0,0.0,0.0,0.0,0.0,0.0,0.0,0.0,0.0,0.0,0.0,0.0,0.0,0.0,0.0,0.0,0.0,0.0,0.0,0.0,0.0,0.0,0.0,0.0,0.0,0.0,0.0,-0.9198,-0.9483,-0.9788,-0.97,-0.9618,-0.9612,-0.9218,-0.8893,-0.8723,-1.1416,0.0,0.0,0.0,0.0,0.0,0.0,0.0,0.0,0.0,0.0,0.0,0.0,0.0,0.0,0.0,0.0,0.0,0.0,0.0,0.0,0.0,0.0,0.0,0.0,0.0,0.0,0.0,0.0,0.0,0.0,0.0,0.0,0.0,0.0,0.0,0.0,0.0,0.0,0.0,0.0,0.0,0.0,0.0,0.0,0.0,0.0,0.0,0.0,0.0,0.0,0.0,0.0,0.0,0.0,0.0,0.0,0.0,0.0,0.0,0.0,0.0,0.0,0.0,0.0,0.0,0.0,0.0,0.0,0.0,0.0,0.0,0.0,0.0,0.0,0.0,0.0,0.0,0.0,0.0,0.0,0.0,0.0,0.0,0.0,0.0,0.0,0.0,0.0,0.0,0.0,0.0,0.0,0.0,0.0,0.0,0.0,0.0,0.0,0.0,0.0,0.0,0.0,-0.9055,-0.932,-0.9523,-0.9585,-0.953,-0.934,-0.9171,-0.8927,-0.8587,0.0,0.0,0.0,0.0,0.0,0.0,0.0,0.0,0.0,0.0,0.0,0.0,0.0,0.0,0.0,0.0,0.0,0.0,0.0,0.0,0.0,0.0,0.0,0.0,0.0,0.0,0.0,0.0,0.0,0.0,0.0,0.0,0.0,0.0,0.0,0.0,0.0,0.0,0.0,0.0,0.0,0.0,0.0,0.0,0.0,0.0,0.0,0.0,0.0,0.0,0.0,0.0,0.0,0.0,0.0,0.0,0.0,0.0,0.0,0.0,0.0,0.0,0.0,0.0,0.0,0.0,0.0,0.0,0.0,0.0,0.0,0.0,0.0,0.0,0.0,0.0,0.0,0.0,0.0,0.0,0.0,0.0,0.0,0.0,0.0,0.0,0.0,0.0,0.0,0.0,0.0,0.0,0.0,0.0,0.0,0.0,0.0,0.0,0.0,0.0,0.0,0.0,-0.8703,-0.8967,-0.9268,-0.9367,-0.9429,-0.9381,-0.9228,-0.9125,-0.8845,-0.8438,0.0,0.0,0.0,0.0,0.0,0.0,0.0,0.0,0.0,0.0,0.0,0.0,0.0,0.0,0.0,0.0,0.0,0.0,0.0,0.0,0.0,0.0,0.0,0.0,0.0,0.0,0.0,0.0,0.0,0.0,0.0,0.0,0.0,0.0,0.0,0.0,0.0,0.0,0.0,0.0,0.0,0.0,0.0,0.0,0.0,0.0,0.0,0.0,0.0,0.0,0.0,0.0,0.0,0.0,0.0,0.0,0.0,0.0,0.0,0.0,0.0,0.0,0.0,0.0,0.0,0.0,0.0,0.0,0.0,0.0,0.0,0.0,0.0,0.0,0.0,0.0,0.0,0.0,0.0,0.0,0.0,0.0,0.0,0.0,0.0,0.0,0.0,0.0,0.0,0.0,0.0,0.0,0.0,0.0,0.0,0.0,0.0,0.0,0.0,0.0,0.0,0.0,-0.8689,-0.8967,-0.9268,-0.9361,-0.9303,-0.9207,-0.9207,-0.8879,-0.8581,0.0,0.0,0.0,0.0,0.0,0.0,0.0,0.0,0.0,0.0,0.0,0.0,0.0,0.0,0.0,0.0,0.0,0.0,0.0,0.0,0.0,0.0,0.0,0.0,0.0,0.0,0.0,0.0,0.0,0.0,0.0,0.0,0.0,0.0,0.0,0.0,0.0,0.0,0.0,0.0,0.0,0.0,0.0,0.0,0.0,0.0,0.0,0.0,0.0,0.0,0.0,0.0,0.0,0.0,0.0,0.0,0.0,0.0,0.0,0.0,0.0,0.0,0.0,0.0,0.0,0.0,0.0,0.0,0.0,0.0,0.0,0.0,0.0,0.0,0.0,0.0,0.0,0.0,0.0,0.0,0.0,0.0,0.0,0.0,0.0,0.0,0.0,0.0,0.0,0.0,0.0,0.0,0.0,0.0,0.0,0.0,0.0,0.0,0.0,0.0,0.0,0.0,0.0,-0.8547,-0.8954,-0.9187,-0.9076,-0.9117,-0.9166,-0.9008,-0.8825,-0.8581,-0.834,0.0,0.0,0.0,0.0,0.0,0.0,0.0,0.0,0.0,0.0,0.0,0.0,0.0,0.0,0.0,0.0,0.0,0.0,0.0,0.0,0.0,0.0,0.0,0.0,0.0,0.0,0.0,0.0,0.0,0.0,0.0,0.0,0.0,0.0,0.0,0.0,0.0,0.0,0.0,0.0,0.0,0.0,0.0,0.0,0.0,0.0,0.0,0.0,0.0,0.0,0.0,0.0,0.0,0.0,0.0,0.0,0.0,0.0,0.0,0.0,0.0,0.0,0.0,0.0,0.0,0.0,0.0,0.0,0.0,0.0,0.0,0.0,0.0,0.0,0.0,0.0,0.0,0.0,0.0,0.0,0.0,0.0,0.0,0.0,0.0,0.0,0.0,0.0,0.0,0.0,0.0,0.0,0.0,0.0,0.0,0.0,0.0,0.0,0.0,0.0,0.0,0.0,-0.8391,-0.8791,-0.9035,-0.8892,-0.9015,-0.9035,-0.8892,-0.8798,-0.856,-0.8201,0.0,0.0,0.0,0.0,0.0,0.0,0.0,0.0,0.0,0.0,0.0,0.0,0.0,0.0,0.0,0.0,0.0,0.0,0.0,0.0,0.0,0.0,0.0,0.0,0.0,0.0,0.0,0.0,0.0,0.0,0.0,0.0,0.0,0.0,0.0,0.0,0.0,0.0,0.0,0.0,0.0,0.0,0.0,0.0,0.0,0.0,0.0,0.0,0.0,0.0,0.0,0.0,0.0,0.0,0.0,0.0,0.0,0.0,0.0,0.0,0.0,0.0,0.0,0.0,0.0,0.0,0.0,0.0,0.0,0.0,0.0,0.0,0.0,0.0,0.0,0.0,0.0,0.0,0.0,0.0,0.0,0.0,0.0,0.0,0.0,0.0,0.0,0.0,0.0,0.0,0.0,0.0,0.0,0.0,0.0,0.0,0.0,0.0,0.0,0.0,0.0,0.0,-0.8269,-0.8615,-0.8885,-0.8885,-0.8885,-0.8885,-0.8885,-0.8784,-0.8506,-0.8035,0.0,0.0,0.0,0.0,0.0,0.0,0.0,0.0,0.0,0.0,0.0,0.0,0.0,0.0,0.0,0.0,0.0,0.0,0.0,0.0,0.0,0.0,0.0,0.0,0.0,0.0,0.0,0.0,0.0,0.0,0.0,0.0,0.0,0.0,0.0,0.0,0.0,0.0,0.0,0.0,0.0,0.0,0.0,0.0,0.0,0.0,0.0,0.0,0.0,0.0,0.0,0.0,0.0,0.0,0.0,0.0,0.0,0.0,0.0,0.0,-0.1408,-0.1959,0.0,0.0,0.0,0.0,0.0,0.0,0.0,0.0,0.0,0.0,0.0,0.0,0.0,0.0,0.0,0.0,0.0,0.0,0.0,0.0,0.0,0.0,0.0,0.0,0.0,0.0,0.0,0.0,0.0,0.0,0.0,0.0,0.0,0.0,0.0,0.0,0.0,0.0,0.0,0.0,-0.8404,-0.8507,-0.8657,-0.8885,-0.8885,-0.8885,-0.8885,-0.8689,-0.8445,-0.8235,-0.7889,0.0,0.0,0.0,0.0,0.0,0.0,0.0,0.0,0.0,0.0,0.0,0.0,0.0,0.0,0.0,0.0,0.0,0.0,0.0,0.0,0.0,0.0,0.0,0.0,0.0,0.0,0.0,0.0,0.0,0.0,0.0,0.0,0.0,0.0,0.0,0.0,0.0,0.0,0.0,0.0,0.0,0.0,0.0,0.0,0.0,0.0,0.0,0.0,0.0,0.0,0.0,0.0,0.0,0.0,0.0,0.0,0.0,0.0,0.0,-0.0686,-0.0911,0.0,0.0,0.0,0.0,0.0,0.0,0.0,0.0,0.0,0.0,0.0,0.0,0.0,0.0,0.0,0.0,0.0,0.0,0.0,0.0,0.0,0.0,0.0,0.0,0.0,0.0,0.0,0.0,0.0,0.0,0.0,0.0,0.0,0.0,0.0,0.0,0.0,0.0,0.0,0.0,-0.8137,-0.8207,-0.8352,-0.865,-0.8587,-0.8588,-0.877,-0.8554,-0.8316,-0.8167,-0.7868,0.0,0.0,0.0,0.0,0.0,0.0,0.0,0.0,0.0,0.0,0.0,0.0,0.0,0.0,0.0,0.0,0.0,0.0,0.0,0.0,0.0,0.0,0.0,0.0,0.0,0.0,0.0,0.0,0.0,0.0,0.0,0.0,0.0,0.0,0.0,0.0,0.0,0.0,0.0,0.0,0.0,0.0,0.0,0.0,0.0,0.0,0.0,0.0,0.0,0.0,0.0,0.0,0.0,0.1008,0.0829,0.0589,0.0591,0.0413,0.0059,0.0116,0.0058,-0.0059,-0.1098,0.0,0.0,0.0,0.0,0.0,0.0,0.0,0.0,0.0,0.0,0.0,0.0,0.0,0.0,0.0,0.0,0.0,0.0,0.0,0.0,0.0,0.0,-0.7419,-0.7529,-0.7421,-0.7385,-0.7386,0.0,0.0,0.0,0.0,0.0,0.0,0.0,0.0,0.0,0.0,0.0,-0.7731,-0.7781,-0.7931,-0.8291,-0.8154,-0.817,-0.8501,-0.832,-0.8164,-0.7985,-0.786,-0.7645,0.0,0.0,0.0,0.0,0.0,0.0,0.0,0.0,0.0,0.0,0.0,0.0,0.0,0.0,0.0,0.0,0.0,0.0,0.0,0.0,0.0,0.0,0.0,0.0,0.0,0.0,0.0,0.0,0.0,0.0,0.0,0.0,0.7869,0.797,0.0,0.0,0.0,0.0,0.0,0.0,0.0,0.0,0.0,0.0,0.0,0.0,0.0,0.0929,0.1001,0.1016,0.1016,0.1002,0.103,0.0968,0.0943,0.0956,0.0776,0.0412,0.0411,0.0,0.0,-0.0173,0.0,0.0,0.0,0.0,0.0,0.0,0.0,0.0,0.0,0.0,0.0,0.0,0.0,0.0,0.0,0.0,0.0,0.0,0.0,0.0,0.0,0.0,-0.7238,-0.7221,-0.7232,-0.7232,-0.7199,-0.7316,-0.7343,-0.7167,-0.7107,-0.6991,0.0,0.0,0.0,0.0,0.0,0.0,-0.7476,-0.7522,-0.754,-0.7765,-0.7775,-0.7762,-0.7834,-0.7898,-0.7942,-0.7929,-0.7816,-0.7787,-0.7726,-0.7321,0.0,0.0,0.0,0.0,0.0,0.0,0.0,0.0,0.0,0.0,0.0,0.0,0.0,0.0,0.0,0.0,0.0,0.0,0.0,0.0,0.0,0.0,0.0,0.0,0.0,0.0,0.0,0.0,0.0,0.9645,0.9424,0.9274,0.8828,0.8174,0.0,0.0,0.0,0.0,0.0,0.0,0.0,0.0,0.0,0.2596,0.183,0.1489,0.1573,0.1584,0.1584,0.1574,0.1534,0.1471,0.1271,0.1268,0.1022,0.0716,0.071,0.0642,0.046,0.0115,0.0,-0.0057,0.0,0.0,0.0,0.0,-0.1567,-0.1679,-0.2351,-0.2574,-0.2678,-0.3236,0.0,0.0,0.0,0.0,0.0,0.0,0.0,-0.4974,-0.5076,-0.5115,-0.5198,-0.5198,-0.5704,-0.6204,-0.6204,-0.6756,-0.7239,-0.7038,-0.7008,-0.6933,-0.6602,-0.6649,0.0,0.0,0.0,-0.6917,-0.7269,-0.7119,-0.7076,-0.7481,-0.7351,-0.7301,-0.758,-0.7559,-0.7529,-0.7529,-0.7465,-0.7413,-0.7337,-0.7294,-0.7126,0.0,0.0,0.0,0.0,0.0,0.0,0.0,0.0,0.0,0.0,0.0,0.0,0.0,0.0,0.0,0.0,0.0,0.0,0.0,0.0,0.0,0.0,0.0,0.0,0.0,0.0,0.0,0.0,1.0331,1.0412,1.0188,1.0392,0.9927,0.0,0.0,0.0,0.0,0.0,0.0,0.6,0.4934,0.4222,0.3913,0.2953,0.231,0.1977,0.1977,0.1977,0.1977,0.1977,0.1849,0.1596,0.1577,0.1322,0.1013,0.1,0.0986,0.0857,0.0344,0.0115,0.0114,0.0,0.0,0.0,0.0,0.0,-0.0112,-0.1009,-0.1344,-0.1453,-0.226,-0.2736,-0.2937,-0.2844,0.0,0.0,0.0,0.0,-0.3468,-0.357,-0.358,-0.358,-0.358,-0.4306,-0.4923,-0.4923,-0.5648,-0.6373,-0.6781,-0.6909,-0.6828,-0.6511,-0.6553,0.0,-0.6697,-0.6721,-0.676,-0.6992,-0.6757,-0.6728,-0.7087,-0.6856,-0.6821,-0.7187,-0.7098,-0.7087,-0.7087,-0.7137,-0.7156,-0.7052,-0.721,-0.7124,-0.6725,0.0,0.0,0.0,0.0,0.0,0.0,0.0,0.0,0.0,0.0,0.0,0.0,0.0,0.0,0.0,0.0,0.0,0.0,0.0,0.0,0.0,0.0,0.0,0.0,0.0,0.0,0.0,0.0,0.0,1.0473,1.0609,0.0,0.0,0.0,0.0,0.7644,0.7659,0.7246,0.5953,0.5825,0.5227,0.3913,0.3853,0.3216,0.2038,0.1977,0.1977,0.1977,0.1977,0.1962,0.1873,0.1871,0.1721,0.1383,0.1382,0.1197,0.0899,0.0514,0.0399,0.0337,0.0112,0.0,0.0,0.0,0.0,0.0,-0.0056,-0.0112,-0.0112,-0.0168,-0.0886,-0.169,-0.1689,-0.2506,0.0,0.0,-0.3476,-0.3575,-0.358,-0.358,-0.358,-0.358,-0.3636,-0.3692,-0.3692,-0.3748,-0.4394,-0.6562,-0.6877,-0.6752,-0.6616,0.0,-0.6344,-0.6404,-0.6426,-0.6442,-0.6453,-0.6551,-0.6578,-0.6475,-0.6448,-0.6399,-0.6344,-0.6571,-0.6712,-0.6712,-0.6949,-0.715,-0.7173,-0.7064,-0.693,-0.6779,-0.6557,0.0,0.0,0.0,0.0,0.0,0.0,0.0,0.0,0.0,0.0,0.0,0.0,0.0,0.0,0.0,0.0,0.0,0.0,0.0,0.0,0.0,0.0,0.0,0.0,0.0,0.0,0.0,0.0,1.0507,1.0792,0.0,1.0304,1.0304,1.0099,0.9482,0.9444,0.9212,0.8789,0.7835,0.7077,0.6523,0.4818,0.3674,0.3202,0.2407,0.1977,0.1977,0.1956,0.1941,0.1869,0.1832,0.1745,0.1667,0.1649,0.1579,0.1459,0.1129,0.0902,0.0673,0.0393,0.028,0.0224,0.0056,0.0,0.0,0.0,0.0,0.0,0.0,-0.0279,-0.0555,-0.0555,-0.0888,-0.1221,-0.1221,-0.1226,-0.1288,-0.1288,-0.1288,-0.1288,-0.1288,-0.1887,-0.2423,-0.2423,-0.3055,-0.3835,-0.4671,-0.4695,-0.4579,-0.4446,-0.4375,-0.4278,-0.4203,-0.4893,-0.5153,-0.4547,-0.5048,-0.5427,-0.5391,-0.5327,-0.5542,-0.6112,-0.6321,-0.6429,-0.6297,-0.6461,-0.6537,-0.6503,-0.6601,-0.6614,-0.6484,-0.6436,-0.6257,0.0,0.0,0.0,0.0,0.0,0.0,0.0,0.0,0.0,0.0,0.0,0.0,0.0,0.0,0.0,0.0,0.0,0.0,0.0,0.0,0.0,0.0,0.0,0.0,0.0,1.0466,1.0683,1.0582,1.0968,1.1063,1.0616,1.0616,1.0602,1.05,1.0405,1.031,1.0209,0.9281,0.8482,0.7922,0.6202,0.4794,0.3937,0.3081,0.2401,0.196,0.1941,0.1861,0.184,0.18,0.1778,0.1824,0.1804,0.1795,0.1795,0.157,0.1346,0.1177,0.0729,0.0561,0.0561,0.0224,0.0112,0.0112,0.0056,0.0,0.0,0.0,0.0,0.0,0.0,0.0,0.0,0.0,0.0,0.0,0.0,0.0,0.0,0.0,-0.0604,-0.1191,-0.1191,-0.1824,-0.2388,-0.2373,-0.2947,-0.3396,-0.3264,-0.3237,-0.316,-0.307,-0.3748,-0.4038,-0.34,-0.3867,-0.4278,-0.4252,-0.4201,-0.4422,-0.4993,-0.5142,-0.5151,-0.504,-0.5147,-0.5165,-0.5133,-0.5284,-0.5325,-0.5165,-0.5156,-0.5081,-0.4902,0.0,0.0,0.0,0.0,0.0,0.0,0.0,0.0,0.0,0.0,0.0,0.0,0.0,0.0,0.0,0.0,0.0,0.0,0.0,0.0,0.0,0.0,0.0,1.0236,1.0534,1.0724,1.0724,1.1118,1.1212,1.0778,1.0799,1.0759,1.0521,1.0493,1.0365,1.0011,0.999,0.9354,0.7983,0.7917,0.663,0.4057,0.3999,0.33,0.1991,0.193,0.1898,0.1783,0.1782,0.1823,0.1795,0.1795,0.1795,0.1795,0.1795,0.1795,0.1739,0.1121,0.0897,0.0897,0.0561,0.0393,0.0336,0.0112,0.0,0.0,0.0,0.0,0.0,0.0,0.0,0.0,0.0,0.0,0.0,0.0,0.0,0.0,0.0,0.0,0.0,0.0,0.0,0.0,0.0,-0.1758,-0.3305,-0.3305,-0.3208,-0.3123,-0.312,-0.312,0.0,-0.309,-0.3131,-0.3155,-0.3141,-0.3133,-0.3108,-0.3,-0.2997,-0.2997,-0.2994,-0.2997,-0.3071,-0.3178,-0.3213,-0.3132,-0.2994,-0.279,-0.2747,-0.2815,0.0,0.0,0.0,0.0,0.0,0.0,0.0,0.0,0.0,0.0,0.0,0.0,0.0,0.0,0.0,0.0,0.0,0.0,0.0,0.0,0.0,1.0419,1.058,1.0127,1.046,1.0758,1.0806,1.109,1.1179,1.105,1.0982,1.0799,1.067,1.0555,1.0412,1.0229,1.0107,0.9793,0.9275,0.841,0.7551,0.6813,0.5835,0.4699,0.3372,0.3274,0.2754,0.1782,0.1817,0.1804,0.1795,0.1795,0.1795,0.1795,0.1795,0.1795,0.1739,0.1346,0.1177,0.1177,0.0841,0.0617,0.0393,0.0336,0.0168,0.0,0.0,0.0,0.0,0.0,0.0,0.0,0.0,0.0,0.0,0.0,0.0,0.0,0.0,0.0,0.0,0.0,0.0,0.0,0.0,-0.0508,-0.0914,-0.0914,-0.0911,-0.0904,-0.0891,-0.1531,-0.1765,-0.0962,-0.1535,-0.1998,-0.1912,-0.1907,-0.217,-0.2849,-0.2972,-0.298,-0.2939,-0.2975,-0.2986,-0.2961,-0.299,-0.2981,-0.2936,-0.2771,-0.2725,0.0,0.0,0.0,0.0,0.0,0.0,0.0,0.0,0.0,0.0,0.0,0.0,0.0,0.0,0.0,0.0,0.0,0.0,0.0,0.0,0.0,0.0,1.0983,1.1126,1.0813,1.0937,1.1047,1.1144,1.1282,1.1372,1.1234,1.1221,1.1083,1.0738,1.0636,1.0466,1.0202,1.0038,0.9916,0.9829,0.9086,0.8471,0.7917,0.7018,0.5678,0.3874,0.3752,0.3061,0.1821,0.1804,0.1795,0.1795,0.1795,0.1795,0.1795,0.1795,0.1795,0.1795,0.0,0.0,0.0,0.0,0.0893,0.061,0.0444,0.0276,0.0165,0.0055,0.0,0.0,0.0,0.0,0.0,0.0,0.0,0.0,0.0,0.0,0.0,0.0,0.0,0.0,0.0,0.0,0.0,0.0,0.0,0.0,0.0,0.0,0.0,0.0,-0.0539,-0.0729,-0.0095,-0.0564,-0.0886,-0.0824,-0.0821,-0.1045,-0.1616,-0.1722,0.0,0.0,0.0,-0.1717,-0.1682,-0.1696,0.0,0.0,0.0,0.0,0.0,0.0,0.0,0.0,-0.3293,-0.3674,0.0,0.0,0.0,0.0,0.0,0.0,0.0,0.0,0.0,0.0,0.0,0.0,0.0,0.0,0.0,0.0,1.1493,1.1738,1.1925,1.1747,1.1625,1.1557,1.1657,1.1599,1.1345,1.1468,1.1403,1.0784,1.0683,1.0487,1.0011,0.997,0.0,0.0,0.0,0.9262,0.8083,0.7916,0.661,0.4217,0.3925,0.3186,0.2018,0.185,0.1795,0.1795,0.1795,0.1795,0.1795,0.1795,0.1795,0.1795,0.1795,0.1795,0.1739,0.1458,0.1165,0.0929,0.0602,0.0,0.0,0.0107,0.0,0.0,0.0,0.0,0.0,0.0,0.0,0.0,0.0,0.0,0.0,0.0,0.0,0.0,0.0,0.0,0.0,0.0,0.0,0.0,0.0,0.0,0.0,0.0,0.0,0.0,0.0,0.0,0.0,0.0,0.0,0.0,0.0,0.0,0.0,0.0,0.0,0.0,0.0,0.0,0.0,0.0,0.0,0.0,0.0,-0.0852,-0.0808,-0.0045,-0.1638,-0.2377,0.0,0.0,0.0,0.0,0.0,0.0,0.0,0.0,0.0,0.0,0.0,0.0,0.0,0.0,0.0,1.1589,1.2133,1.2551,1.2589,1.2489,1.2292,1.1962,1.1806,1.1792,1.1857,1.1478,1.1195,1.0939,1.0561,1.027,0.9997,0.9869,0.9849,0.9822,0.9822,0.9647,0.9287,0.9261,0.8348,0.667,0.568,0.0,0.3245,0.2242,0.1795,0.1795,0.1795,0.1795,0.1795,0.1795,0.1795,0.1795,0.1795,0.1795,0.1795,0.1739,0.1498,0.1203,0.1148,0.0811,0.0373,0.032,0.016,0.0,0.0,0.0,0.0,0.0,0.0,0.0,0.0,0.0,0.0,0.0,0.0,0.0,0.0,0.0,0.0,0.0,0.0,0.0,0.0,0.0,0.0,0.0,0.0,0.0,0.0,0.0,0.0,0.0,0.0,0.0,0.0,0.0,0.0,0.0,0.0,0.0,0.0,0.0,0.0,0.0,0.0,0.0,0.0,-0.018,-0.018,-0.0045,-0.1112,-0.1212,0.0,0.0,0.0,0.0,0.0,0.0,0.0,0.0,0.0,0.0,0.0,1.0715,1.1066,0.0,1.1877,1.2311,1.2743,1.2958,1.2982,1.2879,1.2665,1.2185,1.2094,1.2013,1.1896,1.1754,1.1388,1.0913,1.0566,1.0218,0.9944,0.9863,0.9822,0.9822,0.9754,0.968,0.9612,0.9456,0.8724,0.738,0.6699,0.541,0.358,0.2968,0.2354,0.1795,0.1795,0.1795,0.1795,0.1795,0.1795,0.1794,0.1778,0.1782,0.1793,0.1778,0.1698,0.1455,0.1337,0.1107,0.0779,0.0623,0.0416,0.0207,0.0205,0.0103,0.0,0.0,0.0,0.0,0.0,0.0,0.0,0.0,0.0,0.0,0.0,0.0,0.0,0.0,0.0,0.0,0.0,0.0,0.0,0.0,0.0,0.0,0.0,0.0,0.0,0.0,0.0,0.0,0.0,0.0,0.0,0.0,0.0,0.0,0.0,0.0,0.0,0.0,0.0,0.0,0.0,0.0,0.0,0.0,-0.0494,-0.0456,0.0,0.0,0.0,0.0,0.0,0.0,0.0,0.993,1.0032,1.031,1.0622,1.0988,1.1648,1.1958,1.234,1.3021,1.3122,1.3128,1.3141,1.3068,1.2861,1.246,1.2371,1.2297,1.1995,1.1996,1.1705,1.0946,1.0621,1.0286,0.9829,0.9822,0.9808,0.9781,0.9673,0.9585,0.9523,0.933,0.8684,0.7686,0.731,0.6089,0.425,0.3804,0.308,0.213,0.1906,0.1795,0.1795,0.1795,0.1791,0.1783,0.1814,0.1816,0.1775,0.1805,0.1722,0.1693,0.1461,0.1282,0.1162,0.096,0.0707,0.0454,0.0404,0.0252,0.005,0.0,0.0,0.0,0.0,0.0,0.0,0.0,0.0,0.0,0.0,0.0,0.0,0.0,0.0,0.0,0.0,0.0,0.0,0.0,0.0,0.0,0.0,0.0,0.0,0.0,0.0,0.0,0.0,0.0,0.0,0.0,0.0,0.0,0.0,0.0,0.0,0.0,0.0,0.0,0.0,0.0,0.0,0.0,0.0,0.0,0.9958,0.9646,0.9523,0.9842,0.9815,0.9741,0.0,1.0324,1.0466,1.0636,1.1016,1.1468,1.1924,1.2335,1.2821,1.3037,1.3229,1.3327,1.3124,1.2962,1.279,1.2774,1.2774,1.271,1.2548,1.2185,1.1716,1.1091,1.0681,1.0286,0.9829,0.9822,0.9761,0.9639,0.9618,0.9483,0.9262,0.9228,0.9033,0.8739,0.7604,0.6982,0.6649,0.4529,0.3525,0.3357,0.2242,0.1795,0.1795,0.1795,0.1779,0.1809,0.1805,0.179,0.1714,0.1711,0.1692,0.1718,0.1663,0.1437,0.1213,0.1162,0.096,0.0707,0.0454,0.0404,0.0303,0.005,0.0,0.0,0.0,0.0,0.0,0.0,0.0,0.0,0.0,0.0,0.0,0.0,0.0,0.0,0.0,0.0,0.0,0.0,0.0,0.0,0.0,0.0,0.0,0.0,0.0,0.0,0.0,0.0,0.0,0.0,0.0,0.0,0.0,0.0,0.0,0.0,0.0,0.0,0.0,0.0,0.0,0.0,0.0,0.0,0.9666,0.9666,0.9754,0.968,0.9768,0.9917,1.01,1.0263,1.046,1.0785,1.107,1.1454,1.1988,1.2501,1.2813,1.2905,1.321,1.3271,1.2986,1.2881,1.2774,1.2774,1.2743,1.2645,1.2637,1.2347,1.1925,1.1371,1.0949,1.0501,1.0126,0.9883,0.9754,0.9612,0.9523,0.9374,0.9214,0.9069,0.8994,0.8885,0.838,0.7765,0.7043,0.6093,0.492,0.3525,0.2298,0.1785,0.1823,0.1823,0.175,0.1722,0.1759,0.1743,0.168,0.168,0.1725,0.1712,0.1641,0.1526,0.1415,0.1415,0.1263,0.1011,0.091,0.0757,0.0555,0.0303,0.0252,0.0201,0.005,0.0,0.0,0.0,0.0,0.0,0.0,0.0,0.0,0.0,0.0,0.0,0.0,0.0,0.0,0.0,0.0,0.0,0.0,0.0,0.0,0.0,0.0,0.0,0.0,0.0,0.0,0.0,0.0,0.0,0.0,0.0,0.0,0.0,0.0,0.0,0.0,0.0,0.0,0.0,0.0,0.0,0.9537,0.9646,0.9754,0.9551,0.972,0.9876,0.9916,1.0168,1.0432,1.0758,1.1036,1.1434,1.2016,1.2516,1.279,1.2804,1.3162,1.3246,1.2889,1.2774,1.2774,1.2774,1.2678,1.2612,1.2499,1.2337,1.2025,1.1471,1.1103,1.0725,1.0308,1.0084,0.9873,0.9551,0.9511,0.936,0.9096,0.8988,0.8885,0.8885,0.8885,0.8436,0.7598,0.6927,0.5532,0.3525,0.2342,0.1825,0.1804,0.1795,0.1719,0.169,0.1722,0.1708,0.165,0.165,0.165,0.1647,0.1625,0.1617,0.1617,0.1617,0.1465,0.1314,0.1213,0.1061,0.0858,0.0606,0.0453,0.035,0.0148,0.0049,0.0,0.0,0.0,0.0,0.0,0.0,0.0,0.0,0.0,0.0,0.0,0.0,0.0,0.0,0.0,0.0,0.0,0.0,0.0,0.0,0.0,0.0,0.0,0.0,0.0,0.0,0.0,0.0,0.0,0.0,0.0,0.0,0.0,0.0,0.0,0.0,0.0,0.0,0.0,0.0,0.9734,0.9503,0.9337,0.97,0.9713,0.9659,0.9795,1.0168,1.0487,1.05,1.0975,1.153,1.1959,1.2436,1.279,1.2804,1.3162,1.3246,1.2889,1.2774,1.2774,1.2774,1.2678,1.2499,1.2328,1.215,1.184,1.1353,1.1277,1.0967,1.0368,1.0405,1.0134,0.9453,0.9524,0.937,0.8892,0.8885,0.8885,0.8885,0.8885,0.8885,0.8768,0.6478,0.4749,0.3522,0.2313,0.1805,0.1802,0.1718,0.1689,0.1715,0.1715,0.1644,0.1618,0.1618,0.1618,0.1618,0.1617,0.1617,0.1617,0.1617,0.1617,0.1516,0.1263,0.1213,0.1112,0.0858,0.0598,0.0393,0.0393,0.0194,0.0,0.0,0.0,0.0,0.0,0.0,0.0,0.0,0.0,0.0,0.0,0.0,0.0,0.0,0.0,0.0,0.0,0.0,0.0,0.0,0.0,0.0,0.0,0.0,0.0,0.0,0.0,0.0,0.0,0.0,0.0,0.0,0.0,0.0,0.0,0.0,0.0,0.0,0.0,0.0,0.9408,0.9415,0.949,0.9646,0.9713,0.9761,0.9808,1.0019,1.0229,1.0331,1.0588,1.092,1.12,1.1698,1.2047,1.2076,1.2612,1.2946,1.2649,1.2714,1.2774,1.2774,1.2572,1.2369,1.2312,1.2142,1.1894,1.1663,1.1216,1.0974,1.0967,1.0457,1.0009,0.9736,0.9631,0.9363,0.8885,0.8885,0.8885,0.8885,0.8885,0.8885,0.883,0.726,0.5886,0.4673,0.3447,0.248,0.1743,0.1733,0.1659,0.1632,0.1632,0.1626,0.1617,0.1617,0.1617,0.1617,0.1617,0.1617,0.1617,0.1617,0.1617,0.1566,0.1516,0.1465,0.1411,0.1145,0.0987,0.0829,0.0476,0.0329,0.0232,0.0046,0.0,0.0,0.0,0.0,0.0,0.0,0.0,0.0,0.0,0.0,0.0,0.0,0.0,0.0,0.0,0.0,0.0,0.0,0.0,0.0,0.0,0.0,0.0,0.0,0.0,0.0,0.0,0.0,0.0,0.0,0.0,0.0,0.0,0.0,0.0,0.0,0.0,0.0,0.934,0.9462,0.9618,0.9673,0.9754,0.9822,0.9822,0.9876,1.0017,1.0175,1.0351,1.0568,1.0819,1.126,1.1722,1.1909,1.2406,1.2756,1.272,1.2802,1.2905,1.2774,1.258,1.2377,1.2312,1.2142,1.1963,1.1792,1.1405,1.1193,1.1191,1.0724,1.0208,0.9817,0.9716,0.9419,0.8885,0.8885,0.8885,0.8885,0.8885,0.8885,0.8878,0.7607,0.6608,0.5827,0.4518,0.3331,0.2281,0.2266,0.199,0.1617,0.1617,0.1617,0.1617,0.1617,0.1617,0.1617,0.1617,0.1617,0.1617,0.1617,0.1617,0.1617,0.1617,0.1609,0.1547,0.138,0.1264,0.1099,0.0745,0.0598,0.0456,0.018,0.0135,0.0135,0.0,0.0,0.0,0.0,0.0,0.0,0.0,0.0,0.0,0.0,0.0,0.0,0.0,0.0,0.0,0.0,0.0,0.0,0.0,0.0,0.0,0.0,0.0,0.0,0.0,0.0,0.0,0.0,0.0,0.0,0.0,0.0,0.0,0.0,0.0,0.0,0.953,0.9612,0.9652,0.9788,0.9822,0.9822,0.9822,0.9869,0.9977,0.9977,1.0263,1.0507,0.0,1.1087,1.1586,1.2155,1.2536,1.2825,1.2998,1.31,1.3027,1.279,1.267,1.2483,1.232,1.2134,1.1947,1.1776,1.176,1.1567,1.1035,1.1081,1.0669,0.9659,0.9731,0.9485,0.8885,0.8885,0.8885,0.8885,0.8885,0.8885,0.8878,0.7574,0.6964,0.684,0.5561,0.4394,0.3357,0.3248,0.2622,0.1667,0.1617,0.1617,0.1617,0.1617,0.1617,0.1617,0.1617,0.1617,0.1617,0.1617,0.1617,0.1617,0.1617,0.1596,0.1622,0.162,0.1384,0.1111,0.1109,0.091,0.0672,0.0448,0.0403,0.0359,0.009,0.0,0.0,0.0,0.0,0.0,0.0,0.0,0.0,0.0,0.0,0.0,0.0,0.0,0.0,0.0,0.0,0.0,0.0,0.0,0.0,0.0,0.0,0.0,0.0,0.0,0.0,0.0,0.0,0.0,0.0,0.0,0.0,0.0,0.0,0.0,0.9591,0.9686,0.9774,0.9815,0.9822,0.9822,0.9822,0.9849,0.9876,0.9876,0.9937,1.0039,1.0132,1.0497,1.0895,1.1233,1.1913,1.246,1.2414,1.2843,1.3027,1.279,1.2564,1.2353,1.2312,1.2028,1.1768,1.1581,1.1336,1.1252,1.1382,1.0912,1.0439,0.9998,0.9843,0.9485,0.8885,0.8885,0.8885,0.8885,0.8885,0.8885,0.8878,0.8451,0.7731,0.6881,0.6412,0.5533,0.4354,0.3531,0.3022,0.2723,0.1918,0.1617,0.1617,0.1617,0.1617,0.1617,0.1617,0.1617,0.1617,0.1617,0.1617,0.1617,0.1617,0.1611,0.1596,0.155,0.1479,0.1363,0.114,0.1036,0.0941,0.0672,0.0628,0.0583,0.0359,0.0314,0.0224,0.0045,0.0,0.0,0.0,0.0,0.0,0.0,0.0,0.0,0.0,0.0,0.0,0.0,0.0,0.0,0.0,0.0,0.0,0.0,0.0,0.0,0.0,0.0,0.0,0.0,0.0,0.0,0.0,0.0,0.0,0.0,0.0,0.0,0.9686,0.9761,0.9822,0.9822,0.9822,0.9802,0.9741,0.9774,0.9781,0.9652,0.9734,0.9849,0.9869,1.0195,1.0586,1.1089,1.1823,1.236,1.2573,1.2985,1.3149,1.297,1.2637,1.2393,1.2312,1.2052,1.1776,1.1516,1.1323,1.1259,1.1273,1.0907,1.0482,1.0006,0.9861,0.9485,0.8885,0.8885,0.8885,0.8885,0.8885,0.8851,0.8832,0.8682,0.821,0.7495,0.7355,0.6592,0.5477,0.483,0.4329,0.3773,0.2723,0.232,0.2221,0.1768,0.1617,0.1617,0.1617,0.1617,0.1617,0.1617,0.1617,0.1614,0.16,0.1587,0.1568,0.152,0.1497,0.1432,0.1263,0.1211,0.1166,0.0941,0.0896,0.0807,0.0583,0.0448,0.0314,0.0045,0.0,0.0,0.0,0.0,0.0,0.0,0.0,0.0,0.0,0.0,0.0,0.0,0.0,0.0,0.0,0.0,0.0,0.0,0.0,0.0,0.0,0.0,0.0,0.0,0.0,0.0,0.0,0.0,0.0,0.0,0.0,0.0,0.9788,0.9822,0.9822,0.9822,0.9822,0.9781,0.9639,0.972,0.9741,0.9469,0.9612,0.9795,0.9795,1.0025,1.0486,1.1192,0.0,1.2315,1.2874,1.3157,1.3238,1.3076,1.2743,1.2458,1.2288,1.2077,1.1825,1.1492,1.1443,1.1297,1.1045,1.0948,1.058,0.9824,0.9761,0.9485,0.8885,0.8885,0.8885,0.8885,0.8885,0.8804,0.8703,0.8554,0.8404,0.8313,0.8106,0.749,0.6587,0.6437,0.5832,0.4876,0.3673,0.3224,0.3073,0.2019,0.1617,0.1617,0.1617,0.1617,0.1617,0.1617,0.1617,0.1611,0.158,0.1553,0.1525,0.149,0.1461,0.1396,0.1392,0.1391,0.1346,0.1166,0.1122,0.1077,0.0807,0.0583,0.0359,0.0045,0.0045,0.009,0.0,0.0045,0.0045,0.0,0.0,0.0,0.0,0.0,0.0,0.0,0.0,0.0,0.0,0.0,0.0,0.0,0.0,0.0,0.0,0.0,0.0,0.0,0.0,0.0,0.0,0.0,0.0,0.0,0.0,0.0,0.9815,0.9822,0.9822,0.9822,0.9822,0.9781,0.9639,0.972,0.0,0.0,0.9612,0.9646,0.9646,0.9788,1.0012,1.0472,1.0969,1.1548,1.2315,1.2525,1.2656,0.0,1.2572,1.228,1.2093,1.1784,1.15,1.1289,1.1143,1.1037,1.0972,1.0826,1.0453,0.9816,0.9596,0.9265,0.8885,0.8885,0.8885,0.8885,0.8885,0.8804,0.8703,0.8554,0.8404,0.8313,0.8106,0.7889,0.764,0.6786,0.6287,0.5932,0.3977,0.3224,0.3073,0.2019,0.1617,0.1617,0.1617,0.1617,0.1617,0.1617,0.1617,0.1611,0.158,0.1568,0.1551,0.1497,0.1476,0.1467,0.1397,0.1391,0.1391,0.1346,0.1346,0.1301,0.1077,0.0807,0.0538,0.009,0.0314,0.0449,0.0045,0.0179,0.0269,0.0045,0.0,0.0,0.0,0.0,0.0,0.0,0.0,0.0,0.0,0.0,0.0,0.0,0.0,0.0,0.0,0.0,0.0,0.0,0.0,0.0,0.0,0.0,0.0,0.0,0.0,0.0,0.9822,0.9822,0.9822,0.9822,0.9768,0.9673,0.9523,0.0,0.0,0.0,0.9496,0.9585,0.9503,0.9673,0.0,1.012,1.0601,1.1164,1.1687,1.2071,1.2303,1.2433,1.225,1.2125,1.2036,1.1711,1.1419,1.124,1.1062,1.0923,1.0834,1.0634,1.0257,0.9816,0.9541,0.9217,0.8885,0.8885,0.8885,0.8885,0.8885,0.8818,0.8587,0.8513,0.8357,0.8147,0.8022,0.7988,0.7939,0.7441,0.7235,0.7086,0.5482,0.4529,0.3924,0.2823,0.207,0.1617,0.1617,0.1617,0.1617,0.1617,0.1606,0.1587,0.1557,0.1536,0.1515,0.147,0.1457,0.1453,0.1395,0.1391,0.1391,0.1391,0.1391,0.1346,0.1122,0.0986,0.0808,0.0449,0.0538,0.0628,0.0404,0.0404,0.0359,0.0224,0.009,0.0,0.0,0.0,0.0,0.0,0.0,0.0,0.0,0.0,0.0,0.0,0.0,0.0,0.0,0.0,0.0,0.0,0.0,0.0,0.0,0.0,0.0,0.0,0.0,0.0,0.9822,0.9822,0.9822,0.9822,0.9713,0.9571,0.9415,0.9408,0.0,0.9248,0.9367,0.9517,0.9361,0.9523,0.9741,0.0,1.0239,1.0707,1.1213,1.1648,1.1929,1.2057,1.2067,0.0,1.1979,1.1646,1.1378,1.1232,1.1029,1.0842,1.0704,1.0476,1.0257,0.9926,0.9651,0.932,0.8995,0.894,0.8885,0.8885,0.8885,0.8777,0.8479,0.8479,0.8323,0.7988,0.7988,0.7988,0.7988,0.7988,0.7988,0.7889,0.6836,0.5882,0.4977,0.3676,0.2672,0.1918,0.1667,0.1617,0.1617,0.1617,0.1596,0.1566,0.1535,0.1505,0.1475,0.1399,0.1391,0.1391,0.1391,0.1391,0.1391,0.1391,0.1391,0.1346,0.1122,0.1122,0.1077,0.0762,0.0762,0.0807,0.0717,0.0628,0.0538,0.0493,0.0269,0.009,0.0135,0.0045,0.0,0.009,0.0045,0.0,0.0,0.0044,0.0044,0.0,0.0042,0.0041,0.0,0.0,0.0,0.0,0.0,0.0,0.0,0.0,0.0,0.0,0.0,0.0,0.9822,0.9822,0.9822,0.9822,0.9713,0.9571,0.9415,0.0,0.9503,0.9268,0.9344,0.9354,0.9262,0.9255,0.0,0.0,0.0,1.0053,1.1013,1.1291,1.1505,1.1758,0.0,0.0,1.1833,1.1468,1.124,1.1224,1.0907,1.0712,1.0688,1.0696,1.0531,1.0257,0.9926,0.9651,0.9382,0.9051,0.8885,0.8885,0.8885,0.8777,0.8479,0.8479,0.8323,0.7988,0.7988,0.7988,0.7988,0.7988,0.7988,0.7889,0.6836,0.6337,0.5982,0.3977,0.3123,0.2924,0.1918,0.1617,0.1617,0.1617,0.1596,0.1566,0.1535,0.1505,0.1475,0.1399,0.1391,0.1391,0.1391,0.1391,0.1391,0.1391,0.1391,0.1346,0.1122,0.1256,0.1256,0.0807,0.1031,0.1211,0.0762,0.0896,0.0941,0.0717,0.0493,0.0448,0.0628,0.0269,0.009,0.0359,0.0135,0.0,0.0,0.0224,0.0268,0.0,0.0223,0.0262,0.0,0.0,0.0,0.0,0.0,0.0,0.0,0.0,0.0,0.0,0.0,0.0,0.9822,0.989,0.9876,0.9842,0.9646,0.9456,0.9395,0.0,0.93,0.9234,0.933,0.9334,0.9234,0.9207,0.9282,0.0,0.0,0.0,1.0218,1.0721,1.1056,1.1171,1.1672,1.1931,1.1792,1.1443,1.1135,1.0915,1.0769,1.0688,1.0688,1.0688,1.0586,1.0312,1.0147,0.9871,0.9382,0.9272,0.9106,0.8885,0.8885,0.8777,0.8479,0.8479,0.8323,0.7988,0.7988,0.7988,0.7988,0.7988,0.7988,0.7939,0.754,0.6986,0.6287,0.5432,0.4329,0.3123,0.2723,0.212,0.1617,0.1617,0.1596,0.1618,0.1557,0.1506,0.1455,0.146,0.1449,0.1391,0.1391,0.1391,0.1391,0.1391,0.1391,0.1391,0.1301,0.1346,0.1346,0.1166,0.1256,0.1346,0.1166,0.1122,0.1077,0.0941,0.0717,0.0628,0.0672,0.0538,0.0449,0.0583,0.0225,0.0,0.0,0.0089,0.0179,0.0221,0.0176,0.0175,0.0258,0.0085,0.0,0.0,0.0,0.0,0.0,0.0,0.0,0.0,0.0,0.0,0.9748,0.9835,0.9896,0.9849,0.9632,0.9435,0.0,0.9334,0.9252,0.9117,0.9245,0.932,0.9123,0.9089,0.9137,0.0,0.0,0.9528,0.984,1.0497,1.0906,1.0914,1.1506,1.1809,1.1703,1.1362,1.1021,1.0712,1.0688,1.0688,1.0688,1.0688,1.0641,1.0421,1.0366,1.0036,0.9541,0.943,0.921,0.8885,0.8885,0.8777,0.8479,0.8479,0.8323,0.7988,0.7988,0.7988,0.7988,0.7988,0.7988,0.7988,0.7988,0.754,0.6836,0.6537,0.5432,0.4078,0.3773,0.2972,0.207,0.207,0.1844,0.1622,0.1583,0.1521,0.1452,0.1464,0.1452,0.1391,0.1391,0.1391,0.1391,0.1391,0.1391,0.1391,0.1391,0.1391,0.1391,0.1391,0.1391,0.1391,0.1391,0.1301,0.1211,0.1211,0.0986,0.0852,0.0896,0.0807,0.0717,0.0807,0.0449,0.0179,0.0132,0.0134,0.0179,0.0264,0.0176,0.0175,0.0261,0.0086,0.0,0.0,0.0,0.0,0.0,0.0,0.0,0.0,0.0,0.0,0.9721,0.9822,0.9822,0.9822,0.9713,0.9564,0.9415,0.9496,0.9476,0.8979,0.9178,0.9293,0.8939,0.8885,0.8988,0.9187,0.0,0.0,1.0006,1.0655,1.1164,1.1292,1.1731,1.189,1.1533,1.1183,1.0891,1.0704,1.0688,1.0688,1.0688,1.0688,1.0688,1.0688,1.0421,1.0147,0.9816,0.9541,0.921,0.8885,0.8885,0.8777,0.8479,0.8479,0.8323,0.7988,0.7988,0.7988,0.7988,0.7988,0.7988,0.7988,0.7988,0.7988,0.7839,0.6786,0.6387,0.6232,0.5177,0.4074,0.3173,0.3173,0.2489,0.1577,0.1607,0.1553,0.1474,0.1399,0.1391,0.1391,0.1391,0.1391,0.1391,0.1391,0.1391,0.1391,0.1391,0.1391,0.1391,0.1391,0.1391,0.1391,0.1391,0.1391,0.1391,0.1391,0.1211,0.1166,0.1346,0.0986,0.0807,0.1077,0.0852,0.0628,0.0403,0.0403,0.0269,0.0,0.0269,0.0267,0.0,0.0,0.0,0.0,0.0,0.0,0.0,0.0,0.0,0.0,0.0,0.0,0.9478,0.9741,0.9842,0.9598,0.9564,0.9544,0.9344,0.9347,0.9354,0.8952,0.9089,0.9164,0.8919,0.8885,0.9022,0.9266,0.9347,0.0,0.0,0.0,1.0669,1.0914,1.1343,1.1573,1.133,1.1102,1.0891,1.0704,1.0688,1.0688,1.0688,1.0688,1.0688,1.0688,1.0641,1.0421,1.0147,0.9816,0.9596,0.9485,0.932,0.9159,0.8955,0.8955,0.8689,0.8201,0.8201,0.814,0.7988,0.7988,0.7988,0.7988,0.7988,0.7988,0.7939,0.764,0.7036,0.6337,0.6032,0.5177,0.4175,0.3425,0.2962,0.2546,0.1836,0.1551,0.1505,0.1475,0.1452,0.1391,0.1391,0.1391,0.1391,0.1391,0.1391,0.1391,0.1391,0.1391,0.1391,0.1391,0.1391,0.1391,0.1391,0.1391,0.1391,0.1391,0.1346,0.1346,0.1391,0.1256,0.1211,0.1301,0.1122,0.0803,0.044,0.04,0.0357,0.0264,0.0178,0.0179,0.0267,0.0266,0.0174,0.0,0.0167,0.0163,0.0,0.0,0.0,0.0,0.0,0.0,0.0,0.9585,0.9734,0.9449,0.9456,0.9456,0.9268,0.933,0.9293,0.8946,0.9055,0.9166,0.8912,0.8885,0.8946,0.9184,0.9306,0.9507,0.9811,1.0165,1.0577,1.1004,1.1165,1.1171,1.1174,1.1005,1.0818,1.0704,1.0688,1.0688,1.0688,1.0688,1.0688,1.0688,1.0688,1.0586,1.0312,1.0091,0.9926,0.9816,0.9651,0.9425,0.9215,0.9219,0.8917,0.8422,0.832,0.8214,0.0,0.8015,0.7988,0.7988,0.7988,0.7988,0.7988,0.7988,0.759,0.6986,0.6986,0.6282,0.5277,0.463,0.3857,0.2984,0.192,0.155,0.152,0.149,0.1467,0.1449,0.1393,0.1391,0.1391,0.1391,0.1391,0.1391,0.1391,0.1391,0.1391,0.1391,0.1391,0.1391,0.1391,0.1391,0.1391,0.1391,0.1381,0.1418,0.1418,0.1418,0.1418,0.1418,0.1295,0.1071,0.0705,0.049,0.0402,0.0397,0.0134,0.0135,0.0403,0.0356,0.035,0.0256,0.0338,0.0291,0.0161,0.0041,0.0,0.0,0.0,0.0,0.0,0.9367,0.9374,0.9354,0.9367,0.934,0.9234,0.9316,0.0,0.8939,0.9042,0.9096,0.8974,0.8892,0.8892,0.8912,0.9191,0.949,0.9859,1.0244,1.0714,1.1395,1.1007,1.082,1.1166,1.0899,1.0688,1.0688,1.0688,1.0688,1.0688,1.0688,1.0688,1.0688,1.0688,1.0586,1.0312,1.0312,1.0139,0.9856,0.9801,0.963,0.9332,0.9268,0.9061,0.8678,0.8422,0.8313,0.8241,0.8099,0.7988,0.7988,0.7988,0.7988,0.7988,0.7988,0.7988,0.7988,0.7988,0.7335,0.6487,0.6337,0.4868,0.2987,0.1914,0.1549,0.1517,0.1489,0.1479,0.1471,0.1397,0.1391,0.1391,0.1391,0.1391,0.1391,0.1391,0.1391,0.1391,0.1391,0.1391,0.1391,0.1391,0.1391,0.1391,0.1391,0.141,0.1391,0.1391,0.1388,0.1388,0.1389,0.1415,0.1343,0.1121,0.0717,0.0448,0.0403,0.018,0.018,0.0403,0.0396,0.0479,0.0697,0.0468,0.0337,0.038,0.0129,0.0,0.0,0.0,0.0,0.8861,0.0,0.9327,0.9103,0.9211,0.9313,0.0,0.9103,0.9157,0.8919,0.0,0.9015,0.9089,0.9015,0.8959,0.9239,0.9239,0.9344,0.9641,1.0042,1.0479,1.0906,1.0819,1.082,1.1166,1.0899,1.0688,1.0688,1.0688,1.0688,1.0688,1.0688,1.0688,1.0688,1.0688,1.0696,1.0641,1.0421,1.0304,1.0278,1.0054,0.9838,0.9586,0.9579,0.9272,0.8678,0.8626,0.8404,0.8092,0.8002,0.7988,0.7988,0.7988,0.7988,0.7988,0.7988,0.7988,0.7988,0.7988,0.7839,0.7335,0.5727,0.427,0.2987,0.1914,0.1534,0.149,0.1483,0.1464,0.1399,0.1392,0.1391,0.1391,0.1391,0.1391,0.1391,0.1391,0.1391,0.1391,0.1391,0.1391,0.1391,0.1391,0.1391,0.1391,0.1391,0.141,0.1391,0.1391,0.1371,0.1323,0.1388,0.1396,0.1366,0.1343,0.1077,0.0852,0.0628,0.0583,0.0583,0.0628,0.0748,0.0784,0.0697,0.0639,0.0552,0.0389,0.0347,0.0219,0.0,0.0,0.0,0.8768,0.9103,0.9239,0.9076,0.9157,0.9232,0.9076,0.0,0.0,0.0,0.0,0.0,0.9042,0.8988,0.8939,0.915,0.9225,0.9388,0.9761,0.9937,1.0186,1.0543,1.0561,1.0616,1.0882,1.0747,1.0688,1.0688,1.0688,1.0688,1.0688,1.0688,1.0688,1.0688,1.0688,1.0688,1.0688,1.0586,1.0483,1.055,1.0387,1.0198,0.9907,0.9873,0.9511,0.8874,0.878,0.8475,0.814,0.8015,0.7988,0.7988,0.7988,0.7988,0.7988,0.7988,0.7988,0.7988,0.7988,0.7988,0.7739,0.6082,0.516,0.4347,0.2762,0.2557,0.268,0.1758,0.1468,0.1453,0.1393,0.1391,0.1391,0.1391,0.1391,0.1391,0.1391,0.1391,0.1391,0.1391,0.1391,0.1391,0.1391,0.1391,0.1385,0.1416,0.1389,0.137,0.137,0.1315,0.1317,0.1386,0.1403,0.1418,0.1389,0.1301,0.1122,0.0896,0.0762,0.0762,0.0896,0.0968,0.0958,0.0827,0.0868,0.0785,0.053,0.0441,0.0311,0.0179,0.0045,0.0,0.885,0.9076,0.9234,0.9187,0.9193,0.9207,0.918,0.0,0.0,0.0,0.0,0.0,0.0,0.8974,0.8981,0.8946,0.9239,0.9551,0.9869,0.989,0.9937,1.0212,1.031,1.0356,1.0473,1.0635,1.0688,1.0688,1.0688,1.0688,1.0688,1.0688,1.0688,1.0688,1.0688,1.0688,1.0688,1.0688,1.068,1.0655,1.0623,1.0436,1.0171,0.9978,0.9615,0.9092,0.8838,0.8584,0.8272,0.8092,0.7988,0.7988,0.7988,0.7988,0.7988,0.7988,0.7988,0.7988,0.7988,0.7988,0.7839,0.6736,0.6405,0.6042,0.398,0.3906,0.4166,0.2451,0.1845,0.1742,0.1801,0.1613,0.1436,0.1615,0.1525,0.1391,0.1391,0.1391,0.1391,0.1391,0.1391,0.1391,0.1391,0.1525,0.1649,0.1619,0.1714,0.1734,0.1734,0.1729,0.1782,0.1819,0.1809,0.183,0.1837,0.1703,0.1569,0.1389,0.1031,0.0896,0.1116,0.1101,0.1048,0.1045,0.111,0.1031,0.0762,0.0583,0.0493,0.0448,0.018,0.0045,0.897,0.9289,0.9286,0.9035,0.9062,0.918,0.9001,0.0,0.0,0.0,0.0,0.0,0.0,0.918,0.9164,0.9293,0.9462,0.9598,0.9666,0.9761,0.9895,1.007,1.0244,1.0356,1.0473,1.0635,1.0688,1.0688,1.0688,1.0688,1.0688,1.0688,1.0688,1.0688,1.0688,1.0688,1.0688,1.0688,1.0615,1.0423,1.0314,1.0188,0.9925,0.9752,0.9472,0.9176,0.8919,0.8613,0.8371,0.8095,0.7988,0.7988,0.7988,0.7988,0.7988,0.7988,0.7988,0.7988,0.7988,0.7988,0.7839,0.6736,0.6405,0.6155,0.4918,0.461,0.4571,0.417,0.3373,0.2877,0.3667,0.264,0.1615,0.2464,0.2016,0.1391,0.1391,0.1391,0.1391,0.1391,0.1391,0.1391,0.1391,0.2106,0.2685,0.2677,0.3278,0.3746,0.3746,0.3775,0.3764,0.3757,0.3776,0.3813,0.3838,0.3132,0.2643,0.2643,0.1792,0.129,0.1354,0.1329,0.1328,0.1347,0.133,0.1256,0.1031,0.0986,0.0896,0.0628,0.0448,0.0359,0.8903,0.9144,0.9282,0.9089,0.9225,0.9361,0.9211,0.9117,0.0,0.0,0.0,0.0,0.0,0.9103,0.9289,0.9462,0.9564,0.9639,0.9713,0.9781,0.9801,0.9745,0.9888,1.0032,1.0125,1.0358,1.0531,1.0688,1.0688,1.0688,1.0688,1.0688,1.0688,1.0688,1.0688,1.0688,1.0688,1.0688,1.0647,1.0574,1.0485,1.0306,1.0082,0.9949,0.966,0.9187,0.908,0.8783,0.8379,0.8287,0.8137,0.7988,0.7988,0.7988,0.7988,0.7988,0.7988,0.7988,0.7988,0.7988,0.7939,0.7441,0.7248,0.7082,0.5981,0.5931,0.6145,0.5465,0.4165,0.3222,0.4076,0.3266,0.2464,0.3444,0.331,0.2953,0.2953,0.2953,0.2953,0.2953,0.2953,0.2953,0.2953,0.3355,0.3653,0.3612,0.3964,0.4196,0.4196,0.4205,0.4214,0.4262,0.427,0.4286,0.4283,0.389,0.3221,0.2151,0.166,0.1384,0.1415,0.1383,0.1384,0.1415,0.1384,0.1346,0.1256,0.1166,0.1031,0.0896,0.0672,0.0583,0.8863,0.9069,0.9221,0.9255,0.0,0.9483,0.9401,0.9239,0.9083,0.0,0.0,0.0,0.0,0.9083,0.935,0.9564,0.9639,0.97,0.9802,0.9795,0.9673,0.9415,0.9636,0.9788,0.9791,1.0091,1.0421,1.0696,1.0688,1.0688,1.0688,1.0688,1.0688,1.0688,1.0688,1.0688,1.0688,1.0688,1.0688,1.0688,1.0647,1.0469,1.0212,1.0171,0.9823,0.9286,0.9236,0.8931,0.8478,0.8428,0.8237,0.7988,0.7988,0.7988,0.7988,0.7988,0.7988,0.7988,0.7988,0.7988,0.7988,0.7988,0.7988,0.7869,0.7015,0.7208,0.7523,0.6583,0.5101,0.4012,0.4764,0.4113,0.3444,0.4425,0.4465,0.4287,0.4287,0.4287,0.4287,0.4287,0.4287,0.4287,0.4287,0.4469,0.4621,0.4546,0.4749,0.488,0.488,0.488,0.4908,0.4949,0.4954,0.4865,0.4643,0.4648,0.389,0.2195,0.2061,0.2061,0.2061,0.1882,0.1749,0.1749,0.1525,0.1391,0.1391,0.1256,0.1166,0.1166,0.0896,0.0807,0.899,0.92,0.9241,0.9327,0.933,0.9275,0.9354,0.9157,0.0,0.9166,0.0,0.0,0.8885,0.9171,0.9415,0.9585,0.972,0.9808,0.9822,0.9707,0.9564,0.9401,0.9538,0.9666,0.9776,1.0091,1.0421,1.0696,1.0688,1.0688,1.0688,1.0688,1.0688,1.0688,1.0688,1.0688,1.0688,1.0688,1.0688,1.0688,1.0526,1.0355,1.0204,1.0033,0.9803,0.9575,0.9335,0.9031,0.8775,0.8478,0.8237,0.7988,0.7988,0.7988,0.7988,0.7988,0.7988,0.7988,0.7988,0.7988,0.7988,0.7988,0.7988,0.7988,0.7925,0.7918,0.7901,0.757,0.6773,0.6101,0.6719,0.5536,0.4425,0.5359,0.4914,0.4287,0.4287,0.4287,0.4287,0.4287,0.4287,0.4287,0.4287,0.5003,0.5581,0.5575,0.6328,0.6902,0.6902,0.6902,0.6902,0.6915,0.6915,0.6561,0.5675,0.5586,0.5181,0.4154,0.4109,0.4109,0.4109,0.3266,0.2777,0.2777,0.1882,0.1391,0.1391,0.1391,0.1391,0.1391,0.1166,0.1077,0.8834,0.9022,0.9055,0.9262,0.913,0.0,0.0,0.915,0.9062,0.9028,0.8974,0.8967,0.9055,0.9164,0.935,0.9442,0.951,0.9551,0.9551,0.9503,0.9408,0.9316,0.9298,0.9483,0.9776,0.9926,1.0202,1.0641,1.0688,1.0688,1.0688,1.0688,1.0688,1.0688,1.0688,1.0688,1.0688,1.0688,1.0688,1.0688,1.0517,1.0339,1.0204,0.9973,0.9786,0.9575,0.9484,0.9278,0.9031,0.8775,0.8478,0.8237,0.8088,0.7988,0.7988,0.7988,0.7988,0.7988,0.7988,0.7988,0.7988,0.7988,0.7988,0.7988,0.7988,0.786,0.774,0.7631,0.7178,0.6828,0.7037,0.6163,0.5403,0.634,0.6296,0.6024,0.6024,0.6024,0.6024,0.6024,0.6024,0.6024,0.6024,0.634,0.6561,0.6561,0.6871,0.7098,0.7098,0.7098,0.7098,0.7098,0.7098,0.6959,0.6605,0.6561,0.6428,0.6068,0.4954,0.4287,0.4287,0.3979,0.3757,0.3757,0.34,0.3221,0.3218,0.2598,0.233,0.233,0.1613,0.1301,0.8768,0.8885,0.8905,0.9062,0.0,0.0,0.9062,0.9083,0.9069,0.9015,0.8967,0.8967,0.9069,0.918,0.9248,0.935,0.9347,0.9381,0.9381,0.934,0.933,0.9221,0.9173,0.9266,0.9769,0.9816,1.0036,1.0633,1.0688,1.0688,1.0688,1.0688,1.0688,1.0688,1.0688,1.0688,1.0688,1.0688,1.0688,1.0688,1.0517,1.0339,1.0204,0.9973,0.9786,0.9575,0.9575,0.9434,0.9187,0.8924,0.8577,0.8237,0.8088,0.7988,0.7988,0.7988,0.7988,0.7988,0.7988,0.7988,0.7988,0.7988,0.7988,0.7988,0.7988,0.7868,0.7658,0.7611,0.7414,0.7204,0.7105,0.6605,0.6296,0.6959,0.7098,0.7098,0.7098,0.7098,0.7098,0.7098,0.7098,0.7098,0.7098,0.7098,0.7098,0.7098,0.7098,0.7098,0.7098,0.7098,0.7098,0.7098,0.7098,0.7098,0.7098,0.7098,0.7098,0.7098,0.5891,0.5181,0.5181,0.4914,0.4736,0.4736,0.4465,0.4287,0.4287,0.3667,0.3358,0.3314,0.233,0.1877,0.8823,0.8885,0.8885,0.8885,0.0,0.0,0.8885,0.8885,0.8981,0.918,0.9035,0.8885,0.8885,0.9055,0.9207,0.9207,0.9337,0.9374,0.9374,0.9303,0.9207,0.9207,0.9028,0.9161,0.9761,0.9816,1.0036,1.0633,1.0688,1.0688,1.0688,1.0688,1.0688,1.0688,1.0688,1.0688,1.0688,1.0688,1.0688,1.0688,1.0517,1.0339,1.0204,0.9973,0.9786,0.9575,0.9575,0.9434,0.9187,0.8924,0.8478,0.7988,0.7988,0.7988,0.7988,0.7988,0.7988,0.7988,0.7988,0.7988,0.7988,0.7988,0.7988,0.7988,0.7988,0.788,0.778,0.7638,0.7489,0.7333,0.7132,0.7098,0.7098,0.7098,0.7098,0.7098,0.7098,0.7098,0.7098,0.7098,0.7098,0.7098,0.7098,0.7098,0.7098,0.7098,0.7098,0.7098,0.7098,0.7098,0.7098,0.7098,0.7098,0.7098,0.7098,0.7098,0.7098,0.7098,0.7098,0.7098,0.7098,0.6207,0.5719,0.5719,0.4781,0.4332,0.4332,0.4332,0.4332,0.4287,0.3358,0.2878,0.8823,0.8885,0.8885,0.8885,0.0,0.0,0.0,0.8885,0.0,0.0,0.8967,0.8885,0.8885,0.8974,0.9001,0.9001,0.9042,0.9069,0.9069,0.9028,0.9001,0.9001,0.8912,0.9051,0.9485,0.9706,0.9981,1.0366,1.0586,1.0688,1.0688,1.0688,1.0688,1.0688,1.0688,1.0688,1.0688,1.0688,1.0688,1.0688,1.0387,1.0217,1.0204,0.9973,0.9786,0.9575,0.9575,0.9575,0.9426,0.8973,0.8478,0.7988,0.7988,0.7988,0.7988,0.7988,0.7988,0.7988,0.7988,0.7988,0.7988,0.7988,0.7988,0.7988,0.7988,0.7862,0.7651,0.7611,0.7414,0.7152,0.7105,0.7098,0.7098,0.7098,0.7098,0.7098,0.7098,0.7098,0.7098,0.7098,0.7098,0.7098,0.7098,0.7098,0.7098,0.7098,0.7098,0.7098,0.7098,0.7098,0.7098,0.7098,0.7098,0.7098,0.7098,0.7098,0.7098,0.7098,0.7098,0.7098,0.7098,0.6827,0.6694,0.6694,0.6428,0.6245,0.6245,0.5625,0.527,0.527,0.4336,0.3876,0.8885,0.8885,0.8885,0.8885,0.8885,0.8885,0.8885,0.0,0.8885,0.8885,0.8885,0.8885,0.8885,0.8885,0.8885,0.8885,0.8885,0.8885,0.8885,0.8885,0.8885,0.8885,0.8885,0.9051,0.9382,0.9651,0.9926,1.0257,1.0531,1.0688,1.0688,1.0688,1.0688,1.0688,1.0688,1.0688,1.0688,1.0688,1.0688,1.0688,1.0404,1.0233,1.0204,0.99,0.973,0.9575,0.9575,0.9476,0.9278,0.8924,0.8478,0.7988,0.7988,0.7988,0.7988,0.7988,0.7988,0.7988,0.7988,0.7988,0.7988,0.7988,0.7988,0.7988,0.7988,0.7834,0.7597,0.7597,0.738,0.7098,0.7098,0.7098,0.7098,0.7098,0.7098,0.7098,0.7098,0.7098,0.7098,0.7098,0.7098,0.7098,0.7098,0.7098,0.7098,0.7098,0.7098,0.7098,0.7098,0.7098,0.7098,0.7098,0.7098,0.7098,0.7098,0.7098,0.7098,0.7098,0.7098,0.7098,0.7098,0.7098,0.7098,0.7098,0.7098,0.7098,0.7098,0.6517,0.6251,0.6251,0.527,0.4847,0.8885,0.8885,0.8885,0.8885,0.8885,0.8885,0.8885,0.8885,0.8885,0.8885,0.8885,0.8885,0.8885,0.8885,0.8885,0.8885,0.8885,0.8885,0.8885,0.8885,0.8885,0.8885,0.8885,0.8995,0.9327,0.9651,0.9926,1.0257,1.0531,1.0688,1.0688,1.0688,1.0688,1.0688,1.0688,1.0688,1.0688,1.0688,1.068,1.0664,1.0493,1.0314,1.018,0.9795,0.9591,0.9575,0.9575,0.9327,0.8825,0.8825,0.8478,0.8038,0.7988,0.7988,0.7988,0.7988,0.7988,0.7988,0.7988,0.7988,0.7988,0.7988,0.7988,0.7988,0.7988,0.7834,0.7597,0.7597,0.738,0.7098,0.7098,0.7098,0.7098,0.7098,0.7098,0.7098,0.7098,0.7098,0.7098,0.7098,0.7098,0.7098,0.7098,0.7098,0.7098,0.7098,0.7098,0.7098,0.7098,0.7098,0.7098,0.7098,0.7098,0.7098,0.7098,0.7098,0.7098,0.7098,0.7098,0.7098,0.7098,0.7098,0.7098,0.7098,0.7098,0.7098,0.7098,0.7098,0.7098,0.7098,0.6207,0.5835,0.8885,0.8885,0.0,0.8885,0.8885,0.8885,0.8885,0.8885,0.8885,0.8885,0.8885,0.8885,0.8885,0.8885,0.8885,0.8885,0.8885,0.8885,0.8885,0.8885,0.8885,0.8885,0.8885,0.894,0.8995,0.9485,0.9816,0.9926,1.0421,1.0688,1.0688,1.0688,1.0688,1.0688,1.0688,1.0688,1.0688,1.0688,1.0623,1.0431,1.0306,1.0171,0.9941,0.9868,0.9754,0.9575,0.9575,0.9426,0.908,0.8874,0.8627,0.8287,0.8088,0.7988,0.7988,0.7988,0.7988,0.7988,0.7988,0.7988,0.7988,0.7988,0.7988,0.7988,0.7988,0.7834,0.7597,0.7597,0.738,0.7098,0.7098,0.7098,0.7098,0.7098,0.7098,0.7098,0.7098,0.7098,0.7098,0.7098,0.7098,0.7098,0.7098,0.7098,0.7098,0.7098,0.7098,0.7098,0.7098,0.7098,0.7098,0.7098,0.7098,0.7098,0.7098,0.7098,0.7098,0.7098,0.7098,0.7098,0.7098,0.7098,0.7098,0.7098,0.7098,0.7098,0.7098,0.7098,0.7098,0.7098,0.6871,0.6814,0.8885,0.0,0.0,0.8885,0.0,0.8885,0.8885,0.8885,0.8885,0.8885,0.8885,0.8885,0.8885,0.8885,0.8885,0.8885,0.8885,0.8885,0.8885,0.8885,0.8885,0.8885,0.8885,0.8885,0.8885,0.943,0.9816,0.9816,1.0366,1.0688,1.0688,1.0688,1.0688,1.0688,1.1227,1.15,1.15,1.1467,1.1423,1.1352,1.0454,0.9933,0.9762,0.9762,0.9713,0.9575,0.9575,0.9434,0.9187,0.8924,0.8627,0.8386,0.8088,0.7988,0.7988,0.7988,0.7988,0.7988,0.7988,0.7988,0.7988,0.7988,0.7988,0.7975,0.7901,0.7773,0.7584,0.7509,0.7319,0.7098,0.7098,0.7098,0.7098,0.7098,0.7098,0.7098,0.7098,0.7098,0.7098,0.7098,0.7098,0.7098,0.7098,0.7098,0.7098,0.7098,0.7098,0.7098,0.7098,0.7098,0.7098,0.7098,0.7098,0.7098,0.7098,0.7098,0.7098,0.7098,0.7098,0.7098,0.7098,0.7098,0.7098,0.7098,0.7098,0.7098,0.7098,0.7098,0.7098,0.7098,0.7098,0.7098,0.8851,0.0,0.8851,0.8878,0.8885,0.0,0.8885,0.8885,0.8885,0.8885,0.8885,0.8885,0.8885,0.8885,0.8885,0.8885,0.8885,0.8885,0.8885,0.8885,0.8885,0.8885,0.8885,0.8885,0.8885,0.943,0.9816,0.9816,1.0366,1.0688,1.0688,1.0688,1.0688,1.0688,1.1819,1.2417,1.2417,1.2461,1.2486,1.2304,1.0647,0.9762,0.9575,0.9575,0.9575,0.9575,0.9575,0.9484,0.9236,0.8981,0.8726,0.8428,0.8187,0.8038,0.7988,0.7988,0.7988,0.7988,0.7988,0.7988,0.7988,0.7988,0.7975,0.7928,0.7848,0.7692,0.7536,0.7453,0.7258,0.7098,0.7098,0.7098,0.7098,0.7098,0.7098,0.7098,0.7098,0.7098,0.7098,0.7098,0.7098,0.7098,0.7098,0.7098,0.7098,0.7098,0.7098,0.7098,0.7098,0.7098,0.7098,0.7098,0.7098,0.7098,0.7098,0.7098,0.7098,0.7098,0.7098,0.7098,0.7098,0.7098,0.7098,0.7098,0.7098,0.7098,0.7098,0.7098,0.7098,0.7098,0.7098,0.7098,0.0,0.0,0.8771,0.0,0.8885,0.8885,0.0,0.0,0.8885,0.8885,0.8885,0.8885,0.8885,0.8885,0.8885,0.8885,0.8885,0.8885,0.8885,0.8885,0.8885,0.8885,0.8885,0.8885,0.8885,0.943,0.9816,0.9816,1.0366,1.0688,1.0688,1.0688,1.0688,1.0688,1.1819,1.2417,1.2417,1.3352,1.3211,1.1931,1.039,0.9648,0.9575,0.9575,0.9575,0.9575,0.9575,0.9583,0.9533,0.9236,0.8981,0.8726,0.8428,0.8187,0.7988,0.7988,0.7988,0.7988,0.7988,0.7988,0.7988,0.7988,0.7901,0.7834,0.7821,0.7617,0.7446,0.7419,0.7258,0.7098,0.7098,0.7098,0.7098,0.7098,0.7098,0.7098,0.7098,0.7098,0.7098,0.7098,0.7098,0.7098,0.7098,0.7098,0.7098,0.7098,0.7098,0.7098,0.7098,0.7098,0.7098,0.7098,0.7098,0.7098,0.7098,0.7098,0.7098,0.7098,0.7098,0.7098,0.7098,0.7098,0.7098,0.7098,0.7098,0.7098,0.7098,0.7098,0.7098,0.7098,0.7098,0.7098,0.873,0.8771,0.8797,0.0,0.8885,0.8885,0.8885,0.8885,0.8885,0.8885,0.8885,0.8885,0.8885,0.8885,0.8885,0.8885,0.8811,0.8838,0.8871,0.8791,0.875,0.8865,0.8811,0.8845,0.8871,0.943,0.9816,0.9816,1.0366,1.0647,1.055,1.0639,1.0599,1.0457,1.2181,1.3085,1.2963,1.3931,1.3424,1.1494,1.0347,0.9721,0.9575,0.9575,0.9575,0.9575,0.9575,0.9575,0.9583,0.9335,0.9031,0.8775,0.8528,0.8237,0.7988,0.7988,0.7934,0.7923,0.7961,0.7934,0.7874,0.7961,0.7887,0.7794,0.7719,0.7543,0.7398,0.7265,0.7146,0.7098,0.7098,0.7098,0.7098,0.7098,0.7098,0.7098,0.7098,0.7098,0.7098,0.7098,0.7098,0.7098,0.7098,0.7098,0.7098,0.7098,0.7098,0.7098,0.7098,0.7098,0.7098,0.7098,0.7098,0.7098,0.7098,0.7098,0.7098,0.7098,0.7098,0.7098,0.7098,0.7098,0.7098,0.7098,0.7098,0.7098,0.7098,0.7098,0.7098,0.7098,0.7098,0.7098,0.0,0.0,0.8832,0.8817,0.8858,0.8885,0.0,0.8885,0.8885,0.8885,0.8885,0.8885,0.8885,0.8885,0.8885,0.8885,0.8845,0.8798,0.8817,0.8682,0.8608,0.8798,0.8757,0.8757,0.8817,0.9318,0.964,0.9694,1.0202,1.0447,1.0371,1.0485,1.0436,1.022,1.2415,1.3569,1.3397,1.4013,1.344,1.1688,1.0421,0.9754,0.9575,0.9575,0.9575,0.9575,0.9575,0.9575,0.9575,0.9385,0.913,0.8874,0.8684,0.8386,0.8088,0.8088,0.8013,0.7882,0.7948,0.7914,0.7889,0.7955,0.786,0.774,0.7631,0.7468,0.7285,0.7125,0.7098,0.7098,0.7098,0.7098,0.7098,0.7098,0.7098,0.7098,0.7098,0.7098,0.7098,0.7098,0.7098,0.7098,0.7098,0.7098,0.7098,0.7098,0.7098,0.7098,0.7098,0.7098,0.7098,0.7098,0.7098,0.7098,0.7098,0.7098,0.7098,0.7098,0.7098,0.7098,0.7098,0.7098,0.7098,0.7098,0.7098,0.7098,0.7098,0.7098,0.7098,0.7098,0.7098,0.7098,0.0,0.8499,0.0,0.8682,0.8832,0.0,0.0,0.8885,0.8885,0.8885,0.8885,0.8885,0.8885,0.8885,0.8885,0.8885,0.8878,0.8824,0.8743,0.871,0.8648,0.852,0.8628,0.8716,0.8723,0.9047,0.9309,0.9524,0.9701,0.9975,1.0176,1.0237,1.0237,1.0212,1.2277,1.3408,1.3397,1.3301,1.3231,1.306,1.0749,0.9583,0.9575,0.9575,0.9575,0.9575,0.9575,0.9575,0.9575,0.9575,0.9426,0.9187,0.9187,0.8832,0.8386,0.8386,0.823,0.7982,0.7988,0.7982,0.7982,0.7988,0.7841,0.7611,0.7604,0.7387,0.7105,0.7098,0.7098,0.7098,0.7098,0.7098,0.7098,0.7098,0.7098,0.7098,0.7098,0.7098,0.7098,0.7098,0.7098,0.7098,0.7098,0.7098,0.7098,0.7098,0.7098,0.7098,0.7098,0.7098,0.7098,0.7098,0.7098,0.7098,0.7098,0.7098,0.7098,0.7098,0.7098,0.7098,0.7098,0.7098,0.7098,0.7098,0.7098,0.7098,0.7098,0.7098,0.7098,0.7098,0.7098,0.7098,0.0,0.0,0.0,0.8669,0.875,0.8818,0.8858,0.8885,0.8885,0.8885,0.8885,0.8885,0.8885,0.8885,0.8885,0.8885,0.8804,0.8804,0.8797,0.8608,0.8479,0.8615,0.8587,0.8601,0.8703,0.8979,0.9345,0.9665,0.9747,0.9899,1.0212,1.0212,1.0054,0.9827,1.1992,1.3696,1.4912,1.3584,1.2856,1.2856,1.0636,0.9575,0.9575,0.9575,0.9575,0.9575,0.9575,0.9575,0.9575,0.9575,0.9434,0.9187,0.9031,0.8825,0.8627,0.8478,0.8307,0.8213,0.8266,0.8105,0.7911,0.791,0.776,0.7584,0.7482,0.7305,0.7098,0.7098,0.7098,0.7098,0.7098,0.7098,0.7098,0.7098,0.7098,0.7098,0.7098,0.7098,0.7098,0.7098,0.7098,0.7098,0.7098,0.7098,0.7098,0.7098,0.7098,0.7098,0.7098,0.7098,0.7098,0.7098,0.7098,0.7098,0.7098,0.7098,0.7098,0.7098,0.7098,0.7098,0.7098,0.7098,0.7098,0.7098,0.7098,0.7098,0.7098,0.7098,0.7098,0.7098,0.7098,0.7098,0.8194,0.0,0.0,0.0,0.0,0.8689,0.8838,0.8844,0.8824,0.8871,0.8885,0.8885,0.8885,0.8885,0.8885,0.8885,0.8797,0.8804,0.8852,0.856,0.8397,0.8547,0.8513,0.852,0.8621,0.8897,0.9237,0.9665,0.964,0.9709,1.0071,1.0014,1.0222,1.0609,1.2102,1.3828,1.5784,1.374,1.2678,1.2678,1.06,0.9575,0.9575,0.9575,0.9575,0.9575,0.9575,0.9575,0.9575,0.9575,0.9484,0.9335,0.913,0.9023,0.8931,0.8733,0.8593,0.8486,0.8505,0.8342,0.8034,0.7945,0.7767,0.7584,0.7482,0.7305,0.7105,0.7204,0.7139,0.7098,0.7098,0.7098,0.7098,0.7098,0.7098,0.7098,0.7098,0.7098,0.7098,0.7098,0.7098,0.7098,0.7098,0.7098,0.7098,0.7098,0.7098,0.7098,0.7098,0.7098,0.7098,0.7098,0.7098,0.7098,0.7098,0.7098,0.7098,0.7098,0.7098,0.7098,0.7098,0.7098,0.7098,0.7098,0.7098,0.7098,0.7098,0.7098,0.7098,0.7098,0.7098,0.7098,0.0,0.0,0.0,0.0,0.0,0.0,0.8804,0.8811,0.875,0.8851,0.8878,0.8878,0.8885,0.8885,0.8885,0.8885,0.8885,0.8831,0.8737,0.8581,0.8431,0.8347,0.8397,0.8479,0.8479,0.8621,0.8925,0.9463,0.9265,0.9333,0.9892,0.9721,1.0551,1.263,1.2678,1.3692,1.5784,1.374,1.2678,1.2678,1.06,0.9575,0.9575,0.9575,0.9575,0.9575,0.9575,0.9575,0.9575,0.9575,0.9575,0.9575,0.9575,0.9434,0.9236,0.9187,0.9031,0.8817,0.8825,0.8627,0.84,0.8258,0.7917,0.7604,0.7597,0.7387,0.7132,0.7326,0.7258,0.7098,0.7098,0.7098,0.7098,0.7098,0.7098,0.7098,0.7098,0.7098,0.7098,0.7098,0.7098,0.7098,0.7098,0.7098,0.7098,0.7098,0.7098,0.7098,0.7098,0.7098,0.7098,0.7098,0.7098,0.7098,0.7098,0.7098,0.7098,0.7098,0.7098,0.7098,0.7098,0.7098,0.7098,0.7098,0.7098,0.7098,0.7098,0.7098,0.7098,0.7098,0.7098,0.7098,0.7988,0.0,0.0,0.0,0.0,0.0,0.8703,0.8655,0.8621,0.8831,0.8797,0.8804,0.8865,0.8885,0.8885,0.8885,0.8885,0.8871,0.8824,0.8648,0.8465,0.8425,0.8459,0.8479,0.8479,0.8621,0.8974,0.968,0.9332,0.9387,1.0079,0.9795,1.0551,1.263,1.2678,1.3692,1.5784,1.374,1.2678,1.2678,1.06,0.9575,0.9575,0.9575,0.9575,0.9575,0.9575,0.9575,0.9575,0.9575,0.9575,0.9575,0.9385,0.9385,0.9476,0.9286,0.92,0.9203,0.9133,0.9003,0.8743,0.8319,0.8131,0.7958,0.7595,0.7373,0.7292,0.7224,0.7132,0.7098,0.7098,0.7098,0.7098,0.7098,0.7098,0.7098,0.7098,0.7098,0.7098,0.7098,0.7098,0.7098,0.7098,0.7098,0.7098,0.7098,0.7098,0.7098,0.7098,0.7098,0.7098,0.7098,0.7098,0.7098,0.7098,0.7098,0.7098,0.7098,0.7098,0.7098,0.7098,0.7098,0.7098,0.7098,0.7098,0.7098,0.7098,0.7098,0.7098,0.7098,0.7098,0.7098,0.8008,0.0,0.0,0.8235,0.0,0.0,0.8628,0.8594,0.8567,0.8817,0.8811,0.8832,0.8865,0.8885,0.8865,0.8797,0.8844,0.8885,0.8885,0.8676,0.8506,0.8567,0.852,0.8506,0.8574,0.8716,0.9057,0.9754,0.9481,0.9524,1.0046,0.9778,1.0551,1.263,1.2678,1.3692,1.5784,1.374,1.2678,1.2678,1.06,0.9575,0.9575,0.9575,0.9575,0.9575,0.9575,0.9575,0.9575,0.9575,0.9575,0.9575,0.9434,0.9476,0.9575,0.9434,0.9412,0.9486,0.9395,0.9265,0.9024,0.8665,0.8401,0.8117,0.7769,0.7513,0.7398,0.7265,0.7146,0.7098,0.7098,0.7098,0.7098,0.7098,0.7098,0.7098,0.7098,0.7098,0.7098,0.7098,0.7098,0.7098,0.7098,0.7098,0.7098,0.7098,0.7098,0.7098,0.7098,0.7098,0.7098,0.7098,0.7098,0.7098,0.7098,0.7098,0.7098,0.7098,0.7098,0.7098,0.7098,0.7098,0.7098,0.7098,0.7098,0.7098,0.7098,0.7098,0.7098,0.7098,0.7098,0.7098,0.0,0.0,0.0,0.8208,0.814,0.0,0.8567,0.854,0.852,0.8825,0.8817,0.8817,0.8831,0.8831,0.8845,0.871,0.8798,0.8838,0.8858,0.8676,0.856,0.8696,0.8587,0.856,0.8696,0.8797,0.9154,0.9761,0.9645,0.9662,0.99,0.9721,1.0551,1.263,1.2678,1.3644,1.5594,1.3703,1.263,1.2484,1.0551,0.9575,0.9575,0.9575,0.9575,0.9575,0.9575,0.9575,0.9575,0.9575,0.9575,0.9575,0.9575,0.9575,0.9575,0.9575,0.9575,0.9575,0.9575,0.9434,0.9205,0.9049,0.8705,0.8275,0.8063,0.7766,0.7412,0.7398,0.7244,0.7098,0.7098,0.7098,0.7098,0.7098,0.7098,0.7098,0.7098,0.7098,0.7098,0.7098,0.7098,0.7098,0.7098,0.7098,0.7098,0.7098,0.7098,0.7098,0.7098,0.7098,0.7098,0.7098,0.7098,0.7098,0.7098,0.7098,0.7098,0.7098,0.7098,0.7098,0.7098,0.7098,0.7098,0.7098,0.7098,0.7098,0.7098,0.7098,0.7098,0.7098,0.7098,0.7098,0.8235,0.8133,0.7995,0.8029,0.8015,0.0,0.8309,0.8235,0.8208,0.8513,0.8479,0.8438,0.8554,0.8574,0.856,0.8533,0.8554,0.8615,0.8737,0.8703,0.8676,0.871,0.8682,0.8676,0.871,0.8797,0.9154,0.9761,0.9968,1.0016,0.99,0.9721,1.0551,1.263,1.2678,1.3318,1.458,1.3318,1.229,1.1463,1.0207,0.9575,0.9575,0.9575,0.9575,0.9575,0.9575,0.9575,0.9575,0.9575,0.9575,0.9575,0.9575,0.9575,0.9575,0.9575,0.9575,0.9575,0.9575,0.9583,0.9476,0.9247,0.904,0.8749,0.8345,0.7944,0.7566,0.7262,0.7119,0.7098,0.7098,0.7098,0.7098,0.7098,0.7098,0.7098,0.7098,0.7098,0.7098,0.7098,0.7098,0.7098,0.7098,0.7098,0.7098,0.7098,0.7098,0.7098,0.7098,0.7098,0.7098,0.7098,0.7098,0.7098,0.7098,0.7098,0.7098,0.7098,0.7098,0.7098,0.7098,0.7098,0.7098,0.7098,0.7098,0.7098,0.7098,0.7098,0.7098,0.7098,0.7098,0.7098,0.8194,0.8099,0.7988,0.7988,0.7988,0.0,0.0,0.8208,0.8214,0.8438,0.8425,0.8397,0.8472,0.8479,0.8459,0.8391,0.8499,0.8574,0.8499,0.8492,0.8547,0.8696,0.8642,0.8655,0.8811,0.8838,0.9154,0.9761,1.0044,1.0171,1.0082,0.977,1.0306,1.1901,1.195,1.2436,1.3511,1.2484,1.1707,1.117,1.0109,0.9575,0.9575,0.9575,0.9575,0.9575,0.9575,0.9575,0.9575,0.9575,0.9575,0.9575,0.9575,0.9575,0.9575,0.9575,0.9575,0.9575,0.9575,0.9575,0.9567,0.9372,0.9139,0.8925,0.8528,0.8011,0.7558,0.7347,0.7187,0.7098,0.7098,0.7098,0.7098,0.7098,0.7098,0.7098,0.7098,0.7098,0.7098,0.7098,0.7098,0.7098,0.7098,0.7098,0.7098,0.7098,0.7098,0.7098,0.7098,0.7098,0.7098,0.7098,0.7098,0.7098,0.7098,0.7098,0.7098,0.7098,0.7098,0.7098,0.7098,0.7098,0.7098,0.7098,0.7098,0.7098,0.7098,0.7098,0.7098,0.7098,0.7098,0.7098,0.8184,0.8096,0.8069,0.8042,0.8035,0.8106,0.0,0.0,0.0,0.837,0.8397,0.8397,0.8397,0.837,0.8323,0.8241,0.8397,0.8465,0.8255,0.8228,0.8343,0.8669,0.8601,0.8635,0.8858,0.8913,0.9182,0.9761,0.999,1.016,1.0212,0.9851,1.0151,1.117,1.1219,1.1609,1.2387,1.1609,1.1121,1.0886,1.001,0.9575,0.9575,0.9575,0.9575,0.9575,0.9575,0.9575,0.9575,0.9575,0.9575,0.9575,0.9575,0.9575,0.9575,0.9575,0.9575,0.9575,0.9575,0.9575,0.96,0.9461,0.9212,0.891,0.855,0.805,0.7635,0.7503,0.737,0.7231,0.7187,0.7231,0.7275,0.7275,0.7275,0.7231,0.7187,0.7187,0.7143,0.7098,0.7098,0.7098,0.7098,0.7098,0.7098,0.7098,0.7098,0.7098,0.7098,0.7098,0.7098,0.7098,0.7098,0.7098,0.7098,0.7098,0.7098,0.7098,0.7098,0.7098,0.7098,0.7098,0.7098,0.7098,0.7098,0.7098,0.7098,0.7098,0.7098,0.7098,0.7098,0.7098,0.8642,0.8533,0.8397,0.8275,0.8241,0.8214,0.8092,0.0,0.8022,0.8035,0.0,0.8042,0.8042,0.0,0.0,0.7995,0.7977,0.795,0.8002,0.8015,0.8177,0.8662,0.8696,0.875,0.8865,0.9091,0.9334,0.9754,0.9831,0.9951,1.0212,0.9965,1.028,1.1179,1.1219,1.1268,1.1365,1.1268,1.0739,0.9772,0.9673,0.9575,0.9575,0.9575,0.9575,0.9575,0.9575,0.9575,0.9575,0.9575,0.9575,0.9575,0.9575,0.9575,0.9575,0.9575,0.9575,0.9575,0.9575,0.9575,0.96,0.9461,0.9137,0.8754,0.8375,0.8172,0.8025,0.7635,0.7635,0.7768,0.7503,0.7635,0.7812,0.7812,0.7812,0.7724,0.7503,0.7459,0.737,0.7143,0.7098,0.7098,0.7098,0.7098,0.7098,0.7098,0.7098,0.7098,0.7098,0.7098,0.7098,0.7098,0.7098,0.7098,0.7098,0.7098,0.7098,0.7098,0.7098,0.7098,0.7098,0.7098,0.7098,0.7098,0.7098,0.7098,0.7098,0.7098,0.7098,0.7098,0.7098,0.7098,0.8601,0.8533,0.8452,0.8354,0.832,0.8228,0.8022,0.7988,0.7988,0.7988,0.0,0.0,0.0,0.0,0.0,0.0,0.8058,0.8072,0.7995,0.8119,0.8241,0.8431,0.8459,0.8547,0.8784,0.9014,0.9367,0.9746,0.9777,0.9899,1.0212,0.9981,1.0004,1.0265,1.0256,1.0256,1.0256,1.0886,1.0641,0.9624,1.0207,1.0207,0.9575,0.9575,0.9575,0.9575,0.9575,0.9575,0.9575,0.9575,0.9575,0.9575,0.9575,0.9575,0.9575,0.9575,0.9575,0.9575,0.9575,0.9575,0.96,0.9461,0.9112,0.8759,0.8596,0.8367,0.8157,0.7981,0.79,0.7856,0.7768,0.7812,0.79,0.79,0.79,0.7856,0.7768,0.7724,0.7709,0.7662,0.7683,0.7712,0.7843,0.7437,0.7098,0.7098,0.7098,0.7098,0.7098,0.7098,0.7098,0.7098,0.7098,0.7098,0.7098,0.7098,0.7098,0.7098,0.7098,0.7098,0.7098,0.7098,0.7098,0.7098,0.7098,0.7098,0.7098,0.7098,0.7098,0.7098,0.7098,0.7098,0.8635,0.8661,0.8666,0.8429,0.8381,0.8275,0.8035,0.7988,0.8002,0.8092,0.8106,0.0,0.0,0.0,0.8106,0.8106,0.0,0.8167,0.8008,0.8133,0.8221,0.832,0.8343,0.8472,0.8689,0.8883,0.9194,0.9734,0.9701,0.9871,1.0233,1.0063,1.0028,1.0095,1.0044,1.0158,1.0453,1.0935,1.0788,1.006,1.0542,1.0355,0.9575,0.9575,0.9575,0.9575,0.9575,0.9575,0.9575,0.9575,0.9575,0.9575,0.9575,0.9575,0.9575,0.9575,0.9575,0.9575,0.9575,0.9592,0.9535,0.9445,0.9145,0.8893,0.8893,0.8636,0.8367,0.8325,0.8234,0.8092,0.8086,0.8063,0.8092,0.813,0.8145,0.8153,0.8109,0.8117,0.811,0.8192,0.8169,0.8252,0.8365,0.7865,0.7431,0.73,0.7293,0.7235,0.7098,0.7098,0.7098,0.7098,0.7098,0.7098,0.7098,0.7098,0.7098,0.7098,0.7098,0.7098,0.7098,0.7098,0.7098,0.7098,0.7098,0.7098,0.7098,0.7098,0.7098,0.7098,0.7098,0.7098,0.8982,0.914,0.9235,0.8652,0.8472,0.8397,0.8056,0.7988,0.8029,0.8235,0.8313,0.8303,0.8445,0.8357,0.8313,0.8313,0.814,0.0,0.0,0.7995,0.8099,0.8255,0.852,0.8703,0.871,0.8574,0.8818,0.9563,0.9474,0.9715,1.0366,1.0249,1.0527,1.1331,1.1234,1.1609,1.2581,1.1658,1.117,1.1121,1.0109,0.9624,0.9575,0.9575,0.9575,0.9575,0.9575,0.9575,0.9575,0.9575,0.9575,0.9575,0.9575,0.9575,0.9575,0.9575,0.9575,0.9575,0.9575,0.951,0.9412,0.9404,0.9282,0.9088,0.9088,0.8958,0.8754,0.8691,0.8639,0.8565,0.8501,0.852,0.8609,0.8726,0.8767,0.877,0.8706,0.8691,0.8598,0.8426,0.838,0.838,0.8387,0.838,0.8227,0.7836,0.7769,0.7622,0.7156,0.7098,0.7098,0.7098,0.7098,0.7098,0.7098,0.7098,0.7098,0.7098,0.7098,0.7098,0.7098,0.7098,0.7098,0.7098,0.7098,0.7098,0.7098,0.7098,0.7098,0.7098,0.7098,0.7098,0.9541,0.9596,0.9545,0.9058,0.8871,0.8692,0.8286,0.8194,0.8208,0.8313,0.8395,0.8425,0.8472,0.8445,0.8377,0.834,0.8228,0.816,0.0,0.7901,0.7984,0.8241,0.8357,0.8418,0.8418,0.837,0.8706,0.954,0.9474,0.967,1.0375,1.0257,1.0587,1.135,1.1283,1.1365,1.1707,1.2047,1.1521,1.0158,1.0493,1.0306,0.9575,0.9575,0.9575,0.9575,0.9575,0.9575,0.9575,0.9575,0.9575,0.9575,0.9575,0.9575,0.9575,0.9575,0.9575,0.9575,0.9575,0.9592,0.9535,0.9535,0.9413,0.9314,0.9314,0.9145,0.8944,0.8788,0.8872,0.8901,0.8746,0.8823,0.8934,0.8991,0.9007,0.8977,0.8987,0.8948,0.8988,0.9052,0.9076,0.9108,0.9179,0.9203,0.8956,0.8303,0.8212,0.8107,0.7809,0.7652,0.752,0.7377,0.7187,0.7098,0.7098,0.7275,0.737,0.737,0.737,0.7275,0.7098,0.7098,0.7098,0.7098,0.7098,0.7098,0.7098,0.7098,0.7098,0.7098,0.7098,0.7098,0.9816,0.9871,0.9889,0.9446,0.9275,0.9046,0.8636,0.8498,0.8512,0.8626,0.8604,0.8634,0.8902,0.8761,0.8565,0.8526,0.8405,0.8201,0.0,0.7923,0.7943,0.8092,0.8153,0.8208,0.832,0.832,0.8629,0.9466,0.9444,0.9746,1.0455,1.0355,1.0871,1.2169,1.1984,1.2022,1.2464,1.2624,1.1853,1.0158,1.0493,1.0256,0.9575,0.9575,0.9575,0.9575,0.9575,0.9575,0.9575,0.9575,0.9575,0.9575,0.9575,0.9575,0.9575,0.9575,0.9575,0.9575,0.9575,0.9575,0.9575,0.9575,0.9551,0.9453,0.9453,0.9332,0.9177,0.912,0.9104,0.9088,0.9023,0.9056,0.9112,0.9177,0.9194,0.921,0.9275,0.9283,0.9315,0.9429,0.9453,0.9486,0.9608,0.9575,0.938,0.8705,0.8619,0.8511,0.8252,0.8092,0.7964,0.7817,0.7527,0.733,0.7238,0.7503,0.7635,0.7635,0.7635,0.7503,0.7231,0.7231,0.7187,0.7098,0.7098,0.7098,0.7098,0.7098,0.7098,0.7098,0.7098,0.7098]}]]